GFSCGP_prec_cthk_000.txt.gz
RH
10 13 18 21 22 24 31 36 36 36 43 44 45 44 43 45 44 37 30 29 29 24 25 27 29 30 31 32 33 32 31 32 40 48 43 40 43 42 41 37 45 41 40 39
9 11 16 20 23 24 31 33 34 35 44 44 45 44 42 45 46 45 40 36 29 30 30 28 28 28 29 32 32 33 31 33 37 39 38 39 43 39 40 37 41 37 37 32
9 9 15 18 20 24 27 32 35 40 41 43 46 44 41 42 47 46 47 44 38 36 34 33 28 28 29 30 31 28 28 30 35 37 42 37 39 35 37 35 34 30 28 30
7 9 12 16 19 23 25 25 35 39 45 44 41 42 38 41 42 43 43 45 42 45 44 42 39 31 29 28 29 27 28 28 33 35 34 32 33 34 35 37 37 32 28 30
9 7 9 14 16 20 22 27 29 35 41 45 48 47 39 39 38 39 39 41 42 40 44 43 41 35 34 32 30 24 25 26 29 31 29 31 31 37 35 34 35 33 34 30
11 9 8 10 15 21 23 30 32 33 36 40 40 44 34 35 32 33 36 39 40 41 42 46 41 35 39 40 36 25 23 23 26 28 29 31 33 34 37 38 37 36 38 34
11 11 7 8 13 22 24 29 33 36 35 36 38 41 31 31 30 26 29 33 38 42 43 45 43 36 34 39 39 31 26 22 25 27 31 32 33 34 38 42 40 42 42 42
16 13 10 8 10 20 22 24 30 34 30 31 35 37 27 25 27 25 27 28 36 40 37 36 37 39 34 33 34 37 31 25 25 28 31 34 34 36 40 47 49 49 50 50
18 15 14 9 10 15 22 25 26 28 27 26 23 30 23 25 27 25 25 27 31 35 36 36 38 35 34 29 31 34 33 29 30 32 33 34 35 37 48 51 53 54 52 52
21 21 17 14 12 11 20 22 28 28 33 31 28 28 30 25 24 24 25 25 27 31 33 35 36 36 33 29 29 33 31 29 30 31 32 32 34 38 46 47 50 51 57 53
21 23 19 17 12 11 14 24 26 29 28 29 31 27 26 23 25 27 26 25 26 27 30 33 35 36 35 32 31 37 32 31 29 30 32 33 40 44 45 49 54 54 52 51
24 26 23 14 12 11 15 20 27 29 31 30 27 23 23 25 21 20 24 25 25 24 26 29 34 38 37 35 34 33 31 33 35 36 36 40 46 49 50 51 54 54 53 54
27 27 34 24 16 14 14 18 23 27 28 30 31 27 24 26 19 19 23 23 21 21 26 30 34 34 34 35 35 32 33 36 43 48 50 50 52 53 57 55 52 51 54 53
29 27 25 25 22 17 16 12 17 21 26 27 27 27 26 22 19 17 20 22 21 25 28 32 32 35 33 32 31 30 35 39 46 51 53 59 63 60 61 63 60 52 55 53
41 37 39 27 23 26 23 19 15 16 19 26 25 25 26 27 20 17 18 22 23 23 23 28 33 30 29 29 30 32 37 38 43 48 54 57 61 65 64 64 60 56 55 54
39 47 42 43 36 32 29 26 19 17 13 18 22 24 23 24 20 17 17 20 24 24 23 27 33 32 29 31 29 28 31 34 40 46 51 55 56 57 56 59 60 57 54 59
42 48 52 47 41 37 36 30 26 20 15 15 16 14 16 18 20 17 16 18 22 24 24 27 31 30 30 29 29 30 31 34 38 43 44 47 48 50 50 52 61 65 71 70
45 51 55 51 57 51 28 30 28 24 17 15 17 20 16 17 20 17 19 17 22 25 26 29 28 29 27 28 32 35 33 31 37 39 42 45 45 45 43 43 47 52 62 65
39 44 56 54 50 46 39 42 31 27 22 18 21 21 24 22 20 19 16 19 24 26 28 31 30 31 31 33 33 31 33 32 36 40 42 41 40 44 47 50 52 60 67 70
40 43 50 56 54 53 52 54 47 39 30 23 23 22 18 20 19 13 20 21 25 27 28 28 30 34 34 33 31 31 33 32 33 34 37 39 43 44 49 55 59 66 73 67
47 46 44 54 61 53 52 49 43 52 28 24 22 19 21 22 20 23 23 25 29 29 30 29 30 35 34 34 36 36 34 34 34 36 38 41 45 49 55 55 59 67 68 69
48 47 46 57 64 57 50 49 49 54 44 35 29 25 29 27 25 31 32 34 34 32 33 31 30 30 33 36 37 34 35 33 37 40 42 50 56 59 63 61 58 62 68 71
59 50 52 46 43 50 50 53 54 56 51 45 41 36 34 35 33 35 38 39 34 33 34 35 35 36 36 36 41 38 35 37 40 42 48 55 61 67 64 61 62 63 68 71
58 55 49 47 47 47 51 52 56 61 57 54 52 48 48 45 40 40 42 40 39 40 40 38 38 37 36 35 36 36 38 42 43 49 55 60 63 62 60 63 62 63 69 65
65 55 54 54 50 51 63 69 72 65 64 58 57 53 53 55 53 46 48 51 46 46 46 46 44 45 40 38 39 39 41 45 50 53 57 59 58 60 60 58 61 66 63 62
73 71 63 54 54 56 64 70 77 69 63 62 59 59 57 54 52 56 58 56 62 55 53 54 53 51 48 43 43 46 46 50 50 53 52 49 48 50 54 56 59 62 61 61

GFSCGP_prec_cthk_003.txt.gz
RH
8 13 16 21 23 25 29 30 28 31 35 30 40 43 43 41 38 35 33 30 28 26 26 28 31 32 33 33 31 34 34 33 31 37 46 46 47 47 43 42 48 45 42 41
8 9 14 21 24 24 28 28 31 32 33 37 37 44 42 47 39 37 34 32 29 29 27 29 28 30 32 29 29 30 30 30 27 36 37 41 43 43 45 45 42 44 44 43
8 7 11 17 23 25 27 28 28 29 34 49 39 47 41 44 45 41 39 36 31 35 37 34 28 29 31 30 27 29 28 29 30 34 44 45 47 40 48 46 46 37 32 33
10 8 8 13 18 21 25 28 30 29 40 47 35 37 43 35 42 41 42 41 40 38 39 38 38 32 31 30 28 29 28 28 30 33 38 41 47 41 40 41 40 38 39 33
9 8 9 9 12 19 20 25 29 30 32 44 36 34 36 39 38 42 37 40 39 40 41 43 45 39 35 33 32 28 29 29 29 29 38 39 40 42 43 42 40 39 41 38
9 10 8 9 11 15 19 25 28 27 30 32 35 38 35 43 38 39 41 36 40 41 41 44 48 49 41 42 41 34 30 27 27 29 32 34 41 36 42 39 45 44 41 43
11 10 11 8 11 12 20 25 28 29 28 28 29 36 45 36 32 37 34 40 40 35 37 41 45 45 46 41 43 43 38 27 25 28 28 29 33 36 40 47 47 48 44 51
13 13 11 9 9 11 15 19 24 31 29 27 27 30 29 34 32 30 34 31 37 43 35 37 39 42 45 41 39 36 37 34 29 27 28 34 33 37 41 45 53 51 53 54
14 15 14 12 10 10 13 17 21 24 25 25 24 25 29 35 35 31 31 29 30 40 35 37 36 38 40 38 32 33 37 33 30 31 32 34 40 39 43 48 48 56 52 54
13 17 16 12 12 10 10 14 21 24 28 27 23 23 25 28 28 28 30 29 32 37 34 36 34 36 39 39 33 31 32 32 30 34 35 37 41 44 44 50 51 52 58 52
14 16 19 20 12 11 10 10 20 23 23 24 26 24 21 27 34 29 29 27 29 36 35 34 34 34 39 40 37 32 35 35 31 30 35 36 40 42 43 43 46 48 50 49
18 18 20 18 18 16 14 12 15 24 27 23 23 22 24 24 26 28 28 28 31 34 32 30 33 35 36 37 38 37 33 34 30 32 33 36 38 42 43 45 45 46 44 47
21 20 22 25 21 18 14 12 12 15 22 27 26 23 23 25 24 27 28 28 27 35 42 32 29 35 34 35 38 35 33 31 32 37 40 41 41 40 42 47 48 45 43 47
26 28 23 24 23 18 17 15 14 14 17 20 24 26 26 25 27 27 27 28 31 33 32 27 30 31 34 35 37 32 32 33 36 40 43 46 43 43 44 47 49 48 43 45
24 26 28 23 29 27 19 15 14 14 15 18 21 24 25 26 27 26 25 23 24 27 28 26 30 30 33 35 36 33 32 32 38 41 43 45 47 45 48 48 52 52 46 43
27 32 34 31 28 26 25 22 16 15 14 16 19 21 22 25 29 28 26 23 22 26 30 26 25 28 32 34 35 33 34 35 40 41 41 45 42 47 52 55 56 57 52 49
35 43 49 44 38 37 33 24 24 22 19 16 16 15 18 21 25 25 26 28 23 19 21 29 24 24 31 35 34 35 34 34 35 36 38 44 46 48 53 58 58 57 59 58
45 46 45 45 45 46 26 32 32 28 25 22 19 17 17 17 19 24 25 26 23 18 18 28 25 31 34 36 35 35 35 32 32 33 37 44 46 50 53 52 49 49 51 55
42 42 46 49 48 48 40 54 39 44 37 27 27 23 18 21 22 18 19 18 24 20 27 28 29 33 38 37 34 34 30 31 33 36 39 43 44 43 44 45 46 48 54 58
39 45 51 53 51 46 36 57 43 39 36 32 32 28 19 22 30 26 22 22 21 17 24 27 29 34 36 35 36 32 32 36 38 42 44 41 38 38 40 44 47 53 58 67
28 34 36 43 50 43 51 45 49 48 47 48 37 32 30 22 31 38 33 27 22 18 24 26 32 35 37 38 38 38 38 39 39 40 42 43 40 39 42 46 54 58 63 71
30 34 37 47 49 48 53 54 54 58 58 50 44 35 32 29 37 38 35 30 28 24 23 27 33 36 38 39 41 42 40 38 39 42 44 43 43 45 46 51 56 60 64 73
37 35 40 45 45 55 56 56 47 44 48 50 45 45 44 41 39 36 36 34 32 34 34 37 42 38 38 40 39 41 42 44 47 48 47 45 49 49 51 56 59 66 71 67
50 50 50 56 61 67 62 55 45 42 51 58 53 57 55 53 50 51 47 40 40 44 45 46 49 47 47 45 44 45 45 46 49 50 48 51 52 56 60 63 63 62 57 61
87 72 60 66 74 58 54 44 42 51 54 58 66 73 68 66 66 63 61 57 56 54 52 50 47 44 42 44 47 47 48 50 50 51 55 56 61 63 61 65 63 63 61 61
93 92 83 71 59 53 49 48 49 59 64 60 62 75 79 78 80 70 70 66 63 58 51 46 45 45 45 46 47 49 51 55 55 57 58 59 60 64 63 65 64 57 55 59

GFSCGP_prec_cthk_006.txt.gz
RH
11 12 15 19 20 19 24 29 26 30 39 38 41 49 41 46 46 39 33 33 32 30 27 28 28 29 31 32 30 28 28 30 32 32 35 41 46 44 42 36 39 45 47 41
9 9 11 18 21 21 23 29 28 29 34 42 38 44 38 53 48 39 32 29 30 28 29 28 28 28 29 29 26 26 27 29 30 30 34 35 34 35 37 41 42 35 45 35
9 8 8 14 19 21 21 27 28 28 33 35 34 36 42 51 45 39 32 31 27 27 28 30 28 26 27 27 24 24 25 27 27 28 31 37 52 49 52 42 45 36 39 31
11 9 9 10 15 19 21 22 26 27 34 37 35 37 42 44 50 39 30 31 31 28 31 33 33 32 29 28 23 24 25 26 26 28 34 31 34 42 43 38 42 31 30 30
9 10 9 9 10 15 19 23 24 26 30 40 43 42 42 41 47 48 39 30 32 34 33 34 36 37 34 30 26 23 24 26 25 25 30 39 43 38 34 31 33 36 34 31
11 9 9 9 9 12 17 24 23 24 27 33 35 41 31 43 35 41 48 47 35 33 35 36 38 41 42 38 40 32 28 26 27 26 30 35 44 38 40 43 37 34 33 35
11 10 10 10 10 11 13 21 25 25 26 27 28 39 33 38 41 35 43 52 47 33 37 36 37 38 42 46 43 43 39 34 27 27 28 29 35 31 38 40 36 37 35 35
12 12 10 10 8 11 11 17 21 28 26 26 23 26 30 38 39 38 43 50 45 39 41 38 37 35 39 44 46 44 40 36 36 32 28 30 30 30 31 34 32 37 40 47
12 13 13 11 12 9 10 14 14 22 22 24 23 23 23 24 34 35 37 38 36 40 46 41 39 34 39 41 43 39 36 37 35 34 32 31 31 31 28 32 35 43 49 53
13 15 15 14 12 10 8 11 15 19 26 26 22 23 26 25 27 37 37 34 33 30 37 43 38 34 37 39 43 40 38 35 37 32 29 35 33 33 29 29 39 44 53 53
15 15 15 18 14 12 12 10 12 16 18 23 25 24 23 24 26 28 31 28 30 28 36 40 35 32 35 39 41 41 39 38 38 36 29 30 31 28 28 32 39 41 49 54
19 18 17 16 19 16 13 10 9 14 19 18 21 22 21 23 25 28 29 27 23 21 31 36 37 31 31 35 39 40 41 39 38 37 29 26 24 25 28 33 35 40 47 49
19 22 21 18 19 21 17 13 13 11 13 21 21 20 19 23 29 33 29 27 28 31 34 35 37 34 30 31 36 39 41 39 36 36 26 25 25 26 30 31 34 40 43 47
22 23 23 19 18 21 22 15 14 13 13 13 20 23 20 22 26 30 30 29 29 29 33 39 42 42 32 29 30 36 41 39 34 33 27 26 27 29 29 31 32 38 43 49
26 27 26 22 23 25 23 21 19 18 12 15 11 20 24 21 24 29 28 28 27 25 37 40 39 34 35 33 31 35 40 39 33 30 31 28 30 33 32 36 36 42 48 53
25 28 29 31 27 26 27 24 18 17 15 12 13 15 15 21 21 27 31 30 28 26 24 34 33 28 30 32 31 35 38 36 34 31 31 31 33 34 38 41 45 52 56 60
30 27 32 32 28 30 30 28 24 20 15 16 15 12 15 17 20 24 31 34 31 29 26 25 33 31 28 29 30 32 37 37 36 35 32 31 33 39 43 45 49 53 58 60
32 31 29 32 37 40 24 26 25 24 22 18 16 14 14 16 19 23 23 27 33 32 28 25 24 28 27 30 30 31 40 40 37 38 36 32 34 38 45 47 51 57 58 60
36 36 36 40 46 38 37 33 36 34 31 28 26 24 23 19 16 19 23 24 24 29 31 29 24 24 27 27 28 33 40 39 38 37 34 34 40 43 43 47 53 55 55 55
46 47 47 50 51 48 43 49 42 39 38 43 42 36 34 29 24 18 15 21 21 24 26 27 24 26 26 25 28 34 40 41 36 33 36 41 42 44 46 52 52 50 51 52
51 53 52 50 47 40 48 50 49 46 43 47 42 42 38 38 35 32 28 24 28 24 25 25 36 37 33 32 31 35 39 38 37 39 44 47 46 51 53 49 47 51 51 54
51 52 52 54 55 54 56 63 67 58 54 49 46 40 38 36 33 28 29 30 34 31 29 31 38 38 31 31 35 40 45 44 46 46 49 51 53 49 48 52 53 51 54 57
49 44 42 44 43 51 59 61 63 60 57 51 45 42 36 34 36 39 40 35 36 42 39 40 45 40 39 39 41 46 50 52 52 50 51 49 47 48 56 54 54 54 58 58
46 51 46 40 38 50 48 53 61 59 53 48 43 45 39 42 48 43 43 39 39 46 48 47 43 44 43 45 47 51 53 50 45 44 46 48 52 53 55 56 60 60 60 59
78 73 69 45 55 62 67 68 60 50 44 41 39 42 47 55 61 54 53 53 48 48 49 51 49 50 50 52 52 52 48 44 42 45 49 51 53 54 60 63 64 59 57 60
90 93 87 84 70 64 64 67 58 46 43 42 35 43 48 65 78 74 67 63 61 61 55 55 57 60 62 59 52 49 46 46 46 49 50 53 56 63 66 62 61 61 61 61

GFSCGP_prec_cthk_009.txt.gz
RH
9 12 13 15 19 20 23 22 25 28 30 36 41 42 43 40 38 36 30 33 28 23 25 30 29 29 30 30 28 26 26 23 28 27 27 34 35 38 41 37 37 35 42 45
10 11 11 14 18 21 22 21 25 28 31 35 42 42 41 39 32 33 32 32 28 26 24 24 27 27 27 26 25 26 25 26 27 28 28 32 29 32 33 34 31 35 34 37
10 12 10 12 16 20 23 20 25 30 35 36 45 49 44 44 43 48 40 38 30 22 24 23 22 24 24 24 22 23 23 24 25 27 28 32 34 39 39 35 32 46 37 36
11 10 10 9 11 17 21 21 24 30 33 39 41 49 52 48 50 53 49 46 32 25 22 26 26 25 23 22 20 21 22 23 24 26 26 29 29 31 36 41 31 40 31 29
8 11 11 11 9 13 15 22 25 28 30 36 38 46 41 49 49 44 49 50 39 31 28 26 27 28 28 28 23 20 20 22 22 25 25 27 31 31 35 36 31 29 30 33
10 10 9 10 10 10 12 18 22 26 28 32 35 38 44 48 49 50 48 50 46 41 34 30 32 34 37 36 35 30 24 24 23 23 23 23 27 31 33 33 31 32 33 34
9 9 11 10 10 11 10 15 21 27 30 30 29 36 38 35 41 39 42 50 47 47 41 35 36 37 35 36 40 38 34 29 30 26 23 22 26 29 25 25 27 31 33 40
11 11 9 10 9 10 11 12 17 25 25 25 23 29 28 29 32 35 42 50 47 51 44 43 39 38 36 37 39 42 41 37 34 33 30 26 23 23 25 29 32 34 39 45
11 10 10 10 9 10 10 11 12 17 22 25 20 22 23 25 27 33 38 44 41 43 47 52 44 44 38 34 37 41 40 36 34 32 29 30 29 26 30 27 33 37 44 45
12 16 11 11 12 11 10 10 14 14 19 22 18 22 21 26 27 30 33 37 38 38 44 46 49 45 35 32 35 38 37 35 34 35 29 25 23 32 33 28 33 39 44 45
15 14 13 14 15 13 12 11 12 13 14 19 25 19 19 24 26 31 31 30 33 32 31 36 41 41 33 33 35 36 37 37 37 34 30 24 23 29 31 28 33 40 43 47
20 18 16 14 14 15 13 12 11 14 15 18 18 16 15 21 24 27 27 29 30 30 33 35 39 42 34 33 33 34 35 37 37 34 32 23 23 25 26 29 32 34 39 43
22 20 23 18 16 16 17 16 14 12 13 15 22 12 13 19 24 30 37 41 36 34 34 36 40 39 33 33 30 33 36 36 36 34 31 25 22 23 26 28 30 32 35 41
24 23 21 21 17 17 19 17 17 15 12 11 11 12 14 18 22 24 28 31 32 32 30 34 38 39 38 35 30 32 33 36 36 31 28 26 20 21 25 26 28 32 36 40
24 25 22 21 21 19 17 20 20 18 13 14 10 11 13 14 22 23 27 27 28 32 32 32 36 38 35 35 32 30 33 35 35 32 26 23 21 22 27 29 30 31 35 39
30 31 27 25 23 23 19 21 24 21 19 16 13 11 12 14 18 24 27 27 29 31 33 33 34 36 33 30 28 29 31 33 38 36 26 24 23 25 29 30 32 37 39 41
36 35 34 28 26 29 28 19 23 26 22 20 17 12 13 12 15 20 23 24 29 28 34 36 38 38 33 32 28 27 26 29 34 34 32 27 23 25 30 36 40 42 44 48
37 37 39 32 32 39 24 23 24 26 27 23 20 17 16 13 13 17 19 24 31 29 32 34 32 35 37 37 36 31 28 27 32 36 33 34 29 25 31 39 42 45 49 53
35 37 41 40 36 30 31 25 27 30 30 27 28 26 19 16 12 15 16 17 20 25 31 33 31 31 32 32 34 34 33 26 27 33 35 34 33 27 30 39 47 51 56 65
33 41 49 41 39 37 28 30 35 33 39 36 33 32 28 21 22 15 16 19 19 19 20 27 30 30 32 33 31 32 30 30 26 30 36 35 36 34 34 45 51 55 65 71
49 49 54 51 37 35 38 36 41 48 51 44 34 33 31 30 27 22 19 20 21 21 21 22 27 30 30 33 32 30 26 29 25 32 42 42 40 40 41 50 55 71 72 67
81 82 62 59 48 47 46 50 49 56 53 47 43 41 37 33 30 27 24 23 20 21 24 26 24 25 25 31 31 30 27 28 35 41 45 45 40 42 50 58 66 65 59 55
79 71 77 64 62 61 55 62 59 62 59 60 54 48 40 37 38 36 33 30 30 28 22 24 28 31 30 29 38 43 37 36 43 49 48 47 48 52 59 64 66 60 54 60
74 74 74 67 53 63 65 63 65 52 56 60 57 52 46 44 44 42 39 37 36 38 36 29 28 39 44 39 41 42 42 44 43 50 54 56 61 63 63 67 58 56 54 57
93 84 83 73 68 82 74 90 78 62 57 58 61 51 48 45 43 44 45 44 42 46 43 40 33 41 50 53 52 51 51 46 48 54 65 65 65 62 56 56 57 57 57 59
87 85 85 83 86 90 85 80 80 72 70 58 52 48 48 45 43 45 44 44 46 55 87 58 44 42 50 55 56 56 61 60 59 60 68 62 55 51 54 56 59 60 61 61

GFSCGP_prec_cthk_012.txt.gz
RH
10 12 13 16 20 23 29 28 27 28 31 34 36 39 43 48 51 52 47 42 34 28 21 26 30 32 30 31 31 30 29 28 29 28 31 34 38 37 38 38 35 37 43 51
11 11 11 14 17 20 25 26 25 27 29 32 43 40 43 46 47 46 44 46 34 32 22 22 27 28 27 27 29 29 27 27 27 26 28 29 29 29 29 32 33 35 39 38
10 10 9 11 14 17 20 23 24 25 29 34 41 46 46 46 49 48 47 43 33 31 29 20 23 25 25 24 24 24 24 25 25 26 28 31 33 29 32 34 34 32 35 38
12 10 10 10 12 15 17 19 24 29 30 38 47 52 50 50 48 48 46 41 34 31 31 25 21 20 22 20 21 23 23 23 23 23 24 25 28 33 33 33 38 34 46 37
11 10 9 12 11 12 12 21 25 30 31 35 35 46 43 47 47 47 45 43 47 31 31 32 27 28 27 24 24 23 23 22 22 22 22 22 25 24 25 33 36 35 38 32
11 11 11 9 10 10 10 17 25 29 32 37 34 37 41 44 42 43 44 41 44 44 37 37 32 34 36 34 32 30 26 25 24 23 22 20 20 23 28 31 36 36 31 31
14 13 10 11 12 12 11 13 21 26 32 31 30 35 31 35 35 39 42 41 42 46 44 43 39 37 37 35 36 37 38 37 30 28 24 20 18 20 25 30 32 30 28 33
16 15 12 11 11 11 12 12 14 22 26 27 27 31 24 26 31 37 37 40 41 41 43 44 42 36 37 37 38 38 40 40 39 32 28 25 21 19 22 26 29 29 28 36
15 13 9 9 9 11 11 14 11 15 18 26 22 25 19 23 30 33 34 40 38 39 40 40 43 40 38 38 37 38 41 42 40 33 30 28 25 24 23 28 27 26 32 42
15 15 10 8 10 11 12 11 13 14 15 17 18 22 18 18 24 28 29 30 35 35 39 37 38 37 35 38 39 37 40 40 39 33 28 25 22 23 27 31 29 31 36 42
17 17 12 11 12 13 13 12 13 13 13 13 18 12 11 14 23 26 28 28 32 34 37 38 38 37 38 38 36 38 39 39 38 35 32 27 23 23 27 30 31 30 36 41
20 19 17 14 11 13 14 13 12 13 13 13 10 9 9 10 20 25 27 29 33 34 39 39 37 36 40 36 36 37 36 38 38 36 35 32 24 20 26 29 29 32 37 39
28 20 22 19 16 15 17 14 12 13 12 12 15 11 9 10 15 25 27 31 35 41 43 46 41 39 36 38 35 36 32 33 37 38 36 34 27 21 26 25 31 32 33 38
30 25 22 20 17 15 16 15 15 14 14 12 10 12 9 10 16 24 24 26 28 39 45 45 45 39 39 40 39 35 34 31 35 36 34 33 27 19 22 26 29 31 32 35
38 34 25 23 19 18 16 16 16 15 13 13 10 11 10 9 16 20 23 30 27 29 34 35 38 36 38 40 36 37 33 30 31 31 29 29 29 19 20 25 25 29 30 34
42 40 35 29 23 19 19 18 17 16 15 14 13 12 12 9 8 16 20 20 30 33 31 29 30 34 36 37 36 37 34 31 32 33 29 27 26 23 19 22 26 26 31 34
50 46 42 39 30 25 27 15 18 17 18 16 16 15 14 12 9 12 18 21 27 33 27 32 30 31 39 38 36 36 35 31 33 33 32 30 26 24 20 23 26 26 30 35
52 49 47 44 39 36 20 19 19 20 21 20 18 17 15 14 12 9 16 19 21 27 31 24 33 33 35 35 39 35 33 31 30 32 33 34 33 25 23 24 27 31 37 39
52 51 48 49 48 35 27 24 22 22 22 25 21 21 17 16 16 15 11 16 18 24 26 28 26 31 35 39 41 38 35 35 32 32 31 34 38 36 30 25 27 32 38 42
60 50 50 49 49 45 29 29 29 26 44 34 29 27 23 21 19 19 14 12 15 17 21 28 31 32 34 37 35 34 37 39 35 34 31 28 33 40 39 34 27 30 38 51
76 78 62 59 64 47 44 38 33 36 40 36 36 33 28 27 26 22 17 14 13 14 16 19 23 28 28 30 36 33 32 33 30 31 31 31 30 39 42 43 37 35 42 57
89 92 84 65 79 70 48 43 36 40 46 42 40 40 38 34 31 27 21 20 18 16 16 18 17 18 22 26 27 29 32 31 31 32 34 34 33 34 45 46 43 51 55 57
93 88 73 67 85 74 62 61 61 50 47 48 46 43 40 38 36 34 31 29 27 22 21 20 21 20 18 20 27 27 28 32 35 37 36 34 35 36 43 48 51 56 59 61
85 87 77 70 76 79 77 64 64 58 54 51 49 48 47 43 42 39 38 35 31 31 33 35 36 32 26 24 22 23 25 27 32 37 39 36 36 36 43 52 56 57 62 64
91 91 88 72 74 77 86 78 68 61 57 54 49 49 49 46 44 42 42 41 40 39 40 40 40 41 45 46 29 29 28 32 39 39 47 44 45 47 55 61 66 71 73 76
92 95 98 87 81 98 96 90 74 61 57 56 54 50 53 53 50 47 46 45 45 49 48 42 37 36 39 53 71 43 42 44 51 53 57 61 58 64 69 78 87 91 81 71

GFSCGP_prec_cthk_015.txt.gz
RH
12 14 14 14 19 25 30 30 32 31 30 30 34 42 51 54 56 56 53 51 44 34 21 28 29 28 29 33 34 32 31 31 31 33 32 34 37 42 40 38 35 37 41 48
12 13 11 13 16 21 26 29 30 30 31 29 32 36 44 50 50 50 48 50 46 38 29 23 26 28 24 24 26 28 26 30 30 29 31 31 34 33 35 35 36 36 38 42
11 10 10 11 14 17 21 24 29 30 32 31 35 38 42 52 53 54 54 51 42 38 33 28 20 21 20 22 21 21 22 26 29 29 29 30 33 30 30 32 35 36 37 38
12 9 9 10 12 14 18 20 28 30 33 34 34 46 42 48 55 50 53 49 44 38 32 27 28 19 16 14 17 20 23 25 28 30 30 27 28 29 30 31 34 39 37 36
12 9 9 10 9 11 12 19 26 30 32 32 31 37 38 43 49 49 49 47 54 47 36 29 24 26 22 15 16 18 20 21 25 27 27 27 27 29 33 31 33 38 34 37
12 11 11 9 9 9 10 16 22 31 34 35 28 34 32 40 41 43 42 42 46 50 46 37 29 31 33 33 29 24 24 24 25 24 24 24 24 25 27 30 33 34 33 35
17 14 12 12 12 11 11 14 23 26 34 25 27 33 25 32 33 35 38 39 41 45 47 48 39 39 39 34 33 32 29 28 28 28 25 22 22 24 25 28 29 32 33 29
21 20 14 13 12 12 13 13 21 22 26 24 25 29 21 26 28 36 38 39 41 41 42 46 47 42 41 38 35 34 34 35 35 34 31 27 27 24 24 24 28 28 29 29
21 20 14 13 11 12 13 15 11 16 19 22 22 21 19 23 26 30 34 37 38 39 40 42 44 45 41 37 35 38 39 37 37 37 39 37 31 27 25 23 22 26 29 32
18 17 15 13 14 14 12 11 13 16 19 20 16 17 18 19 23 26 31 31 34 34 37 39 41 43 42 38 35 37 39 38 38 37 38 36 32 29 26 26 23 28 28 33
23 20 16 16 15 12 13 13 14 15 15 14 15 12 11 14 20 23 29 28 29 30 31 34 38 40 41 42 39 37 39 40 39 39 38 39 33 27 26 27 25 27 27 33
28 23 19 18 16 11 10 11 14 16 15 14 12 11 9 7 12 19 21 26 24 25 27 29 37 40 41 41 38 36 37 39 40 37 39 36 36 30 25 27 26 25 28 32
35 31 22 18 17 16 16 13 12 12 13 13 14 12 8 8 10 12 18 22 22 24 28 31 39 43 40 40 38 36 34 37 39 39 39 36 34 31 25 23 26 25 26 30
37 37 31 26 21 19 17 15 13 13 15 13 12 11 9 9 9 10 13 20 23 25 27 30 34 40 43 40 41 39 34 35 36 37 36 34 32 32 24 21 26 26 26 29
44 44 35 32 29 25 22 18 14 14 13 14 11 12 10 8 9 9 10 18 22 22 26 29 32 41 41 42 43 43 40 37 36 36 33 32 34 35 29 21 25 26 27 31
50 49 43 36 29 26 24 18 15 14 13 14 13 13 10 9 9 9 9 13 20 20 24 29 31 35 35 37 35 40 40 36 37 37 32 33 35 34 30 23 22 25 28 30
55 55 51 46 35 33 28 18 18 16 15 15 14 13 12 11 11 10 10 9 15 19 20 27 32 32 31 29 33 33 36 36 36 32 32 34 36 34 31 28 22 23 25 29
57 60 59 54 45 41 20 21 20 19 18 16 15 14 14 14 12 11 10 8 13 17 18 21 26 28 29 27 27 28 37 35 36 36 35 34 34 34 31 32 26 23 25 26
55 61 65 59 56 39 27 29 30 23 20 20 18 16 16 16 15 13 12 9 10 13 17 21 24 27 27 25 27 32 36 35 36 34 34 36 36 35 33 30 30 27 27 27
44 57 66 63 61 51 37 41 38 32 24 24 21 19 19 21 17 16 13 11 10 12 16 21 27 27 29 28 28 36 35 37 35 33 31 32 34 36 38 37 35 35 31 31
56 72 86 70 65 52 49 48 47 41 24 29 25 23 23 22 21 17 17 16 14 14 15 17 21 25 28 32 35 34 38 38 36 39 38 36 37 34 35 40 43 38 37 35
67 67 88 76 74 69 59 57 67 65 48 37 30 28 28 28 28 28 23 23 19 16 15 18 18 21 26 28 36 41 44 42 40 40 40 42 40 39 41 38 42 48 50 47
68 70 67 76 69 59 64 70 71 71 65 55 41 36 33 32 33 34 30 25 24 23 21 19 20 25 25 27 29 33 36 38 44 43 40 39 44 41 41 44 47 51 54 64
62 74 69 74 65 64 66 71 76 73 71 65 53 42 41 41 41 41 37 34 30 28 26 25 23 22 24 26 27 28 26 31 29 34 35 39 39 41 33 44 51 52 59 64
79 82 76 75 73 66 70 79 77 78 76 67 60 54 47 47 45 42 42 40 39 34 31 31 31 31 31 30 28 28 30 30 29 30 35 38 41 43 47 48 51 58 57 63
88 92 86 78 66 67 68 75 81 78 78 74 68 63 55 52 49 48 46 45 43 40 37 35 34 35 36 35 34 32 31 34 40 37 38 36 39 47 50 48 50 66 72 77

GFSCGP_prec_cthk_018.txt.gz
RH
13 16 14 12 15 22 30 32 34 36 36 33 34 38 47 50 58 59 60 55 52 39 22 29 29 30 31 29 30 29 30 30 29 29 30 32 36 39 40 40 40 43 45 47
15 15 13 10 13 18 24 29 32 36 35 33 29 29 40 46 46 52 59 51 56 46 35 25 27 28 28 26 25 27 26 28 26 29 31 32 35 37 35 36 37 38 36 40
14 12 12 12 12 15 20 24 29 34 35 34 34 33 34 43 49 53 58 59 51 47 39 30 22 22 24 23 23 23 22 21 23 25 29 30 33 32 31 30 32 34 35 35
14 12 12 12 12 13 17 20 26 32 35 37 38 36 37 43 48 51 54 56 46 44 39 34 28 24 20 19 20 21 21 20 22 26 26 26 28 28 28 29 31 36 38 36
14 12 12 12 10 11 12 17 24 29 34 35 36 32 28 38 50 50 52 44 47 41 39 36 27 23 23 16 16 18 18 20 22 24 24 24 26 29 30 32 33 34 37 36
13 13 12 10 9 10 11 13 20 28 31 34 27 31 26 34 39 45 48 43 45 45 41 34 26 27 28 29 20 19 18 17 19 21 23 23 24 26 31 32 31 31 33 34
16 16 13 11 11 11 12 14 22 26 31 25 25 30 21 22 25 34 40 38 41 42 42 39 36 36 37 33 32 25 23 22 22 22 23 24 25 26 29 29 28 30 30 30
21 21 15 13 12 12 13 14 21 25 25 23 25 24 21 20 25 33 34 37 39 43 43 45 48 42 40 40 38 34 30 25 25 25 25 26 26 26 27 29 30 29 28 27
24 22 17 14 13 13 15 15 11 16 19 20 22 18 19 20 24 31 32 36 37 39 43 41 46 48 44 42 39 33 32 34 33 30 28 29 31 30 28 27 28 27 27 25
22 23 18 17 17 15 14 12 16 18 20 21 18 16 18 17 19 25 30 33 34 35 39 43 44 46 47 44 37 34 35 36 38 35 35 35 39 38 32 30 29 27 24 25
30 21 18 18 20 17 16 16 16 16 17 19 18 14 12 12 14 18 24 30 32 30 32 36 40 43 46 49 44 34 36 38 39 39 40 38 37 37 36 33 31 26 26 25
36 33 26 20 17 17 16 15 16 17 16 16 16 12 9 9 9 13 19 25 29 27 26 28 30 35 39 44 46 41 38 39 36 38 42 40 39 39 38 33 29 26 26 26
38 38 31 25 23 19 18 18 17 15 16 16 16 12 7 8 9 8 12 19 26 27 24 25 27 31 36 37 41 44 41 38 41 40 40 41 41 38 37 36 29 26 27 27
40 42 37 34 29 29 26 19 17 16 16 15 14 11 10 9 8 8 9 12 18 23 24 22 24 27 32 35 36 40 38 40 42 41 40 38 38 38 35 35 29 24 25 28
45 44 40 37 34 30 27 25 22 19 15 15 12 11 11 10 10 9 8 8 10 15 20 21 22 27 31 34 35 36 38 38 40 41 39 36 34 36 36 34 33 22 24 26
51 49 46 42 35 30 30 26 24 21 19 17 14 13 11 9 9 9 9 8 9 10 14 20 23 25 30 34 37 37 38 38 37 36 35 35 34 35 36 36 36 24 23 27
54 56 53 48 39 37 32 23 22 21 19 17 15 14 12 11 11 11 9 9 9 10 12 16 20 22 27 31 33 39 40 40 35 34 35 34 33 34 36 38 37 32 21 25
57 58 59 57 48 45 28 26 26 24 19 18 16 14 14 12 11 11 11 11 11 10 10 15 17 20 21 25 27 31 37 39 39 35 36 37 36 35 37 38 37 37 28 20
54 57 57 61 57 38 33 34 38 39 33 22 18 16 15 14 12 11 12 12 12 11 9 12 18 18 23 26 24 26 30 31 32 34 34 37 36 36 38 37 36 35 36 26
44 53 56 60 59 51 39 41 38 45 45 34 29 19 17 15 16 14 13 13 14 13 10 11 14 16 18 24 25 27 28 28 31 35 35 34 37 39 38 39 39 39 38 38
57 56 63 59 65 50 43 46 47 46 36 38 38 33 20 18 16 16 15 15 15 14 11 11 12 16 19 27 28 28 30 28 32 37 45 41 40 40 41 41 48 48 46 44
55 62 59 63 69 60 43 50 56 53 50 47 44 38 31 23 20 21 22 23 21 20 18 15 13 15 18 25 31 33 35 38 39 42 45 46 49 46 42 42 37 43 54 54
55 52 64 52 48 44 44 52 61 59 65 57 49 40 36 34 29 27 27 30 30 26 24 23 20 18 21 25 26 31 36 37 39 45 46 47 46 53 55 57 50 45 53 54
62 57 71 70 45 41 52 58 61 57 66 67 60 53 46 42 37 34 35 34 36 33 30 28 26 24 22 22 24 26 29 30 34 38 41 50 49 47 48 55 51 55 58 60
72 72 58 61 53 56 51 55 63 62 71 79 73 62 60 55 49 44 41 38 35 34 32 27 26 25 24 23 22 23 23 24 23 25 29 34 41 43 43 43 43 44 44 52
75 69 69 52 56 59 66 64 59 66 73 79 74 68 65 63 57 47 41 38 35 34 33 30 28 28 28 28 27 26 27 26 26 25 24 24 26 30 37 45 48 53 55 56

GFSCGP_prec_cthk_021.txt.gz
RH
15 14 14 12 12 17 22 28 33 40 38 35 35 36 42 45 46 50 52 59 54 48 32 30 32 31 31 30 29 26 25 26 25 24 23 24 26 29 31 35 41 48 47 49
16 14 12 12 12 14 18 25 29 38 35 33 32 30 33 39 46 49 50 58 57 52 42 32 28 28 28 27 27 25 26 23 22 21 23 27 32 35 35 37 37 40 40 41
12 12 13 13 12 11 13 17 26 32 35 32 33 29 33 36 41 45 52 48 58 51 43 33 27 26 26 25 24 23 23 22 23 26 29 30 31 34 33 32 33 35 37 38
13 13 13 12 13 10 10 13 22 31 35 35 32 29 35 34 40 38 47 44 47 48 40 32 28 25 24 20 21 21 22 22 21 22 24 25 27 29 28 29 31 32 35 36
13 14 14 15 11 11 9 11 17 26 32 34 32 31 28 36 39 39 42 44 42 43 44 35 28 24 19 20 19 19 19 21 20 21 21 22 23 27 30 29 30 32 35 38
13 14 15 12 12 12 12 13 16 23 29 29 27 29 23 29 32 36 40 41 38 41 38 38 34 30 26 25 20 19 19 20 20 21 22 22 23 25 30 29 30 31 32 33
16 15 13 13 14 13 13 13 17 19 22 22 24 28 21 24 28 29 34 34 37 40 40 38 33 29 27 27 21 17 18 18 18 20 21 21 22 23 24 29 34 31 31 29
19 20 15 13 14 13 13 13 13 17 15 18 22 19 18 20 25 29 32 35 34 38 40 37 37 34 33 32 31 30 22 18 20 20 21 21 22 23 23 25 28 28 30 28
20 18 16 14 14 14 15 15 10 12 15 15 14 14 14 17 20 23 26 35 32 31 31 35 38 35 34 34 38 38 35 30 26 23 22 23 25 26 23 22 23 26 30 30
24 24 18 18 17 16 14 13 15 14 15 15 12 14 11 14 15 21 28 32 33 30 28 39 42 42 38 37 39 39 37 35 37 36 32 27 27 29 30 30 27 26 27 29
28 24 22 21 19 18 17 17 14 14 12 11 11 9 10 10 12 17 25 29 33 34 33 34 40 44 47 50 44 40 37 36 38 39 38 38 34 33 35 36 35 31 29 31
34 27 24 22 21 19 18 16 16 16 18 12 11 9 8 8 9 10 17 26 32 34 35 36 36 38 44 47 50 43 39 36 36 38 41 39 40 39 38 37 36 35 29 28
36 34 32 26 23 22 22 20 19 16 15 17 13 10 8 9 9 9 10 16 24 32 35 34 34 34 33 33 35 41 44 37 37 38 39 42 42 41 39 40 40 39 33 25
39 37 33 28 26 27 25 22 21 18 19 16 14 11 10 9 10 9 9 10 16 22 29 31 31 30 30 31 32 32 38 44 43 38 37 38 38 37 37 42 38 38 37 27
44 42 39 36 35 31 28 25 23 22 20 19 14 14 13 11 10 9 9 9 12 18 23 27 26 24 25 27 29 34 34 38 41 39 37 35 40 41 37 39 39 35 36 31
47 46 46 40 35 32 31 28 26 24 21 20 17 16 14 12 11 10 8 8 9 12 16 19 20 21 23 25 28 33 33 34 38 38 39 37 39 38 34 36 38 39 37 35
50 48 48 42 39 36 33 27 26 26 25 21 19 17 14 13 11 10 9 9 9 8 9 11 15 17 17 19 23 33 33 37 38 37 42 38 42 42 35 35 37 38 38 38
56 53 47 44 42 41 27 27 28 27 24 21 18 18 16 15 12 11 10 10 10 10 9 9 11 13 15 17 19 27 35 37 38 41 39 38 39 42 40 37 36 38 40 38
50 55 47 44 42 34 31 29 36 37 26 29 29 21 18 16 15 12 11 10 11 11 11 10 11 10 12 14 19 22 29 35 38 41 38 37 35 37 41 42 40 39 42 42
43 53 55 48 38 38 32 33 38 39 33 37 36 33 29 19 17 14 12 11 11 12 12 11 10 10 12 15 19 20 23 25 27 35 35 38 41 43 41 44 46 45 44 41
48 53 52 49 48 40 34 40 49 47 35 41 40 35 36 32 19 18 16 13 12 12 13 12 12 9 10 13 17 21 22 22 26 30 31 32 34 39 42 43 41 47 49 49
44 49 56 49 48 45 33 37 43 51 47 42 41 39 37 35 31 23 21 18 16 15 16 15 13 12 11 12 14 17 21 26 28 30 31 30 32 36 42 43 44 45 43 45
48 41 56 42 37 34 36 40 46 47 45 46 44 46 42 39 34 29 27 24 24 22 20 19 17 14 13 13 14 16 19 25 29 32 34 35 38 41 45 47 46 49 47 43
62 60 53 44 39 41 33 35 46 45 45 48 51 56 52 46 41 36 33 31 28 27 26 25 25 23 20 19 18 19 20 21 28 31 35 37 37 41 46 47 50 50 51 54
72 70 59 57 43 34 34 35 45 42 39 45 53 68 66 55 51 44 41 41 39 32 31 31 30 27 24 24 23 21 20 20 21 26 29 31 33 35 38 41 42 49 49 56
76 66 63 48 46 45 41 46 50 48 48 53 60 69 72 67 64 59 54 52 48 41 37 34 34 31 27 26 25 24 23 23 21 21 23 23 23 24 27 33 33 38 41 45

GFSCGP_prec_cthk_027.txt.gz
RH
24 24 23 16 25 24 26 30 29 32 34 35 41 45 43 46 51 56 58 49 50 50 45 38 37 41 42 44 43 44 42 40 40 39 38 37 35 36 37 36 35 37 37 40
20 20 16 17 16 19 20 26 29 29 32 35 39 42 39 43 47 52 57 51 51 52 47 42 33 37 37 39 40 39 38 38 37 38 37 36 36 36 32 32 33 36 39 42
14 13 12 12 12 12 14 19 24 28 31 32 38 39 40 38 43 52 54 54 50 45 47 41 35 31 35 36 37 34 33 35 34 36 36 34 33 33 33 33 34 35 38 42
17 15 14 11 11 11 10 11 19 27 29 31 33 38 38 36 37 46 46 52 47 47 50 48 41 31 31 34 34 33 31 28 29 29 32 31 30 32 34 35 36 36 33 37
17 15 15 13 10 11 11 13 12 18 26 31 32 36 32 36 35 37 40 45 48 43 48 44 39 37 28 30 33 31 30 27 27 25 28 29 28 29 33 38 37 32 32 30
20 16 15 14 13 12 13 14 14 14 17 24 26 31 32 31 33 35 39 42 45 42 41 43 41 37 30 27 31 32 31 26 26 25 22 25 24 27 32 34 39 34 33 32
19 18 17 15 15 13 14 13 14 13 13 16 18 21 24 29 30 33 36 38 41 41 40 40 39 37 31 24 23 25 27 23 22 23 21 19 20 21 27 30 32 37 37 34
21 20 17 16 15 14 14 12 13 14 12 12 14 19 18 25 30 30 34 37 44 43 39 41 35 35 33 24 19 21 23 21 21 20 20 16 16 20 21 22 26 29 32 35
23 21 20 18 15 15 16 13 10 13 13 12 12 13 17 23 26 28 31 34 38 43 41 32 36 37 34 26 21 18 15 15 15 15 15 15 12 14 18 20 21 27 27 33
27 28 23 20 20 17 18 13 14 13 17 16 14 16 16 17 20 23 26 29 32 36 41 31 38 34 32 31 24 21 19 17 11 13 12 12 12 13 18 22 23 23 27 26
29 32 29 25 19 17 16 19 15 13 11 16 19 15 14 19 19 20 23 26 30 32 38 31 33 36 35 35 33 28 28 28 29 23 18 15 16 18 19 22 25 26 26 28
30 34 34 23 21 20 18 16 18 15 16 12 14 15 15 15 15 17 19 23 26 31 36 35 35 34 39 36 38 36 36 36 34 33 30 27 25 22 21 20 22 24 27 29
42 38 36 34 28 23 21 18 17 16 15 17 15 17 17 15 11 15 18 24 27 32 35 39 41 33 34 38 39 43 42 40 41 38 36 36 32 30 27 25 25 26 26 28
45 38 35 31 25 24 23 19 18 17 17 16 17 16 18 16 14 15 20 25 28 33 37 38 40 33 29 32 34 42 47 50 49 48 46 40 37 33 33 34 32 30 30 30
46 46 39 35 34 30 26 23 20 19 18 17 18 19 21 18 17 16 18 22 25 28 29 32 37 34 30 31 34 34 39 42 43 43 45 44 44 42 42 41 39 38 36 34
48 46 46 41 39 40 34 31 24 22 20 19 18 20 23 23 18 16 16 17 20 22 25 27 32 31 33 31 35 34 34 34 34 34 34 38 47 47 43 42 41 43 40 35
53 47 51 47 43 44 40 30 28 28 23 21 21 22 25 25 22 19 17 15 15 18 20 24 28 28 31 33 33 36 33 31 34 35 37 38 39 45 47 45 42 40 38 41
57 57 55 49 47 51 34 33 31 29 29 26 26 26 25 24 22 20 17 15 14 12 15 21 26 28 30 31 33 34 36 32 33 33 34 37 37 40 45 45 40 42 41 40
56 57 54 50 44 40 38 37 37 34 30 28 27 25 24 23 22 20 17 16 14 13 12 12 14 21 27 28 28 28 33 35 32 30 31 35 37 37 40 44 44 45 41 43
56 56 56 52 50 50 43 42 37 38 37 31 29 27 27 26 27 29 31 27 24 18 18 16 14 14 15 18 20 22 25 30 32 29 29 33 38 35 37 43 44 47 47 42
54 59 59 56 55 49 49 52 46 47 65 54 39 39 42 42 43 42 38 31 27 25 20 18 17 15 14 13 13 14 17 19 26 30 30 32 33 35 39 41 43 44 48 48
55 55 58 56 55 55 48 51 61 65 67 68 61 57 53 53 47 37 33 31 28 26 22 18 20 19 15 14 15 14 12 13 15 18 23 27 29 34 38 39 41 44 49 48
60 62 52 54 52 52 53 52 52 58 60 61 58 52 47 42 40 36 34 33 31 31 30 27 26 24 20 22 20 18 15 14 15 17 21 27 31 34 35 36 38 41 44 43
60 55 57 59 53 54 49 51 48 47 52 52 51 47 48 45 41 39 34 40 38 37 31 28 27 25 25 24 25 26 23 19 18 19 23 26 30 33 34 35 41 40 44 45
58 55 48 46 54 55 51 52 49 43 46 50 53 52 46 40 41 41 37 44 42 39 34 34 34 34 29 27 27 26 25 25 24 24 24 28 30 34 38 38 42 42 45 47
59 56 60 54 48 47 49 52 49 46 43 48 50 46 42 41 40 40 39 39 43 43 42 40 38 37 34 33 30 30 29 28 30 32 32 31 30 32 32 34 37 34 38 41

GFSCGP_prec_cthk_030.txt.gz
RH
25 28 20 17 23 27 35 32 28 35 35 41 35 40 39 50 67 73 58 54 42 46 42 40 42 44 46 44 39 40 36 35 33 35 33 36 34 37 35 36 37 32 30 31
30 23 21 23 24 25 28 30 31 29 31 32 39 31 43 49 57 63 56 75 48 47 46 43 39 40 42 40 37 37 35 34 34 34 32 32 34 34 34 33 33 30 28 36
25 20 23 25 25 21 26 28 26 30 28 32 39 39 39 41 47 47 54 41 55 42 45 44 38 33 35 36 35 33 33 33 34 32 33 34 34 34 31 28 28 28 30 31
27 24 21 24 22 21 20 22 23 32 29 27 28 32 35 38 43 41 46 55 65 44 45 47 44 37 30 33 33 30 31 30 30 32 32 31 28 26 28 28 30 29 29 28
26 22 19 18 18 16 13 15 19 23 29 28 28 29 29 34 34 38 40 44 52 50 41 44 47 41 38 31 33 28 28 30 29 29 31 29 28 26 29 32 33 31 27 27
27 28 20 16 14 12 12 13 14 14 23 27 27 28 30 32 33 34 38 43 46 48 52 41 49 45 38 35 32 33 28 28 27 25 26 29 25 24 26 27 32 32 29 29
28 29 26 17 18 14 14 14 17 18 16 19 22 28 28 29 34 37 36 37 45 47 55 50 44 42 34 32 28 29 25 23 24 22 22 24 25 24 24 26 28 30 28 26
25 24 23 17 16 15 15 14 15 20 17 16 15 17 17 27 31 38 36 37 41 44 54 51 44 36 34 32 27 22 22 18 19 21 21 20 22 21 19 22 24 25 27 28
26 23 21 20 18 18 18 14 13 14 15 15 14 13 15 18 25 30 30 33 37 39 49 49 44 36 30 31 26 20 19 16 16 17 18 16 18 18 15 18 19 22 23 25
25 30 22 21 21 18 18 17 16 15 19 18 14 15 14 15 18 26 29 30 34 37 43 47 45 36 30 29 27 21 18 14 12 13 14 13 12 12 12 13 17 19 21 21
26 28 26 26 23 20 19 21 19 15 13 17 19 14 14 16 17 22 24 25 33 36 43 46 47 35 32 30 32 22 20 17 14 11 9 10 13 14 14 17 17 20 23 26
29 25 30 31 26 24 20 18 20 17 18 16 17 17 15 16 17 19 22 25 31 35 42 44 44 36 37 30 34 27 23 22 20 20 18 16 15 16 17 18 18 19 22 24
50 32 32 37 31 27 22 20 20 21 16 17 17 17 17 17 22 23 19 29 29 33 36 42 45 38 33 28 32 30 31 29 31 33 32 29 25 23 23 21 20 21 22 25
50 40 38 35 30 28 28 26 23 22 18 18 17 20 21 18 18 19 17 23 25 28 34 38 41 44 38 31 30 32 35 39 41 41 40 37 35 33 31 30 26 25 25 25
53 47 42 38 34 32 26 24 23 19 20 19 19 19 24 21 19 21 22 24 29 30 35 41 44 47 47 36 30 33 39 41 44 44 44 43 44 43 39 39 37 34 30 28
55 49 49 47 39 41 35 27 23 23 20 23 20 19 22 25 19 22 22 25 27 31 35 38 41 48 49 49 33 30 33 38 42 42 39 41 41 44 48 47 43 40 36 35
62 62 59 49 48 45 42 33 28 24 23 23 21 22 23 25 25 22 18 22 25 27 30 32 36 38 38 41 34 30 31 33 39 39 37 37 38 39 42 45 47 44 41 38
65 61 59 52 54 57 43 37 34 28 25 23 23 22 27 29 30 27 22 19 21 24 25 25 26 29 29 33 36 32 33 35 33 36 37 39 39 38 40 40 43 47 46 41
60 59 58 56 58 51 48 42 36 36 31 26 25 24 28 32 34 32 25 21 19 19 19 21 22 23 24 26 33 34 33 32 31 31 33 34 36 38 38 38 37 42 49 48
56 60 58 58 58 56 49 43 39 38 37 43 34 32 30 32 35 42 35 33 28 27 24 22 21 19 19 21 26 28 30 30 34 35 35 35 34 34 35 38 38 37 44 49
54 59 58 58 56 55 57 47 44 44 63 56 46 41 38 40 46 45 39 36 31 26 24 22 19 17 17 18 20 22 23 24 24 27 29 33 35 35 33 38 42 40 43 46
50 55 59 57 57 67 60 57 59 72 67 58 55 51 47 44 45 46 45 38 35 32 29 25 22 19 19 17 15 14 14 17 20 22 24 25 28 34 36 39 41 39 41 44
61 62 58 56 54 59 61 62 67 62 67 65 58 52 50 51 49 50 44 40 42 40 36 34 28 26 25 22 18 15 15 15 14 17 17 19 22 25 33 40 39 37 38 45
67 68 64 65 56 59 62 63 60 63 59 64 57 54 56 56 51 43 42 41 47 53 43 34 32 33 35 29 26 23 20 18 17 17 18 18 20 23 27 35 40 43 44 44
65 67 66 66 58 59 61 58 54 56 56 55 59 59 57 52 49 45 45 45 49 49 45 40 40 41 37 32 29 26 23 23 23 22 22 22 25 29 32 35 37 43 45 46
47 51 53 59 61 63 59 62 56 48 53 52 52 56 57 52 46 42 46 49 43 40 38 43 46 43 38 33 30 29 24 25 27 28 28 29 30 32 33 36 39 41 46 50

GFSCGP_prec_cthk_033.txt.gz
RH
16 19 17 15 20 27 36 39 34 34 38 50 40 38 49 65 61 57 61 72 74 49 40 44 45 44 44 43 38 34 30 31 35 36 32 29 28 30 34 40 37 33 31 35
23 21 16 18 18 22 31 37 36 35 32 45 42 43 55 56 54 54 55 69 70 53 47 40 40 38 39 38 35 34 30 25 27 29 28 25 26 29 30 33 32 30 31 40
24 18 20 23 20 21 24 30 31 33 30 35 38 40 56 56 52 54 56 69 69 57 51 43 41 34 32 34 33 31 31 26 25 26 28 28 29 28 30 30 27 27 30 35
29 25 27 25 25 22 24 23 28 29 36 37 32 42 44 53 52 51 52 59 49 56 50 46 42 43 32 29 30 30 30 28 26 26 27 26 23 23 22 23 24 26 29 33
28 28 28 28 22 24 24 22 24 27 34 36 34 38 35 43 49 52 52 53 50 57 52 51 46 41 36 30 30 30 29 28 27 25 25 25 22 23 23 25 27 28 28 27
31 35 32 27 24 27 26 28 26 25 31 34 30 33 33 33 36 43 49 49 55 54 48 52 45 50 39 33 30 30 29 27 26 24 23 23 22 22 25 29 29 29 27 27
33 31 36 28 28 24 27 27 25 23 27 25 26 30 27 30 29 32 44 50 51 47 47 49 47 40 42 33 30 26 27 26 25 23 21 20 20 22 22 22 26 28 26 25
33 32 32 34 24 22 19 16 18 22 20 20 20 20 21 25 29 34 34 42 49 52 42 40 46 43 40 31 26 23 23 23 22 21 19 18 21 21 22 21 20 23 25 24
33 28 31 32 28 22 20 16 14 17 18 20 15 12 16 18 25 29 35 42 49 48 46 43 43 45 40 32 25 21 19 21 21 20 19 19 18 18 17 16 18 20 21 23
29 39 32 33 38 24 21 21 17 16 22 22 17 14 11 10 15 24 27 37 42 46 43 42 42 46 39 31 24 22 18 19 19 20 18 16 13 13 14 15 15 16 17 22
41 33 27 35 34 27 21 24 20 16 20 24 25 18 13 14 14 20 24 30 35 38 43 39 43 46 46 31 25 23 19 17 18 17 15 13 12 11 14 16 17 19 21 22
55 46 34 31 29 27 25 21 21 19 18 17 18 19 19 18 15 15 23 23 34 37 41 38 39 45 48 31 25 25 19 14 13 14 14 14 13 14 16 18 18 19 18 21
72 51 40 33 33 32 28 23 21 22 20 18 22 23 18 18 15 16 18 23 28 35 41 40 41 45 47 32 24 27 19 17 12 14 16 16 17 19 18 19 19 19 19 18
73 53 50 40 30 29 30 28 24 24 22 16 20 20 23 20 18 18 19 19 21 29 41 43 42 43 44 33 22 28 29 25 23 23 23 22 20 21 22 22 24 23 21 21
71 52 47 40 34 33 35 30 28 23 23 19 17 23 25 23 22 24 23 19 24 28 36 42 39 38 41 42 28 29 33 34 31 29 32 31 29 28 27 27 27 26 26 23
69 61 53 45 37 38 40 31 28 23 21 22 17 20 23 23 23 23 23 22 25 29 34 41 45 42 39 41 39 23 32 36 38 37 36 38 36 39 40 39 35 32 30 28
73 65 59 49 44 46 49 41 31 27 23 21 20 21 29 27 24 22 23 22 26 27 33 41 46 48 44 46 44 41 28 32 37 38 42 40 40 41 39 40 42 41 38 36
77 67 61 59 53 60 43 42 39 29 26 23 20 25 27 30 31 29 25 24 26 27 28 32 36 39 43 47 49 48 36 31 31 35 39 42 41 41 39 40 41 43 45 45
70 64 64 68 64 49 47 49 45 33 43 41 33 28 31 36 36 38 31 28 27 29 29 28 30 33 37 40 44 50 49 36 30 33 36 37 37 39 38 38 38 41 42 44
64 62 64 70 71 64 62 54 46 44 59 49 43 41 37 40 47 47 37 29 27 29 29 27 27 28 31 33 32 32 37 42 37 32 32 34 37 41 39 37 37 38 41 43
64 66 65 67 70 79 68 59 51 56 77 59 51 52 53 50 55 48 43 35 31 27 27 27 28 28 30 31 32 32 32 30 32 36 37 37 36 37 38 39 38 39 40 43
65 69 68 66 71 90 75 68 69 72 68 63 58 63 56 55 54 52 49 45 39 32 30 25 20 21 24 23 25 26 25 24 26 30 34 34 33 33 34 36 39 41 42 41
84 84 87 77 83 75 83 77 69 68 69 64 60 61 58 54 51 52 53 51 47 40 34 31 26 24 25 23 20 18 17 20 21 21 21 26 30 29 30 31 33 37 42 46
76 72 77 75 75 75 76 79 74 63 67 67 60 56 55 54 52 51 53 55 51 44 39 35 32 36 36 31 27 21 18 16 16 17 16 16 18 21 23 23 25 29 34 43
60 66 67 67 74 70 72 77 77 65 66 66 62 53 52 55 51 51 48 49 47 42 38 37 37 42 39 37 37 30 24 22 20 20 20 20 19 19 21 24 27 30 35 40
60 70 72 69 67 74 68 66 68 67 64 63 59 55 52 52 52 50 47 45 42 40 33 27 29 40 40 37 35 33 30 29 29 28 27 26 25 25 26 26 31 34 38 46

GFSCGP_prec_cthk_039.txt.gz
RH
23 20 15 9 13 25 32 39 46 49 58 58 59 56 59 57 61 65 63 62 62 54 45 38 38 39 39 40 34 30 33 34 37 38 38 38 38 42 42 40 39 42 48 47
29 23 15 14 12 20 30 34 41 43 54 50 50 52 55 58 51 56 56 59 63 63 58 38 35 34 36 38 31 30 33 36 37 40 39 39 38 40 41 38 37 38 46 44
31 26 23 19 15 16 23 32 36 38 54 50 54 54 48 59 62 67 61 63 65 63 57 44 31 30 34 35 31 29 30 33 36 37 38 39 38 36 36 33 34 37 44 41
32 28 32 25 20 15 19 21 32 39 52 54 51 64 64 61 61 63 62 62 63 64 62 55 34 28 29 30 34 32 32 32 37 38 37 35 32 28 27 28 32 33 39 37
27 28 32 34 22 18 17 18 27 36 47 54 49 48 59 59 66 62 59 59 59 59 61 58 41 26 24 31 31 32 34 36 39 40 35 34 30 25 24 25 27 32 33 34
27 24 32 28 33 25 20 21 23 33 44 50 44 49 44 54 52 56 54 54 52 55 59 60 52 34 27 28 30 32 31 32 37 35 34 31 29 24 21 21 21 26 28 28
37 27 28 36 38 39 28 28 36 38 53 40 31 46 33 36 36 44 46 49 45 50 55 58 52 40 31 28 28 31 30 30 32 34 33 32 28 26 22 20 19 23 26 26
62 40 30 28 39 43 36 35 42 45 42 39 31 37 32 27 29 34 38 43 47 50 52 54 51 43 33 30 26 28 29 29 29 30 31 31 29 26 23 21 21 22 25 27
74 52 38 34 36 44 46 39 35 33 26 31 30 27 26 26 27 31 37 41 47 48 52 55 54 42 38 32 28 26 25 27 26 26 30 30 28 26 22 22 23 24 26 27
76 70 42 31 41 46 47 45 44 40 38 32 28 25 27 24 24 26 31 32 38 46 49 55 55 50 44 34 31 28 27 26 25 25 27 28 26 25 23 24 23 22 23 25
81 75 53 42 42 39 47 49 42 41 35 32 24 19 18 20 22 24 25 25 29 38 45 50 52 48 48 44 34 33 30 30 31 27 24 25 24 24 24 22 20 20 20 21
86 83 76 53 38 42 48 50 48 42 37 31 29 18 12 14 19 25 25 24 24 28 35 43 48 47 48 45 34 33 28 27 30 27 23 22 23 24 23 19 18 17 19 21
94 88 77 48 42 40 49 49 40 38 35 31 31 19 14 12 13 24 28 27 26 24 29 38 47 47 47 50 38 33 26 24 26 26 23 22 23 21 20 17 16 17 20 22
96 92 79 67 58 60 57 51 43 39 37 29 22 17 16 15 14 17 26 27 23 22 26 36 40 41 46 50 42 35 25 23 22 24 23 21 20 19 18 17 19 21 21 22
98 92 74 65 63 59 53 52 47 41 32 26 18 18 16 17 18 20 23 21 15 17 25 34 36 38 43 48 51 35 26 25 24 21 20 17 15 16 17 20 21 22 21 19
96 96 71 58 53 55 53 53 50 44 34 30 22 20 20 23 24 27 24 20 16 17 22 33 34 34 37 44 49 36 29 21 19 17 16 14 14 16 19 22 23 22 21 20
97 94 75 66 56 58 62 60 57 48 48 38 24 23 26 28 30 31 31 22 17 18 25 31 32 35 35 40 48 41 30 25 23 22 22 20 19 20 21 24 26 26 26 24
88 94 75 76 61 68 67 67 60 57 51 44 40 35 34 32 35 34 37 29 22 21 25 32 36 37 35 40 47 49 40 30 29 33 32 31 31 31 33 33 32 32 31 31
83 94 81 79 69 69 71 69 69 63 59 49 46 42 43 36 34 38 44 38 31 29 31 30 32 34 38 40 50 49 42 37 30 35 39 41 40 40 40 43 44 43 42 41
93 95 94 76 88 88 82 75 63 60 65 55 51 49 50 42 50 53 49 46 36 30 28 29 33 33 37 41 51 50 46 43 39 31 41 43 51 51 50 48 47 47 45 45
98 97 93 86 95 88 85 78 69 71 71 59 59 59 53 54 58 59 56 53 46 36 30 31 36 39 40 42 49 52 52 50 48 43 41 48 52 51 49 49 48 44 42 42
97 98 99 99 94 98 88 80 79 75 69 68 60 60 60 60 60 62 58 55 51 43 37 36 38 39 44 47 50 49 48 47 50 55 42 45 42 48 49 51 47 42 40 41
96 97 99 99 95 91 92 89 82 77 69 69 66 61 60 65 63 63 62 59 58 54 47 43 41 40 39 41 47 50 48 47 47 49 49 41 40 36 48 49 48 49 46 42
93 94 97 89 84 93 89 83 86 82 73 67 69 63 62 67 65 66 63 59 60 60 55 52 48 46 46 47 44 43 45 46 47 47 50 50 48 43 43 48 50 48 46 46
90 91 95 86 84 87 90 85 87 84 74 64 63 65 67 70 70 64 64 60 57 58 60 57 56 54 50 46 41 38 37 37 36 36 37 37 39 39 39 39 40 42 45 45
82 83 86 90 79 88 84 89 90 90 80 70 65 63 65 65 68 66 63 62 58 54 54 55 55 51 48 47 41 34 31 30 30 25 25 26 27 28 28 26 26 29 32 36

GFSCGP_prec_cthk_042.txt.gz
RH
27 26 19 12 14 19 33 41 47 57 57 58 59 62 65 62 66 65 65 60 56 52 44 41 44 43 42 34 28 25 24 26 29 30 33 37 39 41 45 46 42 46 48 51
29 27 23 18 15 15 23 33 40 47 56 57 59 60 65 59 57 60 61 62 62 57 59 42 40 43 42 38 30 27 26 24 28 30 31 35 37 39 45 43 41 44 44 48
30 24 26 26 20 16 16 27 33 42 54 63 58 60 64 60 57 61 64 68 65 59 62 54 36 38 43 40 33 27 30 24 32 33 36 38 39 40 41 40 38 45 42 42
35 28 29 31 27 21 18 14 27 37 51 61 62 58 60 56 56 54 58 61 65 60 62 54 37 34 37 38 36 31 30 28 33 37 40 40 41 40 36 35 35 41 42 40
34 30 33 33 29 26 19 14 16 32 45 54 55 61 46 52 56 52 51 58 61 61 62 59 44 28 31 37 34 31 29 31 33 35 38 38 40 38 33 31 33 34 38 37
32 31 32 33 33 35 29 24 18 23 43 52 48 56 48 54 43 45 52 57 59 62 61 61 53 37 30 34 35 31 28 28 33 33 34 36 35 33 30 28 29 29 30 31
36 35 32 34 35 39 38 31 42 38 44 41 38 51 43 35 38 42 46 50 52 59 61 64 58 44 33 31 32 33 31 30 33 35 35 33 33 31 29 27 25 24 24 23
47 33 33 36 34 39 41 37 39 46 41 31 35 45 40 32 31 40 44 45 51 59 60 62 62 49 38 29 28 30 30 28 29 34 34 30 30 30 28 27 25 21 20 22
49 44 33 43 38 39 45 46 34 34 30 31 24 31 34 33 32 36 40 43 43 49 56 57 61 50 42 38 29 24 27 27 25 25 28 29 29 30 27 26 25 23 22 23
52 55 34 39 48 40 42 47 51 43 42 37 30 22 27 26 29 30 37 39 37 42 47 56 60 54 44 38 36 32 27 27 24 25 26 26 27 27 26 27 27 25 26 26
45 59 41 44 53 42 42 52 50 40 38 37 34 25 17 19 22 23 26 35 34 37 40 48 54 57 51 46 39 35 31 27 28 27 27 27 26 25 26 25 27 27 27 26
50 69 70 47 44 50 53 48 55 54 43 38 38 28 15 17 19 21 26 32 32 32 36 42 48 53 56 46 40 33 33 28 28 26 28 28 26 26 25 25 26 28 25 23
59 71 79 51 43 52 54 49 50 51 52 41 40 34 18 17 16 17 24 29 30 30 33 36 45 48 51 50 44 35 32 28 28 31 29 28 27 24 24 25 25 24 23 19
75 82 84 67 53 67 62 58 51 55 56 47 39 31 23 21 16 14 18 25 29 30 31 33 37 46 41 45 49 42 35 30 28 29 31 27 25 24 25 24 23 22 22 21
85 88 94 74 70 76 67 61 58 56 50 48 37 26 24 25 21 17 16 18 25 24 26 29 34 38 46 43 45 46 38 29 24 25 27 25 25 26 24 23 21 20 22 21
92 85 97 81 68 69 63 55 57 54 50 45 34 26 30 24 23 25 24 25 26 24 23 25 29 34 41 42 42 45 37 26 23 22 20 22 24 24 21 20 18 19 22 23
90 93 98 83 69 70 70 59 64 63 61 54 35 30 34 32 38 35 30 27 26 23 19 19 27 34 37 39 40 41 36 29 24 23 25 22 20 19 17 16 17 20 22 21
94 97 98 93 83 81 75 67 65 64 63 61 49 42 42 38 41 41 38 32 28 24 18 18 22 30 38 41 41 40 41 29 25 24 19 17 16 15 15 17 20 23 23 22
90 97 96 96 86 82 80 79 78 76 70 62 51 50 50 48 42 44 43 36 36 30 20 21 25 31 36 36 40 41 43 31 26 28 24 22 21 20 22 22 24 26 28 28
96 98 98 97 97 96 91 82 77 71 80 66 54 50 54 48 50 49 47 45 37 30 25 27 29 32 37 40 42 44 45 35 28 29 31 32 33 34 33 36 40 42 42 41
95 97 96 98 97 97 90 83 74 75 81 70 60 53 57 54 54 55 52 48 42 36 27 31 34 38 42 42 46 47 49 38 35 40 36 41 45 44 44 48 50 51 52 51
99 98 98 96 97 97 90 80 82 81 79 72 61 56 57 60 62 60 56 53 50 43 42 41 39 36 39 44 46 51 53 46 48 46 40 43 49 51 50 52 57 57 55 52
97 97 98 97 98 95 95 90 85 83 78 75 71 62 60 65 66 63 62 60 60 56 51 47 41 39 43 44 47 52 52 50 50 51 54 44 44 51 52 54 53 51 51 47
97 97 97 94 91 95 91 95 89 83 79 75 73 67 66 68 65 62 60 64 64 63 60 55 49 46 52 52 52 52 56 56 57 57 56 57 51 44 48 52 51 52 54 51
97 97 98 96 89 89 91 88 89 83 79 72 70 67 64 63 63 61 57 57 61 63 64 61 56 51 53 61 64 62 60 59 60 59 59 56 59 55 57 50 47 49 52 53
93 96 97 98 96 95 93 87 85 85 81 75 73 66 66 63 62 63 58 54 54 59 62 63 60 57 55 54 54 54 55 56 56 55 52 52 53 53 51 48 49 46 46 48

GFSCGP_prec_cthk_045.txt.gz
RH
21 20 21 19 16 14 27 40 40 52 57 61 59 57 58 62 60 58 58 56 47 40 42 47 47 44 39 33 28 28 28 29 29 29 32 37 39 42 46 49 48 51 52 52
21 20 20 23 19 16 14 33 40 51 54 58 59 55 60 60 59 58 57 59 56 47 48 43 46 45 42 35 30 27 26 27 30 30 32 35 35 38 44 47 50 47 48 48
24 21 21 24 25 19 14 17 33 47 51 55 56 56 55 62 60 59 60 62 62 58 54 49 39 44 44 40 32 29 24 25 27 30 31 33 34 36 42 44 46 45 46 47
27 26 26 26 26 25 19 12 18 39 50 54 56 52 55 57 58 55 57 58 61 63 55 49 38 38 42 40 35 32 27 25 27 27 28 29 31 35 37 38 44 41 43 45
30 25 29 31 27 31 25 19 13 18 43 50 49 51 46 57 59 54 51 53 59 62 61 53 45 32 39 41 37 35 33 28 30 27 28 32 34 36 36 35 41 40 38 41
27 28 29 31 30 32 34 28 22 17 19 40 43 50 37 46 54 52 49 50 57 60 62 60 49 38 33 40 41 38 34 30 32 30 32 35 36 37 36 34 33 37 34 35
21 20 27 33 32 33 37 40 36 30 26 19 25 44 37 37 43 45 45 46 53 58 59 59 54 45 30 31 36 36 35 34 33 31 34 36 36 36 34 31 29 30 31 28
21 11 23 30 35 36 36 41 38 36 26 15 15 35 32 33 33 39 43 45 55 58 58 58 56 50 38 26 28 30 31 30 30 30 31 33 34 34 31 29 28 28 27 25
29 24 20 27 33 43 36 41 38 37 33 26 16 16 25 29 35 39 41 48 52 53 53 53 56 52 46 34 23 26 28 27 27 28 30 32 32 32 28 27 27 28 26 25
33 18 20 22 25 33 38 34 53 48 40 33 26 20 16 18 25 30 38 45 50 49 51 51 52 51 47 42 33 26 28 28 29 31 33 34 32 29 27 27 25 26 26 26
35 29 18 18 21 25 35 49 49 48 42 33 31 25 16 12 14 24 34 43 46 43 46 45 47 45 39 43 42 36 30 28 29 31 33 33 30 28 28 27 25 24 26 26
42 45 37 22 15 21 34 49 46 54 50 43 39 29 19 15 11 14 25 38 41 42 41 43 44 48 46 41 40 37 35 31 27 28 29 29 29 28 27 26 26 26 25 27
49 50 35 18 15 16 30 34 50 45 46 50 47 36 23 19 16 15 18 27 36 38 40 41 46 49 48 46 43 38 36 33 30 28 29 29 29 27 26 25 25 26 27 27
48 46 38 31 25 45 47 46 49 53 51 50 51 41 27 21 18 16 17 23 31 36 39 40 42 45 50 48 43 41 37 38 34 29 28 27 27 26 26 25 24 25 26 26
58 49 46 45 42 46 51 50 51 60 50 51 49 49 34 24 21 19 18 19 28 32 35 36 37 39 42 50 48 44 42 41 35 29 28 27 27 27 28 26 23 25 25 23
61 55 61 53 42 45 58 50 52 57 48 44 48 49 40 35 26 23 22 23 28 34 35 35 36 36 36 41 43 45 42 42 37 32 26 29 31 27 25 25 25 25 23 20
67 73 76 58 61 72 67 48 50 54 49 43 43 43 43 38 38 34 30 27 27 32 37 36 34 34 33 34 37 43 43 41 34 29 27 24 27 25 24 24 23 21 20 20
75 79 81 69 82 94 51 58 49 65 63 52 49 48 50 44 44 39 38 33 29 30 32 34 32 33 34 33 40 45 48 40 35 25 25 22 22 23 23 21 20 18 18 19
76 90 92 95 95 90 77 80 66 65 65 57 55 53 53 52 50 46 45 42 36 32 31 30 29 28 33 36 39 44 44 42 37 25 26 25 23 20 19 19 17 15 17 21
78 88 96 97 96 98 89 90 78 71 72 63 60 59 57 53 53 52 49 44 40 37 34 24 19 21 32 35 39 45 46 41 35 23 25 22 18 18 15 15 15 16 20 22
94 95 96 93 94 94 91 91 84 82 78 71 67 65 67 64 61 58 54 48 45 39 34 26 26 23 26 35 40 44 46 43 35 27 32 30 24 19 19 18 20 23 25 28
96 96 97 96 96 96 96 92 87 82 83 78 75 75 73 68 67 64 59 56 49 50 42 36 31 31 30 36 39 42 44 50 40 30 38 40 36 33 33 33 35 38 42 44
98 98 98 98 98 97 98 92 89 89 88 81 78 77 71 66 62 62 60 59 58 57 50 49 45 41 41 44 46 45 49 51 43 39 37 37 39 41 43 43 43 45 48 50
98 97 98 97 97 98 97 95 93 92 92 80 80 79 72 65 65 58 59 58 61 65 58 59 53 52 50 51 56 53 52 61 49 45 46 40 38 41 47 48 51 51 51 55
98 97 97 94 97 97 95 94 93 90 88 81 79 77 73 67 63 59 58 54 57 64 67 64 63 61 60 58 58 62 58 62 52 55 52 48 53 46 46 54 54 54 53 57
98 98 96 95 92 98 96 95 91 89 88 88 85 77 73 68 64 56 59 56 55 59 64 65 65 62 61 60 64 64 65 60 59 61 62 61 62 62 57 53 54 56 57 58

GFSCGP_prec_cthk_048.txt.gz
RH
19 20 17 19 20 14 15 22 29 42 54 68 64 62 57 59 54 48 45 43 46 46 47 50 47 45 42 39 32 31 35 39 42 39 47 50 50 50 51 53 52 52 53 48
21 18 18 20 20 21 14 22 31 40 49 58 64 61 60 60 59 57 56 53 46 45 45 46 46 44 42 38 33 30 33 35 35 36 37 45 48 48 50 51 47 46 50 48
19 19 19 18 20 22 18 13 22 41 47 50 60 60 61 57 62 58 58 54 53 42 42 43 45 45 40 39 34 30 29 29 29 33 34 36 39 44 43 47 50 45 45 47
18 19 20 20 21 20 21 15 14 25 41 47 49 53 55 56 59 60 59 57 52 51 49 44 40 44 43 39 37 32 28 26 28 28 32 34 37 38 42 48 52 45 42 44
26 22 25 23 23 21 22 22 14 15 26 44 51 53 54 52 55 59 58 57 53 54 56 50 39 38 44 43 40 35 32 25 27 26 30 33 34 36 40 46 48 43 37 38
23 27 25 27 26 25 26 28 24 16 17 26 35 47 44 51 51 54 56 56 55 55 57 56 51 41 41 45 43 38 33 26 24 24 25 29 31 34 39 39 43 42 39 37
17 18 23 27 31 31 26 28 33 29 19 13 19 31 38 44 50 52 53 50 52 57 60 61 58 44 35 39 41 40 34 28 26 24 23 25 28 31 37 37 39 41 37 36
16 15 19 26 27 35 29 27 32 36 23 14 12 18 22 34 37 46 55 51 55 59 57 61 59 51 40 32 38 38 35 33 30 27 25 26 28 34 37 36 37 36 37 33
21 17 24 22 23 29 32 32 24 34 34 24 18 13 13 21 28 35 47 50 50 51 56 58 58 56 50 39 28 30 31 32 33 31 27 28 28 33 38 36 32 32 33 31
27 16 16 18 18 20 28 29 40 37 43 35 30 23 18 17 24 28 41 48 50 48 55 57 59 55 54 48 37 29 31 30 32 34 31 30 27 29 33 35 31 30 30 26
28 23 19 14 11 14 22 30 48 44 37 35 35 26 24 19 16 21 29 37 40 45 54 54 55 54 55 50 48 34 26 29 31 30 29 28 27 28 30 32 28 27 27 25
40 36 32 20 13 13 23 35 36 47 44 36 39 36 31 27 20 15 23 30 35 42 50 53 53 54 56 50 45 43 35 27 26 25 25 24 24 27 32 29 28 27 25 24
49 41 35 19 15 14 15 18 28 39 45 47 44 40 37 33 24 18 16 22 33 39 48 52 52 53 53 47 40 38 39 34 30 27 27 28 29 29 28 26 27 27 25 24
49 41 40 30 24 38 38 27 28 39 45 42 43 50 47 35 26 21 18 21 24 36 46 48 51 50 52 51 48 41 36 38 38 31 28 28 27 28 26 25 26 26 25 25
66 61 47 39 35 30 28 26 28 39 40 43 43 49 46 42 32 27 24 21 26 35 42 45 44 46 45 51 54 48 43 40 40 37 33 25 22 23 25 26 25 24 24 23
74 68 58 49 42 35 28 22 21 25 32 35 38 42 43 41 38 26 25 26 30 34 40 38 40 42 43 51 53 54 47 40 38 37 33 32 24 24 24 24 23 24 23 23
78 71 67 53 38 33 34 29 24 18 26 31 33 32 45 42 44 36 33 28 30 34 39 40 40 39 41 44 49 49 49 46 42 38 37 34 29 26 23 23 24 24 23 22
74 81 78 58 46 63 31 27 28 22 20 26 31 30 48 47 46 53 41 35 31 32 35 40 42 41 36 40 44 52 53 54 48 47 38 33 30 30 30 28 25 24 23 23
81 85 81 81 59 45 35 33 37 24 22 27 31 31 35 41 50 56 50 39 33 29 29 38 38 37 38 37 42 47 51 51 54 48 39 31 27 31 29 29 26 24 23 22
83 83 87 70 73 69 52 62 71 65 51 51 45 44 45 44 54 59 56 43 35 33 31 31 34 35 36 36 39 41 46 49 51 49 39 29 24 24 22 25 26 23 21 19
73 85 88 76 80 73 72 84 96 96 65 61 55 53 52 52 60 66 60 49 41 36 31 30 31 33 33 36 35 39 43 42 50 52 51 36 28 27 25 22 19 20 20 19
86 87 84 90 93 91 87 97 95 95 79 80 72 60 57 56 60 62 60 56 48 43 35 32 31 29 32 33 35 39 40 44 51 51 48 31 31 29 28 26 24 21 18 15
98 93 98 97 94 92 98 93 98 96 92 90 81 61 60 56 66 66 61 57 53 49 45 42 37 33 30 35 41 44 44 49 55 56 47 36 33 30 23 18 19 19 17 22
98 98 98 98 97 98 97 97 97 99 96 91 83 70 65 66 71 70 69 64 56 59 56 55 51 46 43 39 40 49 48 51 56 59 49 44 46 42 38 33 31 31 30 32
98 98 98 98 98 97 98 98 98 99 97 90 85 75 73 73 75 69 66 64 65 64 69 66 64 61 57 53 47 51 54 48 57 58 52 44 48 50 51 53 49 47 49 50
98 98 98 98 97 98 96 98 97 98 96 92 86 80 78 76 74 69 69 66 64 68 72 71 68 62 60 57 54 55 53 54 55 59 59 48 54 55 59 63 68 71 66 63

GFSCGP_prec_cthk_051.txt.gz
RH
22 22 19 21 24 19 17 15 21 30 41 52 58 67 93 54 57 52 46 48 48 50 49 51 48 47 45 40 40 36 44 48 50 54 53 56 56 60 63 67 65 56 55 54
19 17 19 20 20 21 18 16 21 27 40 51 59 63 62 62 51 55 46 42 46 49 47 50 49 47 44 39 37 33 40 46 43 46 52 57 58 58 60 60 54 55 53 50
22 18 18 19 20 19 20 17 19 28 36 44 53 60 57 72 53 55 54 48 48 46 44 46 47 45 41 39 40 31 32 37 40 39 45 50 52 57 52 60 54 55 54 52
20 20 20 19 18 19 20 20 16 22 35 40 46 56 56 58 67 54 56 56 51 44 44 44 46 44 40 39 40 35 26 29 33 34 38 42 48 48 48 52 54 53 50 50
26 20 19 20 18 19 20 22 18 14 18 27 42 50 56 53 60 61 57 56 54 47 41 37 39 42 43 41 39 39 29 27 29 29 34 37 39 45 46 50 55 53 45 47
25 35 25 22 22 20 21 22 22 18 16 18 23 43 43 58 54 64 55 60 56 51 50 47 42 41 43 45 43 40 33 25 25 26 27 33 34 41 43 45 53 46 48 42
14 19 29 27 27 29 23 24 28 28 23 16 13 28 35 40 46 56 54 55 57 53 54 54 55 47 40 42 43 40 35 28 21 23 23 28 31 32 37 44 44 44 48 47
17 16 16 21 22 29 29 25 25 30 26 15 12 15 21 37 44 51 69 54 56 53 54 55 55 55 53 39 37 38 36 32 27 21 20 23 26 30 30 36 46 45 46 45
17 21 23 24 26 24 34 36 22 28 28 24 18 14 12 20 34 43 55 54 69 55 53 53 57 57 57 52 33 33 35 33 29 28 23 20 21 24 32 33 35 47 43 45
23 23 21 23 22 18 27 32 38 32 36 35 28 22 17 15 18 30 41 45 49 67 52 56 57 57 59 55 47 33 35 33 31 30 28 24 21 22 26 30 36 37 41 35
21 23 19 18 18 13 13 16 35 44 34 32 34 26 23 20 19 18 25 39 42 50 57 58 57 57 59 61 57 44 32 34 33 31 31 28 25 28 25 29 30 32 31 34
30 26 23 20 16 11 13 26 19 36 43 37 29 28 27 26 25 22 25 31 38 46 58 56 55 55 63 61 61 52 41 33 28 28 30 29 27 28 28 25 28 28 27 28
42 37 31 28 24 17 13 14 23 32 34 41 37 31 32 34 31 31 24 23 35 42 50 59 58 56 59 58 59 59 51 36 33 29 30 31 30 27 26 23 24 26 24 22
52 48 40 32 36 32 27 19 19 30 39 38 42 39 34 41 42 42 32 25 27 42 48 54 57 54 57 58 56 57 52 44 38 34 30 32 28 25 23 23 21 23 21 20
63 56 50 42 41 41 31 30 25 24 29 39 38 46 43 44 51 44 39 34 27 32 46 52 55 58 57 56 53 55 54 45 40 34 33 29 23 24 23 23 23 22 22 20
67 70 71 65 52 41 35 32 27 21 18 28 41 47 48 52 55 52 44 46 35 33 40 46 52 58 57 57 52 55 55 54 43 34 33 31 26 24 24 23 23 22 23 21
76 71 75 69 59 51 49 37 31 26 20 17 19 25 42 49 50 55 47 44 39 38 36 47 42 49 52 53 51 49 52 56 52 39 36 36 33 30 23 21 22 21 22 23
75 83 87 76 65 68 48 38 31 27 24 23 18 17 17 41 49 56 60 62 60 52 46 47 49 48 48 49 49 49 57 57 57 48 43 40 37 31 28 25 21 21 21 22
65 70 86 84 72 57 50 45 36 52 40 38 32 26 16 14 40 52 56 67 58 48 42 37 38 45 49 46 45 45 51 56 58 53 48 44 41 37 32 29 25 21 21 21
73 73 93 78 72 70 45 48 68 58 49 34 29 26 19 12 29 39 56 66 56 46 40 36 38 44 44 44 45 43 48 50 54 54 48 49 46 41 33 27 29 28 26 23
85 91 89 74 73 64 50 65 66 75 46 41 50 33 19 16 17 35 51 57 60 51 41 34 31 35 38 42 44 40 44 41 42 50 55 57 51 45 35 29 32 32 30 32
86 86 89 85 91 90 74 68 71 54 52 60 65 38 34 37 51 46 48 51 62 56 44 36 31 31 32 35 44 41 40 40 46 49 56 57 56 53 45 31 33 33 34 34
97 94 97 94 84 85 92 94 94 85 92 81 84 65 56 56 44 45 44 51 61 58 51 41 40 35 29 32 40 42 37 44 44 45 49 56 58 55 45 37 34 36 32 30
97 97 98 97 91 95 95 97 97 97 98 93 86 69 60 53 44 49 49 56 67 64 56 48 47 46 36 34 37 40 44 45 44 44 49 57 59 54 46 42 39 38 33 31
98 98 98 98 97 98 98 98 98 98 98 98 97 85 69 55 52 55 56 58 67 67 59 57 55 50 46 40 42 50 52 50 47 45 47 59 65 55 50 45 40 32 35 33
97 98 98 98 98 98 98 98 98 98 91 96 96 94 80 70 69 65 70 66 78 72 69 60 55 55 54 51 48 46 52 56 52 51 51 58 62 62 55 44 40 35 29 30

GFSCGP_prec_cthk_054.txt.gz
RH
24 27 25 22 20 23 19 18 16 21 31 52 52 71 70 68 71 72 53 53 50 48 49 51 45 42 43 38 35 36 44 46 45 45 45 50 50 61 59 66 69 51 56 64
21 24 22 18 23 24 23 20 16 18 26 41 58 65 68 61 64 60 46 50 49 51 46 47 43 42 42 37 34 31 41 45 45 46 44 50 52 50 56 75 60 47 50 51
20 18 17 20 19 20 19 19 18 22 26 35 41 74 71 68 66 90 53 49 48 44 45 42 41 42 41 37 33 29 35 46 43 44 45 50 56 53 58 56 48 46 47 44
25 22 24 18 19 19 19 19 19 17 28 33 38 47 64 68 77 91 87 61 47 45 45 43 39 40 38 35 33 29 28 40 41 39 42 44 49 52 45 53 64 45 45 47
23 23 24 24 20 18 20 21 22 19 18 29 39 40 40 67 67 64 91 69 58 47 42 39 34 36 36 35 33 29 26 31 36 36 34 37 42 44 48 44 54 48 46 43
20 29 22 21 22 21 21 20 22 22 19 18 19 27 32 49 64 62 66 79 75 56 46 36 36 36 38 37 35 30 26 25 28 29 30 32 33 37 45 43 52 48 45 41
20 24 32 31 21 22 22 23 24 25 23 16 12 14 15 34 50 57 61 65 65 59 51 41 39 38 36 36 34 31 27 23 22 25 26 27 28 33 38 44 47 47 39 40
19 14 17 26 27 27 25 25 25 27 23 19 14 13 11 14 40 55 53 55 71 63 52 47 44 40 38 34 33 33 30 25 21 21 24 26 26 28 32 38 39 45 42 42
20 21 22 17 22 24 28 35 23 25 26 24 22 16 12 12 27 47 63 57 72 74 73 52 50 48 47 46 38 30 32 30 26 20 18 22 24 24 29 30 35 38 37 42
19 24 24 28 26 25 26 29 40 32 35 34 27 25 21 16 14 28 43 46 47 65 85 74 58 59 53 49 48 42 31 31 30 27 20 16 20 21 24 26 26 35 36 40
18 19 19 30 27 27 25 24 37 42 40 29 33 28 24 23 19 19 28 36 36 49 78 64 63 70 61 59 53 48 41 30 33 33 28 23 18 18 19 23 23 25 34 36
27 19 18 24 24 26 22 20 20 33 46 38 35 27 24 26 23 21 20 23 38 47 50 65 68 65 60 56 55 53 53 39 27 30 32 27 25 20 18 19 22 24 26 30
40 30 28 19 20 22 20 13 14 19 17 34 38 34 25 28 30 28 25 24 25 44 56 62 58 73 59 50 51 52 55 50 40 30 33 32 28 26 22 20 20 23 22 23
46 43 42 36 29 39 33 25 17 18 28 26 26 38 29 32 41 41 35 33 30 40 52 51 56 63 75 52 49 50 54 57 54 39 31 32 28 26 25 25 22 22 21 20
57 53 49 42 40 48 37 31 25 20 17 29 27 32 33 45 46 47 45 41 38 33 35 39 49 51 89 50 46 48 53 57 57 47 35 27 27 26 27 27 25 21 20 19
61 59 58 57 53 49 42 35 29 25 17 17 22 30 32 41 43 50 48 47 44 38 42 47 44 54 66 52 40 41 48 54 54 48 36 32 30 28 28 27 27 24 20 19
77 67 67 60 56 58 54 45 36 29 24 21 20 18 35 41 43 50 51 52 50 43 46 48 48 53 51 69 52 40 42 51 55 52 46 34 33 31 26 26 27 27 24 21
65 67 83 79 73 86 51 47 46 38 29 26 22 15 18 35 37 41 50 52 54 52 56 47 45 51 60 82 67 59 51 53 53 53 51 38 35 34 34 28 25 25 26 23
59 62 87 85 84 69 57 51 49 54 44 35 35 30 17 21 37 41 50 52 57 63 64 56 47 46 45 55 49 64 55 53 53 52 50 42 33 35 35 31 27 24 24 22
74 69 76 71 79 71 47 50 60 60 53 41 36 32 24 19 27 34 49 55 57 71 84 66 52 46 47 45 50 49 53 50 50 47 50 52 48 43 40 37 33 29 26 20
89 87 91 86 80 59 52 50 66 73 51 52 51 45 38 32 26 25 34 52 61 77 76 71 54 40 35 35 40 49 49 56 45 44 54 58 55 51 48 49 43 36 34 32
94 99 93 89 90 85 77 66 69 63 55 50 49 45 41 30 23 20 22 38 63 65 70 64 56 42 34 34 37 34 42 46 49 49 50 54 56 56 57 54 52 42 37 36
98 98 98 98 92 82 78 76 70 70 59 45 47 40 42 37 34 34 48 42 45 54 62 57 55 44 45 39 44 39 36 39 49 49 47 46 54 56 59 59 57 52 40 40
90 96 96 95 84 84 84 83 84 84 80 70 59 50 49 59 63 65 38 40 37 42 56 50 49 46 38 36 42 41 44 41 46 51 46 46 48 53 56 62 60 55 46 38
97 96 97 96 96 96 96 97 97 96 93 96 83 65 71 93 82 70 48 41 41 40 41 40 50 50 44 38 39 41 38 46 44 47 49 48 48 49 55 60 65 56 49 41
95 96 97 97 98 98 98 98 98 98 98 96 93 81 82 84 83 64 57 56 54 47 42 41 54 53 50 46 45 43 38 37 41 43 50 50 48 48 50 61 64 59 49 39

GFSCGP_prec_cthk_057.txt.gz
RH
28 32 29 24 24 22 23 23 24 19 29 40 51 76 76 74 70 70 73 68 57 56 59 54 58 49 39 38 37 36 35 40 39 35 41 49 47 53 55 54 60 47 55 67
26 28 26 24 24 23 23 22 20 20 21 29 49 68 77 70 68 74 73 67 49 60 63 61 53 48 38 36 37 32 34 41 41 37 39 40 49 50 54 57 55 50 49 55
24 21 19 22 22 21 23 24 21 21 22 29 50 64 70 70 72 82 94 71 64 49 50 57 51 43 39 35 35 31 29 37 39 39 43 44 44 50 54 61 53 49 46 45
25 21 23 24 21 20 22 22 21 18 21 29 45 69 68 64 73 71 73 75 73 58 50 52 49 42 39 34 34 31 25 36 38 39 42 43 44 43 47 51 44 46 41 42
25 21 23 25 21 18 19 21 21 21 21 21 26 33 56 63 72 69 65 71 65 60 49 47 43 40 36 34 31 30 24 31 37 36 37 42 46 46 45 42 56 44 46 44
20 23 23 25 24 26 21 19 20 22 24 26 21 28 35 61 57 60 60 54 58 57 63 39 47 43 38 36 33 30 26 22 33 34 31 36 41 42 43 39 44 48 47 44
20 20 22 23 23 23 24 23 25 27 27 23 19 25 22 39 46 48 54 56 63 61 62 53 47 46 44 37 34 30 27 22 21 30 29 27 34 38 37 37 39 45 46 45
19 18 19 25 27 26 24 24 29 30 27 22 20 20 16 16 32 42 57 63 69 69 70 61 55 43 45 38 35 33 28 24 19 20 24 24 26 29 32 34 37 41 39 33
24 22 19 19 24 28 25 28 21 24 21 28 23 20 18 17 21 34 46 61 66 69 69 66 63 58 48 43 37 33 31 27 21 16 19 21 23 25 28 32 34 36 40 34
26 25 23 24 21 24 26 28 36 30 32 35 27 22 25 27 23 30 39 47 55 59 66 65 65 70 67 61 53 43 37 34 28 20 16 19 20 21 24 28 32 31 35 35
26 26 23 27 25 27 28 26 32 35 36 38 33 24 19 29 33 31 32 38 43 50 55 42 64 75 70 73 66 59 40 36 35 30 20 16 19 20 21 25 27 27 28 33
27 25 24 27 27 27 26 28 30 36 38 39 41 27 24 33 36 35 37 35 37 43 52 49 44 61 69 67 63 63 54 39 30 33 31 23 17 17 18 20 24 24 25 29
39 34 31 20 27 31 29 28 28 30 27 28 35 27 32 34 36 48 53 53 58 63 55 51 44 36 55 65 66 61 62 59 45 31 33 32 25 18 16 17 18 21 21 22
42 42 41 35 37 46 40 32 28 29 28 25 29 25 26 34 38 41 47 45 56 69 72 62 57 51 53 57 61 59 61 62 55 45 31 29 30 25 19 18 16 17 19 19
40 45 47 42 38 37 40 39 31 28 26 27 23 25 32 34 37 42 43 43 45 47 73 78 75 68 55 50 54 55 60 63 58 53 48 33 26 30 27 23 19 19 19 18
51 53 47 44 47 42 43 38 36 29 22 22 21 19 27 30 34 38 45 41 47 49 52 59 62 51 56 47 56 59 54 68 58 58 53 44 30 25 28 26 23 22 20 20
56 65 70 55 54 55 55 42 39 34 27 23 22 21 26 31 31 36 43 44 43 47 52 59 64 50 49 57 56 49 60 71 64 59 59 53 39 27 24 26 26 24 24 23
58 65 89 83 76 85 42 50 49 49 38 30 28 24 26 28 29 34 39 45 49 46 52 51 69 78 79 75 74 55 67 69 71 60 58 55 50 32 26 25 24 26 26 24
68 66 71 81 74 59 53 44 48 53 46 41 39 35 21 30 28 28 40 47 52 50 56 59 63 73 77 80 66 82 96 88 68 74 59 56 50 39 31 28 24 22 24 24
76 80 92 97 92 73 38 45 54 61 52 46 55 47 30 26 26 35 38 45 50 53 58 61 55 60 62 83 86 88 76 83 66 59 67 61 57 45 34 33 33 29 25 23
81 80 88 91 98 87 77 65 62 71 57 57 57 53 41 37 29 26 35 40 48 50 54 62 60 60 59 59 76 74 67 49 49 62 66 64 60 52 45 38 39 38 34 29
89 90 91 95 97 94 84 73 83 73 54 60 57 56 50 41 31 27 26 28 29 37 49 68 61 62 58 62 59 71 85 77 60 59 66 69 60 59 54 50 47 46 42 38
89 91 94 96 88 78 82 85 82 79 65 57 58 52 50 46 35 30 27 23 22 33 36 50 61 65 60 55 53 51 52 54 61 61 68 65 61 58 59 56 55 52 51 47
92 91 92 91 83 85 87 85 81 76 72 65 54 50 51 48 39 28 28 25 27 43 42 37 43 53 56 50 52 46 40 40 42 49 52 60 59 57 58 57 57 57 54 54
81 89 94 93 91 91 91 90 90 87 84 82 77 63 55 56 46 38 35 36 35 46 48 47 46 51 56 59 51 42 34 30 35 39 41 49 54 54 56 55 56 55 54 53
70 67 74 88 90 93 91 92 92 92 91 94 94 86 80 84 68 52 41 52 57 56 49 48 47 49 45 49 54 45 38 32 28 35 40 46 50 53 51 53 50 50 52 55

GFSCGP_prec_cthk_060.txt.gz
RH
27 30 32 30 30 27 26 25 25 33 37 39 49 63 71 76 84 78 76 66 52 56 55 58 57 50 52 47 45 44 43 45 46 44 49 56 47 51 56 56 53 55 67 76
31 33 29 29 28 27 26 27 23 27 29 30 46 56 70 72 77 78 76 75 61 52 53 51 59 66 59 48 44 41 37 35 39 39 46 48 46 59 54 58 58 51 59 65
30 26 24 30 28 28 26 28 24 27 29 39 49 68 77 80 77 78 79 79 61 53 56 56 54 44 46 45 42 37 36 36 37 38 39 47 50 52 59 61 54 49 52 53
28 22 25 24 26 25 28 24 24 25 28 33 43 78 76 80 83 80 73 65 56 58 49 57 54 46 45 49 42 37 36 37 38 38 36 43 46 52 54 55 51 48 47 48
28 22 23 25 22 24 21 23 23 23 26 27 32 34 59 69 83 79 65 60 55 61 53 47 51 46 44 46 42 38 35 37 37 40 35 40 44 45 50 54 46 44 44 46
20 23 18 20 22 24 22 22 23 25 25 28 28 30 59 61 61 65 63 69 61 60 55 45 46 48 47 47 44 40 36 36 36 41 39 43 45 46 48 47 46 47 45 46
20 20 21 21 21 23 23 24 26 26 28 29 28 30 26 42 47 54 61 66 68 66 71 53 46 43 45 41 40 38 36 33 34 36 37 39 45 47 47 43 48 48 47 50
19 18 20 21 22 25 26 25 27 26 27 28 25 31 27 30 38 43 46 63 70 67 70 61 43 41 39 40 36 35 35 32 31 30 36 32 37 44 44 43 39 39 47 43
26 21 19 21 21 23 27 27 25 26 25 28 24 24 26 34 34 35 36 48 55 62 58 64 63 47 42 41 37 35 34 32 31 27 27 31 28 33 38 38 38 39 41 37
25 23 20 20 22 27 29 30 33 31 32 33 27 25 28 36 36 35 33 33 39 44 49 62 62 52 45 39 40 40 37 34 30 29 26 24 27 27 32 33 36 37 41 42
26 25 24 24 26 26 30 30 33 34 37 39 36 31 36 41 42 38 34 32 39 44 46 45 58 58 54 53 47 36 37 39 35 33 29 25 23 26 27 30 33 35 37 40
27 26 29 27 29 27 29 32 32 36 36 40 41 36 35 39 42 40 43 40 43 54 66 61 55 55 53 58 55 50 43 35 35 35 34 31 23 22 25 25 29 33 34 37
33 35 32 26 32 34 35 35 34 32 31 32 35 34 35 40 41 44 42 46 45 59 65 68 73 67 59 57 51 54 51 46 36 36 36 35 32 23 21 25 25 30 32 33
30 34 36 40 42 41 40 39 37 35 35 34 33 38 34 34 37 41 42 53 64 71 79 79 71 63 56 50 65 64 60 54 51 41 36 36 35 33 25 19 23 25 29 30
35 35 34 33 36 43 43 42 41 39 38 37 33 37 33 33 35 37 44 44 52 65 87 81 71 60 55 56 58 65 62 59 62 56 43 36 37 35 35 30 23 20 23 26
44 45 42 38 32 37 45 46 45 39 39 38 37 36 31 36 34 36 38 47 48 55 57 71 71 66 67 60 55 56 61 63 65 64 60 52 41 36 33 34 30 28 20 21
45 50 54 55 43 36 37 35 43 44 43 43 42 36 33 36 36 37 38 54 52 52 56 57 59 68 73 66 59 56 64 66 65 69 73 61 51 46 33 32 33 31 28 23
48 54 64 69 58 64 32 35 35 40 47 49 44 40 39 38 41 41 43 42 59 51 56 58 54 66 72 70 70 67 66 63 69 66 70 69 64 54 48 34 30 30 31 28
61 65 72 76 70 50 45 49 50 53 50 60 55 44 41 40 37 40 43 44 47 57 54 51 54 56 65 65 67 69 63 65 63 60 65 65 67 66 62 42 29 28 29 28
69 72 79 87 88 82 71 61 56 55 53 57 55 50 45 42 42 37 40 46 48 45 53 50 47 54 67 72 69 77 74 65 64 60 61 65 66 68 64 51 39 31 31 28
73 78 84 89 93 84 74 69 70 77 58 58 59 56 49 51 47 35 33 38 48 48 45 49 45 50 59 62 66 68 68 60 62 66 66 65 68 65 65 55 53 44 40 38
77 82 85 89 92 94 78 76 80 73 68 65 59 57 53 50 48 42 35 32 37 46 44 43 53 53 53 64 62 63 58 60 54 56 60 63 67 65 66 58 55 53 49 45
82 82 86 86 83 78 80 82 80 75 69 67 61 57 56 51 44 41 34 32 29 35 43 44 47 51 57 61 61 55 46 56 65 61 68 67 70 70 70 65 63 60 55 52
65 69 79 83 79 80 84 85 86 86 82 75 65 57 57 58 48 41 35 29 27 26 30 35 43 51 54 59 63 60 47 53 61 60 64 70 81 71 71 68 68 62 58 56
62 65 59 58 66 79 84 86 86 85 83 79 74 68 64 66 56 49 44 35 31 29 28 28 33 41 51 60 62 60 61 50 56 59 57 61 75 88 77 71 69 63 59 58
55 58 59 57 52 56 69 82 84 85 81 81 80 78 77 76 71 62 52 43 35 32 33 30 32 38 38 49 58 60 64 53 53 48 57 53 55 68 69 70 66 62 64 60

GFSCGP_prec_cthk_063.txt.gz
RH
22 29 34 36 37 33 33 32 37 44 38 34 49 51 62 70 79 76 80 75 59 56 59 57 55 51 46 47 46 49 50 51 50 52 57 45 51 55 54 60 63 70 72 66
28 33 34 35 35 34 31 28 31 39 39 40 37 48 58 66 75 78 77 77 72 61 58 56 54 51 49 49 43 48 49 53 48 45 46 40 46 58 59 62 62 66 78 62
31 32 35 35 34 33 31 27 32 38 39 43 51 57 62 67 72 75 76 75 74 62 55 54 52 47 48 48 44 44 44 43 41 42 49 49 52 59 61 63 61 57 62 59
32 32 31 31 33 32 33 26 36 35 33 32 42 58 66 68 75 74 73 71 71 54 51 50 47 45 44 51 51 43 44 42 39 37 38 44 44 53 57 62 59 53 51 54
31 26 30 29 24 28 25 26 32 38 32 29 30 40 48 72 73 67 65 69 66 59 52 46 46 41 42 46 46 43 46 46 45 41 36 36 41 52 54 59 58 51 52 53
27 23 20 22 24 24 24 26 27 31 33 32 28 28 42 61 49 55 61 66 67 66 64 58 51 45 44 46 45 44 45 45 42 42 37 36 39 44 54 57 55 52 49 50
23 25 25 22 21 22 24 26 30 28 32 32 28 30 26 42 39 43 51 59 64 66 65 56 49 44 40 43 39 43 43 42 42 42 39 37 36 40 45 50 54 55 50 51
19 19 23 24 21 23 24 27 29 28 32 31 29 30 30 33 32 39 46 47 66 63 60 61 47 42 39 41 35 36 41 42 41 41 40 38 37 42 45 48 50 53 51 51
26 21 21 23 23 23 27 28 25 30 29 28 31 30 31 37 34 36 41 38 52 65 60 60 58 43 38 39 33 34 38 39 40 37 38 35 36 39 43 44 47 47 48 50
28 26 22 22 26 26 28 32 33 31 34 31 27 32 45 42 39 36 38 35 37 53 67 65 62 59 41 37 35 34 34 35 34 36 35 33 31 33 36 43 42 41 41 45
29 27 24 24 29 30 35 37 37 36 35 37 36 40 37 37 37 39 37 34 30 40 58 67 62 68 56 43 43 42 41 37 36 33 34 33 29 27 28 33 36 39 40 43
29 29 29 31 32 31 34 39 39 41 39 41 40 43 36 30 30 36 40 32 31 37 48 66 70 74 69 64 63 56 47 43 40 38 35 33 30 26 23 27 30 36 38 41
33 34 32 32 34 34 35 38 39 39 38 39 37 38 28 26 26 32 47 47 45 47 53 63 71 83 82 75 68 68 62 52 47 43 40 37 33 29 25 21 25 31 35 37
32 38 37 40 44 42 42 41 40 41 46 45 37 38 31 27 25 32 34 48 61 65 65 67 76 78 84 81 67 68 69 64 59 51 44 42 38 33 29 25 20 24 28 32
36 42 38 34 38 43 43 45 44 44 44 45 40 40 36 31 28 28 37 37 44 61 60 65 79 78 79 72 68 63 61 60 64 61 50 44 43 42 37 33 29 21 22 26
35 41 35 33 31 32 38 40 43 44 44 42 39 40 40 39 35 33 29 38 43 48 56 60 72 79 79 70 65 63 59 59 62 60 59 51 44 46 44 38 35 33 27 21
38 42 42 42 36 29 28 35 42 45 47 44 45 44 45 44 44 41 38 35 42 45 50 52 62 75 78 76 69 74 68 64 65 63 66 65 52 45 45 44 42 38 34 32
43 47 49 51 43 47 36 36 35 41 52 55 53 52 53 50 45 46 40 40 39 42 47 48 56 66 78 75 76 76 71 69 66 64 65 67 63 55 46 45 43 41 39 36
50 52 58 63 63 48 40 46 49 51 51 54 62 57 56 50 45 41 41 39 41 42 47 48 45 60 70 66 69 75 75 72 66 65 67 66 67 66 59 51 41 39 39 40
60 63 67 72 73 71 57 55 55 60 58 49 54 60 60 61 57 42 40 39 38 42 45 48 47 44 50 54 55 67 69 74 70 68 65 64 69 69 65 61 57 44 38 40
63 65 71 73 79 71 64 59 59 73 59 56 55 57 62 61 57 49 44 40 40 42 43 46 48 46 43 50 47 57 64 63 67 69 65 66 66 70 71 69 68 61 48 42
66 68 71 72 74 76 68 63 66 69 68 68 65 60 60 64 61 55 49 44 40 38 41 45 47 49 43 48 47 50 56 58 58 57 64 65 67 68 70 71 74 68 59 48
62 57 62 64 64 64 66 67 70 72 73 74 70 65 59 57 63 60 51 47 42 36 39 37 47 50 48 46 49 49 56 59 50 48 56 66 67 69 68 70 71 64 58 48
53 55 54 53 40 45 56 66 73 78 79 79 77 74 70 59 58 58 56 51 45 39 35 38 37 43 53 53 49 47 50 58 53 45 47 60 61 66 68 71 73 69 58 47
54 57 53 52 48 47 45 49 57 64 72 79 82 80 79 71 61 63 58 54 50 44 38 33 35 33 32 46 52 54 46 55 53 47 45 44 56 62 66 71 75 71 63 52
51 52 55 53 44 49 50 53 57 56 61 71 88 84 81 79 73 69 63 58 55 53 46 36 30 32 29 31 43 53 55 53 54 45 43 39 44 58 61 63 72 69 64 60

GFSCGP_prec_cthk_066.txt.gz
RH
19 24 30 34 37 35 32 35 41 37 39 40 42 51 55 62 75 84 84 76 65 62 64 64 61 53 44 44 44 50 57 46 45 51 49 48 50 56 60 61 71 78 73 64
22 25 30 38 40 38 34 34 40 41 37 38 39 49 57 59 68 75 79 79 74 63 63 63 59 53 44 44 43 51 56 53 51 53 53 47 51 56 59 61 66 69 69 64
24 24 34 39 40 38 35 33 38 42 36 39 51 55 61 62 72 72 77 77 75 73 59 61 58 52 46 43 42 46 53 54 49 45 44 47 46 54 61 60 63 69 65 64
29 29 35 39 38 38 39 34 32 37 36 33 43 51 56 61 66 71 74 75 74 77 60 60 58 50 45 42 42 45 47 53 47 47 45 46 48 50 62 60 64 58 53 60
30 32 35 37 35 33 36 35 36 37 37 32 31 47 37 59 63 67 72 73 70 65 56 57 58 53 48 46 44 44 44 46 46 42 44 44 45 47 57 58 61 55 53 57
29 25 32 33 31 30 33 32 34 37 36 35 30 35 27 54 60 60 63 67 71 69 59 57 56 53 47 45 46 44 42 43 47 42 40 38 39 43 51 55 55 54 52 51
28 28 27 25 23 23 26 31 37 38 40 37 32 27 26 36 40 46 53 60 69 71 69 64 54 47 44 43 43 43 41 45 50 46 42 41 38 39 44 52 54 56 49 48
29 30 29 25 22 23 25 27 34 31 39 36 33 30 28 33 34 36 42 53 60 68 70 68 56 50 41 40 42 43 40 40 46 46 41 43 39 40 38 41 47 51 49 49
25 23 26 27 24 25 26 27 27 32 32 32 33 32 28 28 33 34 38 40 50 65 64 67 58 48 45 39 40 40 42 41 43 44 43 42 42 38 37 40 45 47 49 48
30 26 24 24 27 26 30 30 32 33 34 32 33 41 44 32 29 38 42 40 43 55 64 66 66 51 51 45 41 42 44 43 41 40 44 42 43 37 35 37 42 44 45 49
32 29 28 27 31 33 32 36 35 36 34 36 42 45 32 29 30 35 48 47 40 53 57 69 70 70 55 51 46 47 46 48 43 44 43 43 41 41 35 34 37 39 40 41
31 33 36 34 33 32 35 37 39 42 38 36 43 42 28 28 28 39 48 52 48 54 56 69 76 77 68 59 53 50 51 51 48 46 48 46 42 39 35 31 32 35 35 35
36 36 36 38 34 35 36 36 38 40 39 41 45 36 29 26 28 36 48 49 53 54 61 62 74 77 77 70 61 56 55 51 52 50 48 51 48 43 38 31 25 29 31 34
40 45 37 35 36 38 39 39 38 41 46 44 41 38 34 31 32 33 39 46 51 56 58 59 67 76 81 76 67 65 65 56 53 52 51 51 49 49 45 38 30 25 26 29
39 48 43 42 39 38 40 41 38 39 41 42 41 40 36 39 38 38 35 42 44 55 57 60 62 69 77 84 83 79 74 69 58 51 50 48 47 47 47 44 38 33 27 24
35 42 35 36 38 35 35 37 38 37 39 41 41 41 45 43 42 38 35 39 40 42 51 58 62 59 64 80 86 86 78 69 66 57 48 48 51 49 44 43 40 38 35 31
35 38 37 35 38 30 35 36 34 36 41 47 44 46 49 47 45 43 39 35 42 41 41 50 56 60 62 68 78 82 82 71 66 63 60 55 52 49 49 46 42 39 36 37
40 43 44 45 34 31 35 38 34 31 42 48 52 52 51 49 47 44 45 40 38 40 40 43 47 51 53 63 72 81 84 80 71 65 64 64 64 64 58 54 48 42 40 38
46 47 53 52 53 42 48 44 40 41 35 40 44 47 48 48 43 43 44 45 41 39 37 37 41 46 49 53 61 74 85 86 74 71 71 75 72 72 67 61 53 51 48 44
56 58 60 63 61 60 56 51 47 48 50 46 44 43 42 43 48 42 43 42 41 40 39 36 36 43 47 48 52 64 69 71 76 80 79 77 76 76 74 66 59 54 52 50
59 61 67 66 69 64 60 57 55 60 50 52 52 52 49 45 42 40 43 41 41 41 38 39 36 38 46 48 49 53 62 63 72 68 77 78 72 73 75 71 70 64 55 50
60 61 67 66 70 67 62 57 55 55 55 56 55 57 55 50 46 43 40 43 42 40 40 38 37 38 42 47 49 48 52 60 64 63 61 72 75 73 74 79 78 72 69 62
54 48 51 49 49 46 46 52 55 57 56 59 60 60 58 57 54 49 43 40 43 42 43 41 37 35 37 44 51 52 56 56 56 56 57 56 64 69 72 75 79 78 76 69
46 48 48 47 40 40 39 41 38 41 48 55 58 58 62 66 63 58 53 46 44 46 47 43 41 35 34 40 47 50 52 54 47 51 56 53 60 62 68 71 75 75 71 66
49 49 47 45 42 40 38 40 41 43 42 43 44 52 60 73 71 68 64 60 53 47 48 49 44 41 37 40 39 48 48 52 52 48 51 54 55 58 64 66 74 77 72 69
55 50 53 49 41 40 42 43 44 44 43 44 45 46 50 69 80 77 72 69 66 58 52 51 46 41 37 41 39 39 49 47 52 55 49 58 57 54 56 57 61 68 72 74

GFSCGP_prec_cthk_069.txt.gz
RH
19 22 23 30 30 29 31 38 41 40 44 45 40 42 57 62 78 81 86 82 75 76 70 64 63 54 42 35 34 36 36 39 46 44 51 48 48 57 62 64 74 72 68 65
19 19 23 31 37 34 31 33 39 36 39 40 40 44 62 58 66 77 80 79 73 70 68 64 63 56 42 39 38 44 47 40 42 44 52 50 50 57 59 63 70 70 67 62
18 18 23 31 37 38 35 32 36 37 33 40 51 53 62 64 63 75 81 80 79 75 64 64 62 58 46 42 41 46 56 45 47 54 51 49 49 58 57 62 65 68 68 62
23 22 26 35 36 37 39 34 35 38 33 31 38 40 55 63 69 75 78 78 77 78 72 65 63 59 49 43 42 46 52 53 51 50 46 50 49 51 56 63 68 59 59 63
28 26 28 37 35 38 40 37 35 36 37 29 31 38 44 54 67 72 77 79 76 77 77 60 61 59 49 44 43 46 49 53 50 47 42 44 48 53 56 63 62 55 53 57
29 29 33 35 39 37 37 35 32 31 32 30 26 32 36 42 52 55 68 75 74 70 65 60 60 62 52 47 47 46 48 52 52 48 44 46 46 51 53 60 61 58 53 57
29 27 31 34 34 37 34 34 34 34 33 31 26 27 39 39 43 46 48 57 71 67 63 58 57 58 53 48 46 49 47 46 48 47 43 44 44 45 50 54 57 57 54 50
34 33 30 28 27 26 30 30 29 34 31 26 28 27 35 33 42 48 52 53 60 65 68 70 62 55 53 46 47 51 45 45 46 47 44 40 42 42 45 50 56 58 57 48
34 33 30 30 28 26 25 28 28 28 29 27 28 30 34 30 34 44 56 55 59 64 72 74 72 62 52 47 44 46 44 45 46 47 47 45 42 42 42 43 44 50 53 51
28 33 32 32 28 26 26 27 28 30 33 31 34 40 35 32 36 46 51 51 49 62 77 78 72 68 62 49 49 48 48 46 46 48 48 48 47 43 41 41 42 45 50 52
30 27 29 31 35 32 28 30 30 30 30 30 32 37 29 34 45 50 50 52 53 54 66 80 83 68 66 59 50 48 49 49 51 51 51 49 49 46 44 39 40 42 46 49
40 34 32 32 31 33 32 32 32 30 37 33 32 34 28 34 42 46 55 54 55 62 63 72 78 78 69 65 56 50 50 50 53 53 55 52 51 51 46 42 37 39 42 43
39 39 40 35 32 31 33 32 32 30 32 37 32 31 31 36 36 41 49 53 56 58 63 69 76 83 80 66 59 55 54 54 54 55 55 56 52 50 49 45 41 37 38 40
40 36 34 32 34 34 34 33 32 30 31 33 35 34 34 37 37 38 40 52 54 55 57 61 69 74 86 88 72 57 54 56 57 55 53 55 54 50 49 48 46 42 35 36
43 44 43 40 38 38 37 36 33 32 34 35 37 36 39 41 40 37 36 38 47 52 54 57 60 65 70 86 88 78 59 54 54 52 49 45 44 48 52 50 47 46 41 35
42 46 43 42 38 36 34 36 37 35 34 36 36 41 45 45 44 40 39 35 36 39 51 55 53 56 63 70 87 86 75 65 61 60 54 54 49 46 46 47 48 47 44 40
34 34 33 33 33 30 27 30 32 36 41 40 39 49 50 47 45 43 40 37 39 37 41 47 55 61 59 57 67 81 87 76 76 75 71 57 52 49 48 46 46 45 43 42
32 36 38 36 32 31 30 31 32 35 42 43 46 50 51 50 48 45 44 43 40 37 39 41 43 43 57 61 57 58 71 87 89 81 76 70 65 56 51 51 45 42 43 41
36 36 44 43 37 35 35 33 31 30 36 38 40 44 46 47 46 48 48 46 44 40 38 38 41 40 40 47 58 59 58 70 86 86 84 81 79 71 65 57 51 46 46 44
48 45 44 48 43 39 39 37 37 36 33 39 37 35 34 37 37 40 45 46 45 44 39 38 36 39 39 40 44 51 56 58 72 84 87 88 79 77 74 70 65 54 50 48
52 56 56 54 52 48 46 46 47 49 46 47 43 42 40 37 36 34 35 39 41 42 43 38 36 40 41 39 40 41 49 53 64 66 81 83 79 81 79 78 74 71 66 57
52 57 61 62 61 55 48 48 49 48 46 45 45 44 43 42 40 36 33 31 32 36 38 41 40 36 40 38 41 42 41 46 57 58 62 65 66 83 85 80 80 77 75 71
49 43 47 43 41 37 39 36 40 44 43 43 42 43 43 42 42 38 38 36 35 36 34 36 39 39 38 42 40 40 46 44 46 54 49 53 63 70 76 76 78 76 78 75
42 39 43 40 32 31 31 32 32 32 34 35 35 36 39 42 42 38 41 45 43 41 39 37 35 38 38 39 42 41 42 49 46 50 51 48 50 59 65 66 72 76 77 76
50 50 46 40 35 33 32 32 34 36 38 37 37 37 37 38 37 39 41 47 50 47 45 43 41 38 36 41 39 40 38 40 48 48 56 45 50 54 59 59 62 66 73 79
57 56 54 49 39 36 33 33 36 39 40 40 40 38 37 37 35 35 38 43 52 55 53 50 48 45 41 38 40 39 38 38 41 48 50 56 48 52 56 58 57 61 62 67

GFSCGP_prec_cthk_072.txt.gz
RH
17 20 19 20 20 28 29 36 46 40 51 50 47 40 59 65 76 82 87 86 81 76 71 62 63 59 55 46 39 37 36 41 45 45 50 53 60 66 69 72 69 64 65 57
18 18 19 24 26 29 26 32 41 38 38 45 40 36 53 51 65 80 85 86 79 77 72 64 62 60 54 41 32 35 37 41 48 49 53 54 56 66 69 69 68 70 66 61
18 17 21 29 33 31 25 27 40 40 38 40 43 44 53 64 66 81 82 84 79 74 70 65 64 62 55 41 35 37 43 44 48 48 53 54 53 63 65 69 66 68 64 60
18 20 21 26 33 29 32 27 33 34 31 36 36 48 51 65 67 77 84 80 82 80 76 66 64 62 56 42 39 44 51 49 45 49 53 52 53 62 64 71 70 62 64 60
24 19 21 27 33 34 43 33 30 30 30 36 28 40 57 53 71 71 78 83 83 82 82 73 66 67 61 45 44 46 55 57 55 57 51 53 53 60 62 72 74 60 60 61
36 23 23 29 39 37 43 33 30 30 32 33 29 32 44 50 54 60 74 79 79 81 80 81 67 67 63 48 43 48 52 56 55 55 49 45 51 56 63 66 72 66 61 61
34 30 32 36 41 37 40 33 31 31 31 29 29 28 50 40 46 56 58 60 77 74 79 79 66 64 64 52 42 47 50 54 55 51 49 45 47 54 58 63 68 68 63 59
33 33 33 32 37 36 36 35 30 33 28 29 29 27 36 38 48 55 58 53 62 74 71 69 67 64 65 59 46 48 46 50 55 54 48 47 49 48 54 58 63 63 64 62
39 36 27 25 25 27 35 37 35 32 32 28 27 35 30 33 48 54 55 53 63 73 71 74 72 65 64 64 54 46 48 47 50 51 49 46 47 45 48 56 58 61 60 61
37 42 32 28 27 25 27 31 36 28 33 30 32 33 37 37 46 51 56 65 68 72 78 76 79 73 66 64 59 53 51 50 48 52 50 49 45 45 45 47 50 51 56 53
30 34 32 34 32 31 26 27 28 31 31 28 35 39 32 43 49 50 52 62 67 73 77 83 89 87 77 69 63 56 53 50 51 51 52 51 50 47 45 45 45 47 49 51
30 32 35 37 33 30 27 29 30 30 36 30 31 40 40 40 49 52 52 54 60 60 67 76 82 89 84 78 65 60 58 55 53 52 53 54 54 53 51 46 44 42 46 49
44 34 34 32 32 34 32 29 27 28 33 38 30 41 45 39 43 54 52 52 59 60 63 67 82 86 90 82 69 64 60 60 59 57 55 56 53 54 52 51 46 43 41 42
42 47 42 37 35 32 34 32 29 29 30 40 39 42 44 43 39 43 53 54 54 59 63 67 68 76 83 91 81 74 64 60 61 60 57 51 58 52 54 54 51 46 44 39
42 43 45 48 37 34 32 30 31 32 34 37 44 40 45 43 38 39 41 49 53 55 59 64 65 66 74 82 86 84 74 63 56 54 52 56 50 52 53 54 54 51 48 45
40 45 40 40 41 42 37 33 30 30 32 35 39 43 46 43 43 40 39 40 43 50 52 57 57 61 64 71 77 87 82 79 70 60 56 54 57 54 51 51 50 49 52 48
43 43 41 38 36 32 30 31 31 33 32 35 39 46 43 44 44 42 41 41 41 43 43 44 50 52 54 57 63 76 79 86 89 76 62 58 56 56 54 51 50 46 48 47
38 40 36 36 33 31 37 32 31 32 41 41 44 46 45 46 45 45 45 42 40 41 41 41 41 41 50 53 56 57 66 74 88 91 83 73 66 65 63 62 56 54 50 46
32 32 33 34 26 31 28 25 26 30 35 37 39 42 44 43 43 50 47 45 43 40 39 39 39 39 40 45 46 55 60 63 68 83 89 88 76 79 72 62 58 56 58 55
34 37 39 36 40 34 36 30 28 25 29 33 32 36 36 34 36 52 49 46 45 42 38 36 36 37 39 39 41 49 54 54 58 68 81 86 82 76 69 68 69 70 65 62
45 45 48 41 44 39 40 34 32 32 40 37 31 30 30 31 35 38 38 41 43 43 41 38 37 36 37 39 39 40 43 47 47 54 62 75 76 69 75 78 84 81 77 71
51 54 54 52 55 60 41 40 41 48 44 38 35 34 33 32 31 31 31 31 33 34 38 40 39 37 35 36 37 38 40 43 42 44 55 59 66 63 71 83 87 80 81 81
48 44 56 51 56 46 45 42 42 39 40 38 35 33 32 31 32 30 29 29 31 32 29 28 28 30 34 35 35 36 37 38 40 40 39 52 57 66 65 68 69 70 86 82
37 37 40 37 29 32 35 32 31 30 32 31 31 30 31 32 32 31 32 31 31 33 33 33 31 29 28 32 35 34 34 36 37 38 42 39 47 56 56 61 62 69 76 91
47 46 43 40 34 32 31 31 29 29 30 31 30 31 32 31 34 33 32 33 31 33 35 38 38 38 34 32 33 34 31 31 33 35 38 41 43 45 58 63 55 58 65 78
70 55 54 52 42 37 36 33 34 34 34 34 35 35 37 37 37 36 35 35 30 30 33 36 39 40 41 39 36 37 34 30 30 31 35 37 41 43 46 45 49 48 51 58

GFSCGP_prec_cthk_075.txt.gz
RH
17 18 21 21 19 21 33 33 45 46 49 51 55 74 64 68 73 79 79 85 83 79 73 66 59 59 58 50 45 41 40 42 46 46 50 66 68 73 74 78 70 64 76 62
18 17 20 21 21 23 28 33 40 47 50 51 50 42 50 60 72 76 83 85 83 83 76 68 61 65 65 52 46 46 41 41 46 51 56 62 71 71 67 75 70 73 68 57
20 15 19 20 24 30 33 38 41 46 37 42 42 45 49 51 60 76 81 83 83 82 76 68 63 62 60 56 46 45 39 40 47 57 56 55 57 70 74 72 70 68 73 63
20 20 19 21 30 31 31 28 40 43 40 37 35 43 52 48 56 77 76 83 80 78 74 71 64 68 71 53 35 38 36 39 47 52 56 59 57 65 68 69 78 65 63 65
21 21 21 25 30 32 37 29 36 46 35 35 41 38 60 66 56 69 70 84 83 77 75 74 66 65 69 54 40 38 42 44 45 52 59 54 54 77 73 71 86 65 61 60
28 23 22 20 26 35 42 46 35 33 35 34 35 28 56 64 64 67 63 69 79 82 81 82 77 71 67 61 46 43 43 52 49 50 50 52 55 61 70 77 68 69 62 61
32 38 26 23 32 38 47 46 38 41 36 32 31 29 52 59 49 51 63 69 74 83 84 77 82 70 63 64 52 47 46 50 59 54 58 51 50 51 64 69 68 72 63 61
33 33 27 26 36 47 46 44 32 35 29 27 29 31 46 51 59 54 62 62 75 77 71 74 77 84 63 66 57 50 47 49 58 58 56 51 47 51 58 62 66 72 77 81
41 38 36 35 44 49 46 41 33 27 23 22 30 40 49 55 48 50 59 64 59 78 77 67 70 70 64 73 61 50 49 49 53 61 58 53 52 50 55 62 61 69 68 79
47 43 36 31 35 42 46 42 41 35 31 25 28 38 42 52 50 47 53 56 70 74 76 87 77 74 65 65 66 57 50 47 50 57 59 55 52 52 49 50 54 62 66 57
41 48 42 34 27 30 33 36 39 35 28 26 31 47 49 51 49 45 53 53 56 67 73 82 81 90 80 76 68 66 56 50 49 53 57 54 53 53 52 49 50 49 49 52
35 40 42 36 34 30 32 34 35 37 35 29 26 52 59 57 48 47 52 56 60 66 76 81 85 82 89 83 87 92 60 57 54 57 54 55 54 55 55 50 49 50 46 46
33 32 43 40 35 30 30 31 31 34 32 31 30 55 62 61 55 50 54 56 59 61 67 75 81 87 82 91 86 75 81 78 61 54 56 55 55 56 58 54 50 49 48 44
36 40 49 46 39 32 29 31 30 33 37 35 34 55 57 57 54 50 56 58 56 58 61 63 67 69 74 86 90 86 74 66 63 66 63 56 53 56 59 60 57 52 48 44
45 45 44 46 38 38 42 35 29 28 29 35 51 59 56 52 49 49 53 54 57 55 56 63 66 68 73 85 92 95 90 78 71 65 61 67 58 52 58 57 59 54 52 47
43 57 53 45 43 40 39 36 30 30 33 39 55 64 57 50 49 46 45 50 52 52 55 55 59 63 64 64 75 89 96 89 86 77 68 60 56 55 54 62 60 60 55 51
45 45 51 51 48 45 41 36 32 30 32 42 52 54 52 51 48 46 46 44 46 48 49 52 52 55 61 62 66 71 76 77 82 88 83 70 59 58 61 59 56 53 56 54
48 47 50 47 53 53 43 45 37 33 37 44 51 53 48 47 48 47 47 44 41 41 41 42 43 48 51 54 54 56 63 65 74 84 84 83 70 64 60 62 60 55 53 51
35 47 48 43 52 47 41 35 38 43 48 45 46 46 46 44 44 49 46 43 41 38 38 39 40 41 40 45 47 48 52 57 65 69 74 85 85 76 66 61 59 61 59 57
31 38 44 42 49 47 53 36 29 30 43 38 45 44 42 40 41 55 48 45 42 40 40 40 38 38 40 40 40 42 42 46 57 60 62 66 77 86 84 76 72 69 68 63
38 36 40 43 43 48 46 38 30 28 39 38 32 33 32 34 45 50 47 46 45 43 41 36 36 37 38 38 36 39 39 39 44 49 52 59 63 71 80 85 84 71 70 74
50 56 55 47 52 59 48 34 33 42 43 40 38 33 28 28 26 32 31 32 34 37 38 39 36 34 34 34 34 35 36 38 39 39 42 43 47 51 63 72 78 74 70 72
51 53 67 54 61 55 50 41 41 43 44 41 38 34 31 30 31 31 27 26 25 26 28 30 33 34 32 32 32 32 33 35 35 36 37 38 39 40 43 49 58 62 69 71
35 35 41 44 44 44 42 41 34 34 36 35 33 32 32 33 34 34 34 35 32 28 27 27 28 29 30 30 29 28 28 28 29 31 32 33 36 39 41 46 46 54 58 64
52 48 42 36 33 34 35 36 32 32 32 32 32 33 33 34 33 34 33 34 35 28 26 27 23 27 29 29 26 29 29 29 28 26 24 26 29 32 35 38 44 43 58 63
67 64 60 52 48 44 36 35 31 31 30 30 32 34 34 34 33 33 34 36 33 36 31 27 24 24 26 23 24 25 27 29 29 28 26 24 25 27 31 36 38 42 42 54

GFSCGP_prec_cthk_078.txt.gz
RH
18 20 19 18 22 25 33 33 46 51 49 51 60 65 64 76 75 71 71 73 74 73 70 66 64 55 52 50 45 40 44 40 40 35 46 59 65 64 72 69 65 63 73 53
18 17 18 22 20 22 28 34 36 56 59 61 62 69 70 66 64 71 68 71 76 78 76 70 60 59 61 48 44 40 41 40 39 37 44 61 60 63 75 73 70 65 58 49
18 13 15 24 24 23 23 26 32 44 58 63 55 66 70 58 57 65 66 69 72 77 74 70 73 58 65 65 46 40 40 35 38 43 45 62 74 72 74 90 66 59 60 49
16 18 16 19 24 22 22 28 35 50 52 43 46 49 58 63 61 61 69 66 73 75 78 77 70 59 66 71 56 45 41 35 36 43 50 47 58 70 65 63 73 63 59 54
19 19 21 19 22 26 28 32 39 44 47 38 31 38 52 59 84 66 71 66 74 70 71 73 68 61 59 62 53 39 35 34 34 43 48 48 53 58 70 72 81 66 57 54
22 18 21 20 23 32 36 38 35 40 48 38 36 38 64 65 71 85 72 75 81 73 77 72 73 68 64 59 51 34 30 32 34 40 48 50 55 72 83 70 80 69 56 55
34 27 18 21 24 31 35 41 37 41 45 39 33 40 46 62 66 82 67 68 67 75 81 80 83 73 71 61 62 40 33 34 39 38 45 45 48 66 74 68 78 71 71 61
42 35 34 24 20 27 36 40 38 39 35 31 30 30 52 60 58 63 62 56 74 80 87 79 76 82 84 73 64 48 32 34 38 44 40 42 40 54 57 69 71 71 82 72
50 40 34 25 19 26 41 43 41 32 28 26 29 46 61 68 64 60 62 58 69 85 92 85 75 83 85 69 62 55 39 35 37 44 48 46 45 40 45 59 65 63 80 78
47 47 40 31 25 32 48 40 40 40 40 36 36 39 53 59 57 53 50 53 56 69 81 87 95 81 83 66 81 61 53 37 39 42 47 49 43 39 40 48 51 60 68 85
45 47 47 43 33 33 42 53 42 39 37 36 47 62 57 71 60 53 50 48 55 64 74 90 83 95 89 80 80 91 68 50 44 46 46 50 46 41 41 40 40 48 53 49
44 43 56 40 34 31 41 43 40 37 41 35 52 76 69 71 60 53 49 48 51 59 66 69 68 81 87 75 70 73 86 71 45 47 49 47 47 45 44 42 41 44 46 44
44 40 45 45 39 32 30 32 37 37 37 37 49 58 60 64 62 59 53 49 49 56 66 73 81 92 94 79 84 92 87 85 72 61 50 51 52 48 44 43 44 43 47 41
38 43 49 62 51 40 32 27 28 31 36 37 47 65 64 63 62 62 60 53 50 52 62 68 75 84 88 91 89 91 90 85 91 73 74 59 49 48 45 48 48 49 46 48
33 37 46 52 46 40 38 31 29 30 30 44 67 68 67 65 62 62 63 59 52 51 54 60 64 68 75 77 74 73 84 87 86 80 78 64 83 74 57 47 55 55 52 47
39 45 47 44 44 40 37 38 37 32 31 42 57 63 64 57 57 61 59 56 50 50 52 55 56 60 64 68 70 75 79 92 95 91 80 66 84 97 65 55 51 53 56 55
49 53 53 49 45 46 43 39 38 34 32 65 69 67 58 56 56 60 56 53 47 46 49 50 50 50 55 57 59 65 73 83 80 90 96 88 84 65 64 70 59 51 57 58
52 51 58 61 54 56 43 45 39 37 42 53 56 68 62 60 56 57 54 47 47 42 44 46 46 47 44 44 45 46 53 61 66 76 81 82 82 85 82 68 58 56 56 53
39 44 50 53 68 57 51 44 43 41 49 56 55 61 66 58 56 54 50 47 44 43 38 39 42 42 44 45 45 45 46 49 54 60 66 69 72 81 82 82 72 63 58 55
30 34 52 52 47 55 60 55 42 41 55 52 48 52 56 55 56 52 45 41 40 38 37 36 36 37 38 38 40 43 44 44 50 51 54 56 60 64 76 78 78 75 65 60
35 35 45 50 54 62 69 58 48 46 43 47 52 51 46 47 50 49 44 42 41 41 40 37 36 36 36 34 33 34 36 37 39 42 41 43 47 56 56 64 73 80 77 66
53 54 50 46 60 70 55 52 59 56 45 37 38 44 47 46 45 48 47 43 40 39 39 37 35 33 34 35 35 35 34 33 32 31 35 37 40 42 46 51 58 61 65 75
44 56 69 59 66 67 66 61 52 46 41 39 39 39 38 35 34 39 39 38 36 33 33 33 34 34 31 31 32 32 32 31 30 31 30 27 27 30 34 38 41 41 49 58
48 38 41 48 62 60 63 64 58 45 45 41 41 38 36 36 35 34 34 33 33 33 31 31 29 27 28 26 26 26 27 28 27 26 25 26 27 25 25 26 31 35 37 37
63 60 54 48 40 41 41 45 40 37 38 39 35 34 34 36 35 35 36 36 36 31 30 28 25 27 25 26 23 23 23 23 21 22 23 23 23 21 22 24 26 28 33 35
63 73 71 71 62 54 51 44 44 39 35 36 38 35 36 36 35 35 34 36 32 31 33 29 27 23 23 24 23 21 21 20 20 19 19 22 23 23 23 21 19 21 24 31

GFSCGP_prec_cthk_081.txt.gz
RH
19 20 19 21 25 27 34 43 49 54 61 74 73 80 64 67 70 72 69 68 72 72 69 64 54 47 46 43 35 39 44 38 36 35 50 57 63 67 73 71 70 79 65 53
20 21 19 16 19 25 27 36 44 51 64 63 76 73 64 52 64 67 64 65 68 71 75 71 65 54 49 45 43 38 41 37 37 31 47 53 65 60 72 76 66 62 63 53
20 14 16 18 20 22 26 31 40 49 56 56 78 82 70 68 66 65 63 64 68 73 81 76 66 54 49 46 43 38 36 36 37 36 44 57 61 63 69 72 69 64 59 48
18 16 17 16 20 21 28 29 32 48 55 60 65 68 71 70 63 58 56 63 70 77 81 81 69 62 53 50 47 41 34 34 34 40 46 62 78 65 80 81 64 62 62 53
19 17 18 18 19 21 24 30 34 52 54 54 64 68 60 64 74 77 70 68 70 77 79 80 75 64 56 58 55 49 39 38 32 40 47 48 55 59 60 65 73 64 57 54
20 18 19 21 18 21 23 32 40 44 50 58 46 53 62 64 58 73 92 82 79 74 77 80 77 70 61 56 53 53 42 35 35 37 43 47 45 51 68 70 81 71 57 52
27 22 21 21 19 22 22 41 50 46 58 55 44 46 69 69 76 76 67 67 72 81 74 70 74 76 68 63 60 51 41 31 32 36 43 48 49 50 69 68 73 70 63 56
34 31 27 21 21 23 28 39 51 47 48 51 43 60 65 62 67 69 60 55 61 72 80 83 77 76 72 72 64 56 42 26 27 34 41 49 52 51 67 66 70 66 76 66
48 39 32 26 21 21 32 32 38 43 35 37 49 60 61 59 65 62 58 54 67 74 70 79 84 81 83 78 71 61 53 30 30 35 41 44 46 49 54 56 72 64 79 76
45 46 38 37 32 21 25 31 40 44 49 43 63 65 75 81 72 69 65 62 62 66 76 76 90 76 83 89 86 72 70 51 34 35 44 50 45 48 49 51 58 59 61 71
42 45 47 40 32 26 33 39 39 42 46 52 66 80 84 85 76 68 65 62 65 64 65 75 92 91 81 92 92 79 78 71 54 39 46 56 57 53 47 47 57 62 61 70
43 45 52 47 40 30 39 45 45 47 47 58 72 79 82 86 76 67 64 65 68 67 70 65 67 68 70 88 89 85 98 79 74 58 57 54 50 56 51 48 47 46 48 55
42 47 53 53 43 37 39 46 44 41 42 51 71 80 76 78 77 71 62 66 69 68 66 65 66 66 67 81 84 82 93 93 89 82 67 68 57 56 61 55 47 46 46 46
42 47 50 59 56 43 39 44 34 42 40 57 62 74 73 73 72 69 66 64 63 58 59 62 63 68 73 87 95 97 97 92 96 87 78 69 67 65 67 64 51 47 45 45
37 42 49 55 55 44 37 38 36 36 38 53 70 68 71 70 70 67 65 66 66 61 56 59 62 68 77 80 88 88 82 75 87 90 89 77 78 72 75 76 71 60 53 51
35 47 46 51 50 46 39 35 31 38 47 56 64 72 68 66 69 70 67 67 66 62 59 58 59 59 62 69 74 79 74 77 86 83 85 89 90 85 72 90 88 65 67 62
38 44 49 48 49 52 47 43 41 51 52 55 62 59 63 61 63 65 63 64 64 62 60 59 62 63 61 61 62 64 66 70 76 86 86 85 90 88 81 74 77 70 67 66
48 51 51 60 55 59 52 49 45 47 59 50 49 55 58 61 61 59 59 62 60 58 55 54 53 55 55 52 52 53 56 60 64 66 73 84 93 90 88 87 74 77 77 70
39 46 54 63 66 57 46 53 50 48 50 53 56 56 57 57 58 59 56 52 54 56 55 53 49 47 49 48 48 48 48 48 51 57 62 69 70 79 80 79 80 82 76 67
30 37 46 58 64 63 57 50 49 54 60 56 63 55 56 56 60 63 57 51 50 50 49 45 44 44 42 40 40 42 43 45 46 45 48 54 57 60 68 66 73 76 82 79
36 35 38 46 62 62 57 50 55 61 64 57 58 56 54 55 55 51 51 51 49 47 44 42 38 37 36 34 32 31 32 33 37 41 40 39 43 49 51 53 56 62 73 77
52 53 52 41 52 63 51 51 56 58 59 62 58 52 52 53 55 51 47 48 49 46 43 40 38 36 34 32 31 31 30 30 29 27 27 27 29 34 35 38 44 49 54 59
46 52 62 63 61 53 53 61 61 58 62 62 61 56 48 48 52 55 53 51 46 42 40 38 35 31 30 29 28 28 27 27 26 26 25 25 25 24 24 26 29 31 38 44
41 41 44 50 56 57 60 63 66 63 62 57 54 49 44 42 41 41 42 43 45 43 38 33 30 28 26 25 25 25 24 23 21 20 21 21 21 21 21 22 25 26 27 30
50 52 54 52 43 43 48 47 53 57 57 55 49 43 40 39 37 37 38 37 35 33 33 31 29 26 26 23 22 22 22 19 18 16 16 16 16 17 17 17 17 19 23 26
50 54 60 68 62 64 56 50 43 34 30 36 35 34 33 36 37 36 36 35 33 33 31 29 25 22 20 19 19 18 16 14 13 13 13 13 13 14 14 14 14 15 15 16

GFSCGP_prec_cthk_084.txt.gz
RH
22 19 26 34 34 40 42 46 56 65 74 80 81 77 70 65 76 77 72 69 72 74 72 61 49 48 50 45 43 35 38 41 35 34 49 63 80 72 71 79 80 72 56 61
21 20 16 28 32 35 40 46 50 66 68 72 81 83 81 70 72 75 74 68 70 77 75 70 62 57 50 47 43 39 35 39 37 35 52 57 66 68 74 72 69 72 57 51
21 16 19 16 25 31 35 41 44 53 70 72 78 77 72 69 69 75 76 69 73 74 73 81 73 62 56 52 48 42 37 35 39 33 41 57 66 65 78 76 66 63 54 52
19 18 19 21 20 23 29 36 38 48 52 63 65 64 71 68 68 75 74 66 70 76 78 81 82 70 60 57 52 44 39 35 39 37 43 53 63 68 75 78 68 61 57 53
19 18 18 20 20 18 21 36 37 38 47 65 69 67 66 70 78 73 72 71 68 73 81 81 81 71 69 61 56 49 45 37 35 36 46 50 76 71 80 71 70 66 61 53
20 19 19 18 18 20 23 37 39 46 53 62 60 66 72 66 60 70 78 73 69 73 76 81 82 76 68 62 67 58 52 43 39 35 42 50 54 62 67 66 87 72 59 52
25 21 21 20 18 20 26 39 45 50 60 59 55 68 59 65 58 60 68 65 68 71 72 77 80 79 71 64 64 62 63 51 42 40 42 47 50 54 67 75 82 75 63 55
33 26 23 23 20 19 26 37 48 48 60 49 56 68 69 66 71 73 77 64 71 73 74 74 75 76 75 74 66 65 60 50 34 37 39 46 53 54 71 72 74 74 74 64
36 31 25 24 22 21 22 34 40 48 48 46 72 75 73 74 73 72 73 66 61 60 71 75 77 77 76 78 75 69 66 54 30 30 33 43 51 57 60 69 71 70 81 76
37 34 29 27 26 20 18 31 46 53 49 47 74 75 74 71 68 65 62 64 63 60 66 69 76 83 84 87 87 85 72 60 34 27 31 38 45 50 51 57 60 72 70 80
38 34 37 36 32 26 23 30 42 51 51 51 73 81 78 75 69 69 67 70 68 69 70 71 75 81 82 87 84 89 90 73 59 38 40 42 46 48 49 54 56 57 60 65
43 39 42 41 38 32 29 38 46 51 54 63 73 81 75 76 79 78 77 75 73 70 72 70 72 74 79 86 81 93 91 88 82 61 50 50 56 63 57 51 48 54 61 64
45 42 50 49 48 39 37 38 43 46 51 59 60 78 72 74 82 82 80 73 73 71 71 71 67 73 78 78 77 83 95 95 91 84 62 58 60 66 69 60 53 53 54 51
46 44 50 59 59 48 42 38 44 46 50 59 65 72 73 71 73 76 80 75 75 74 73 69 69 62 68 72 74 89 88 92 88 90 92 70 72 69 71 71 64 60 57 51
47 48 44 57 53 46 41 43 40 40 43 51 61 61 64 68 69 74 74 72 72 73 72 67 65 64 68 72 78 85 87 83 82 93 91 93 86 83 79 76 70 66 60 58
40 51 47 46 63 55 46 42 46 50 53 53 57 63 63 66 68 67 68 68 67 68 70 65 63 60 64 68 74 81 82 78 80 79 84 90 88 82 87 87 83 79 78 74
46 49 52 52 55 56 55 50 48 58 58 52 63 55 58 63 65 65 65 66 67 66 66 69 66 64 65 64 64 68 75 74 75 81 82 87 91 92 90 91 84 85 85 81
42 47 47 50 49 58 56 56 53 57 61 62 54 59 63 60 62 65 67 63 65 65 64 66 65 64 64 64 62 65 68 67 70 71 74 73 74 74 87 91 89 83 84 78
45 45 45 48 54 50 43 54 58 53 59 55 59 59 58 61 58 60 59 59 62 62 60 60 61 61 60 59 59 59 59 56 56 60 63 63 64 69 66 81 87 88 84 83
36 41 45 55 57 53 48 46 57 55 60 64 60 55 56 56 56 54 60 56 55 54 52 52 54 57 57 54 50 48 48 47 48 50 50 56 61 63 61 64 79 81 83 85
42 35 40 50 57 57 50 52 51 57 53 63 68 65 60 58 56 52 53 63 59 55 51 47 46 45 44 43 41 40 41 41 41 41 41 42 44 51 55 56 61 73 74 76
48 48 49 40 43 51 48 54 57 55 55 56 64 66 65 66 61 59 57 53 59 56 50 47 45 44 43 41 39 38 36 36 35 32 30 29 30 32 34 37 44 48 53 54
43 42 48 47 50 41 40 44 48 54 59 63 66 70 67 68 66 61 56 54 52 49 50 52 50 47 43 39 35 32 31 30 29 29 28 27 26 25 24 24 26 28 30 34
39 35 38 42 47 45 45 49 53 52 57 60 64 67 67 64 63 61 56 51 51 49 48 45 42 36 33 31 28 26 25 24 23 22 21 21 22 22 23 23 23 23 23 23
41 41 41 41 43 40 39 37 37 48 59 62 66 66 65 64 60 57 54 50 46 43 40 39 37 35 32 29 25 22 21 20 19 19 18 18 17 17 17 18 18 18 20 20
40 43 47 47 41 45 46 46 46 42 39 35 39 43 50 52 50 46 43 40 38 35 32 30 30 27 28 27 25 22 20 18 15 14 14 15 14 15 15 14 13 14 14 14

GFSCGP_prec_cthk_087.txt.gz
RH
25 32 42 44 41 42 46 51 50 65 73 85 86 81 74 80 83 82 77 74 73 75 70 60 54 54 54 48 45 42 36 37 38 38 53 69 67 72 78 76 69 60 61 56
25 23 32 42 43 42 44 50 53 69 75 82 84 81 78 75 79 77 75 74 72 80 76 69 57 55 53 50 48 45 38 37 36 32 49 62 74 71 73 79 76 69 57 64
24 20 19 31 41 42 43 49 48 61 70 77 83 84 80 78 76 80 81 79 74 73 74 77 72 60 60 53 50 47 44 38 36 32 43 57 66 70 76 75 68 67 57 53
20 21 21 21 35 41 41 50 48 56 62 70 71 74 75 71 74 77 85 80 71 71 71 79 82 71 62 58 55 50 45 43 36 34 34 52 60 66 76 77 69 64 55 51
21 18 20 21 23 35 35 44 46 50 55 57 63 66 64 66 71 71 77 74 63 72 75 75 82 80 74 70 59 52 48 43 37 35 34 45 59 65 77 80 69 64 59 52
21 19 19 18 17 21 31 36 47 48 50 59 54 60 63 72 63 64 69 73 71 65 71 79 85 86 85 83 68 61 53 47 38 35 33 40 58 70 76 69 71 69 62 54
23 22 18 18 20 20 22 37 52 62 62 59 51 65 61 72 65 62 69 72 77 76 77 76 82 82 84 83 69 67 69 52 47 45 38 37 45 53 62 66 78 85 68 52
30 25 21 18 20 22 22 31 46 54 64 51 53 59 68 70 67 63 71 74 76 80 78 76 79 82 82 84 77 66 65 68 54 47 38 37 44 48 62 69 81 79 69 61
33 28 24 23 20 22 24 31 35 47 48 46 66 67 67 70 69 69 71 74 71 75 78 79 81 82 83 81 78 73 67 66 57 51 38 37 40 48 59 71 72 76 75 75
33 32 28 27 24 23 24 29 37 46 52 50 73 71 71 72 71 73 77 79 73 69 73 74 75 80 81 82 83 80 76 75 64 47 37 37 38 48 57 61 70 74 74 88
38 34 31 32 32 26 25 32 41 45 51 58 78 69 68 71 71 72 73 74 74 68 72 71 73 80 82 86 88 92 85 87 77 54 34 34 38 47 57 55 61 68 78 76
43 40 38 39 37 31 27 30 40 47 55 65 67 69 68 70 69 68 68 73 76 76 74 74 79 83 86 86 87 85 90 90 93 66 49 36 40 46 50 56 58 60 60 62
44 43 49 46 46 40 35 31 30 42 53 61 61 63 68 69 69 69 70 72 78 76 77 78 80 80 80 82 74 80 89 92 86 88 83 50 45 46 53 54 55 53 56 60
50 46 49 60 56 50 41 36 31 34 45 55 56 65 66 64 63 67 73 76 77 76 75 72 72 71 73 74 81 86 87 91 95 89 96 83 61 57 64 68 63 56 52 59
49 49 50 57 56 51 43 39 41 37 38 45 51 62 63 61 59 62 66 73 77 72 72 73 72 68 67 67 75 85 83 91 89 91 90 95 83 69 68 73 77 71 59 57
46 55 46 52 58 58 55 43 43 46 50 54 58 66 62 60 57 62 65 67 69 72 70 72 73 71 68 69 71 76 81 86 75 76 80 85 84 80 85 81 81 82 77 70
41 43 44 50 52 62 70 52 49 56 55 58 58 56 61 61 58 61 66 69 67 66 68 68 69 68 64 70 73 71 74 77 79 77 74 74 84 87 91 91 90 88 85 81
38 45 49 51 52 65 53 57 52 58 65 60 56 54 60 62 60 61 64 66 65 65 65 67 69 66 66 68 69 71 71 71 75 72 70 70 68 78 73 71 85 86 89 86
42 45 52 52 56 54 49 46 50 53 62 58 59 64 62 61 63 61 62 66 67 69 68 66 67 67 67 67 69 68 68 69 71 71 71 71 68 68 70 66 71 77 87 88
47 46 48 57 51 45 44 45 45 49 54 59 58 58 65 65 66 66 65 66 71 69 68 67 65 63 60 64 66 63 61 59 55 55 59 65 68 69 69 64 55 66 77 82
41 40 43 53 53 49 45 43 44 45 43 50 60 58 59 61 63 63 62 63 60 60 61 58 56 53 51 51 51 51 51 49 46 45 45 48 50 56 60 61 57 50 55 69
46 44 44 40 44 44 41 45 44 49 46 48 57 60 59 62 66 64 59 61 71 66 61 58 52 49 46 43 41 39 39 37 36 36 34 35 36 37 37 42 50 54 55 54
40 37 42 42 43 36 35 33 39 44 50 55 56 58 61 63 65 69 71 66 64 65 61 58 54 53 50 49 44 39 37 35 35 35 33 30 28 26 25 26 29 33 35 36
32 33 36 38 40 37 36 35 35 36 37 44 56 64 72 75 77 74 73 69 64 60 58 58 57 55 53 49 48 45 39 34 32 30 28 26 26 24 23 23 23 23 23 23
36 34 37 38 38 36 36 34 33 33 36 43 51 54 63 76 80 75 72 71 70 67 64 57 51 46 40 38 35 32 30 28 27 25 23 22 21 20 20 20 20 20 20 21
39 37 42 45 39 39 38 40 38 38 36 34 38 46 52 58 63 68 73 72 70 68 62 55 47 39 34 31 29 28 28 26 22 20 21 20 19 19 18 18 18 18 18 18

GFSCGP_prec_cthk_090.txt.gz
RH
31 42 49 50 47 49 54 64 67 70 76 81 83 88 76 81 82 81 79 78 78 59 53 55 55 55 55 49 46 43 36 39 39 48 61 61 72 75 69 63 64 60 57 50
31 34 42 49 47 47 49 53 68 76 75 83 95 90 82 78 80 78 78 73 77 70 59 55 53 52 51 52 48 46 38 38 38 38 52 76 71 73 78 79 70 66 59 62
29 24 36 44 44 47 46 50 55 67 80 84 84 88 88 81 80 79 74 69 70 72 71 65 56 53 52 49 47 48 43 37 38 35 43 60 71 71 72 74 70 67 56 53
26 25 28 41 43 46 47 49 50 63 71 81 83 88 82 77 75 74 77 74 68 67 72 74 71 64 53 52 53 50 46 42 37 31 37 52 61 67 75 75 64 61 58 52
25 25 24 25 36 41 48 48 49 56 61 74 77 71 61 72 74 72 70 76 68 66 71 78 81 74 66 59 57 55 51 44 42 33 33 40 54 64 72 74 71 62 58 53
22 20 23 22 20 31 45 47 50 62 59 68 62 59 59 74 66 65 69 76 70 66 73 73 81 81 76 74 78 62 53 46 43 38 33 34 48 59 76 78 70 67 62 55
23 21 20 21 21 20 37 44 49 66 69 68 55 58 51 69 69 62 64 71 75 72 68 76 80 84 85 84 83 70 60 55 48 42 42 36 42 66 70 72 70 75 67 55
28 23 20 18 22 21 27 40 48 59 66 59 59 55 50 66 70 65 63 69 77 79 71 74 78 83 85 85 84 78 65 68 55 53 49 42 40 46 54 65 69 87 79 60
33 26 21 20 20 22 23 31 36 45 47 54 64 57 54 63 72 69 66 70 76 76 79 80 80 80 86 89 89 88 75 66 67 61 53 43 40 41 48 62 68 81 75 68
36 30 25 24 24 25 24 23 36 41 49 48 71 61 50 63 73 70 66 73 75 76 75 77 79 80 86 90 86 89 80 75 77 64 56 42 44 42 49 62 70 73 77 78
42 36 32 31 29 29 27 31 33 38 44 61 72 59 53 57 67 72 71 73 77 76 78 76 80 79 85 90 92 90 87 81 85 97 65 40 44 42 49 55 64 71 75 76
46 42 40 37 33 30 28 30 36 39 45 58 61 52 56 56 64 70 72 78 80 79 77 79 82 80 78 89 94 92 91 92 87 96 79 56 39 38 44 55 57 61 70 79
50 50 49 44 40 35 34 31 32 38 44 57 54 50 58 59 64 68 70 70 71 73 76 73 73 73 78 85 86 83 88 88 89 98 87 84 50 40 40 49 57 55 58 61
51 51 52 52 46 41 37 36 35 31 38 45 47 56 63 61 61 64 67 69 68 69 73 73 73 75 79 84 86 84 89 91 93 96 94 96 89 51 43 46 54 57 60 56
52 56 53 53 50 45 43 38 39 42 30 37 41 51 57 63 61 59 60 67 71 70 69 72 71 72 73 74 79 85 83 84 87 94 92 97 96 80 53 52 57 63 60 61
55 61 56 56 56 54 52 45 46 48 47 47 50 52 56 63 65 63 59 59 62 70 72 74 76 73 74 72 74 77 82 89 89 86 79 79 84 89 78 64 65 71 74 71
52 52 53 57 55 58 58 54 51 53 56 53 51 53 59 62 64 63 60 63 62 64 70 71 76 76 75 75 72 73 77 83 83 70 70 67 71 81 80 85 78 77 78 81
48 50 53 56 53 64 51 53 56 55 58 54 55 55 57 60 61 64 63 65 64 65 68 71 71 72 74 72 73 74 78 78 77 74 69 66 66 67 69 77 82 85 78 82
46 47 49 46 49 44 43 44 47 52 57 61 64 62 62 62 64 65 65 64 65 63 66 70 73 72 71 73 76 77 78 79 79 79 76 72 73 71 65 60 64 68 77 86
46 46 50 53 44 44 41 42 44 44 48 57 61 64 63 67 71 67 61 62 66 69 65 66 69 73 72 73 72 69 69 70 71 71 72 70 66 68 66 64 62 58 57 68
53 53 50 56 53 46 44 44 43 46 43 51 53 59 62 62 64 68 66 66 66 67 73 73 72 70 69 70 70 67 66 65 62 60 55 54 57 60 59 59 62 60 58 56
43 43 43 43 45 42 40 41 41 45 45 46 49 54 59 63 63 63 65 66 69 66 65 62 60 57 53 53 51 49 47 45 44 42 40 39 40 43 46 49 49 51 51 49
43 38 42 38 38 31 31 33 36 38 43 46 47 51 55 56 61 67 68 68 70 74 69 64 59 55 50 48 47 42 38 38 36 35 33 32 31 30 31 34 36 36 41 46
31 32 36 36 34 33 32 31 32 33 35 34 39 48 57 62 64 70 74 75 76 75 70 68 64 62 59 55 52 46 44 41 39 36 33 30 28 27 27 27 27 26 25 26
36 34 34 33 31 32 31 30 29 28 30 31 37 42 50 56 64 75 81 79 81 79 72 70 67 64 63 58 51 46 43 39 35 33 32 32 31 30 29 28 26 24 22 22
44 41 39 38 32 34 33 34 35 34 34 34 33 35 41 45 52 58 63 78 84 82 76 71 66 61 58 53 47 43 41 40 38 35 32 31 29 30 29 28 24 22 21 19

GFSCGP_prec_cthk_093.txt.gz
RH
29 48 54 52 50 53 64 69 70 71 75 82 84 89 90 94 90 81 75 71 65 61 53 55 51 52 48 45 43 39 42 43 52 63 59 72 70 65 62 60 58 58 58 56
25 37 44 55 50 49 54 62 61 75 78 79 85 91 93 91 89 84 77 75 72 62 54 54 52 53 50 47 46 40 38 41 41 52 62 64 72 75 75 70 67 61 54 54
21 27 39 49 51 48 48 53 69 70 85 85 85 90 91 87 89 88 85 74 77 64 55 53 49 49 49 49 49 46 37 38 39 42 58 75 72 73 77 74 70 67 59 58
26 25 34 39 48 50 49 48 57 64 69 82 82 90 83 86 84 84 80 77 74 77 66 61 54 49 48 48 50 49 45 38 38 36 45 62 68 71 75 72 65 64 57 53
23 26 27 36 42 49 51 48 49 60 68 74 76 80 75 76 81 75 76 78 73 71 73 66 63 59 50 50 53 52 49 42 39 36 37 49 63 68 76 75 69 58 55 51
24 24 27 28 39 46 51 51 53 58 57 61 68 61 62 70 67 68 76 79 77 71 70 73 81 75 64 52 51 54 52 46 44 38 35 38 54 66 71 73 73 64 60 55
27 24 24 24 27 38 46 50 54 57 60 49 54 62 52 63 67 65 66 73 74 74 73 74 77 79 71 68 67 77 58 50 50 41 39 36 43 57 73 81 73 67 65 57
28 27 23 23 23 24 35 44 48 52 58 49 60 50 48 60 62 64 61 66 69 71 70 76 77 79 81 84 85 88 70 61 55 49 50 46 39 47 71 75 72 73 83 69
30 26 21 19 21 22 22 31 42 48 49 44 55 54 54 55 63 62 59 63 68 74 73 73 79 82 84 87 85 84 75 66 72 61 57 56 48 42 49 58 71 74 84 72
37 30 26 21 21 23 23 21 34 41 50 46 53 51 41 48 56 64 68 68 72 76 78 77 80 83 85 85 89 89 91 78 73 70 71 66 58 50 44 52 63 69 78 74
42 36 33 28 27 22 25 26 27 40 41 38 44 42 43 45 48 62 70 68 71 75 75 75 80 83 87 87 89 90 92 89 82 89 85 68 63 52 49 49 59 73 76 78
43 41 42 34 30 27 25 27 27 25 42 45 41 41 46 48 50 58 71 71 70 74 75 76 77 83 85 86 89 92 90 91 91 86 92 87 73 54 53 47 52 61 71 75
48 47 46 42 36 31 31 28 29 31 34 39 36 40 52 51 54 56 65 72 74 77 78 78 79 81 81 80 85 90 94 95 92 95 95 95 92 70 50 43 47 56 60 67
52 53 49 43 41 35 36 35 29 28 29 38 35 44 54 54 53 58 64 71 71 71 72 73 76 77 74 75 80 86 84 89 92 93 93 96 93 90 72 40 40 52 56 57
54 55 51 47 47 42 39 39 38 30 31 32 36 36 46 56 59 60 61 68 70 71 69 69 74 74 72 75 77 79 79 87 90 88 89 92 94 92 90 52 45 43 54 58
53 61 52 56 51 47 42 43 45 42 41 40 39 40 45 53 60 64 62 64 66 67 68 70 73 75 74 74 75 75 79 80 83 92 90 85 83 91 97 89 60 47 50 59
56 56 67 61 57 54 53 47 44 45 43 41 39 43 45 48 55 62 66 66 65 65 66 65 68 76 77 78 78 75 76 78 84 89 90 83 71 70 88 93 88 71 59 61
51 55 55 55 58 57 54 50 49 46 47 47 49 51 53 56 60 60 59 61 65 65 62 65 67 70 73 77 80 78 75 76 78 82 78 69 71 61 62 70 69 80 82 78
47 46 49 53 53 51 48 48 48 48 49 52 56 58 59 61 62 62 61 62 62 62 63 65 70 73 74 76 78 78 77 77 80 83 81 74 68 67 67 62 60 69 76 82
48 46 43 45 41 46 43 41 42 45 46 50 55 61 62 63 65 65 66 66 63 61 59 63 71 72 76 79 79 81 80 77 81 83 81 79 76 72 70 66 61 58 63 61
43 44 45 47 42 38 37 37 37 42 45 46 52 57 62 65 68 69 68 66 65 64 66 68 68 69 69 71 73 75 74 76 74 71 70 69 66 68 65 66 65 61 59 59
40 47 48 46 44 45 41 39 40 43 45 45 49 54 60 65 66 69 73 72 72 73 73 72 71 71 67 67 64 61 60 61 60 59 58 56 55 50 52 56 59 58 56 56
48 37 41 32 31 29 32 38 41 42 44 44 47 49 54 60 65 69 72 70 73 74 71 65 60 57 53 52 57 57 56 53 51 48 47 46 40 38 38 40 42 45 44 42
30 31 34 32 29 28 29 29 29 31 32 33 39 48 51 56 60 65 70 73 71 69 66 67 65 60 58 57 55 52 49 47 43 42 40 37 35 32 30 30 31 32 31 33
30 31 30 29 25 26 25 24 25 25 25 25 26 32 40 48 58 65 70 75 77 80 78 74 71 68 64 62 58 53 50 44 37 34 36 35 34 35 32 31 29 28 26 26
40 40 38 34 29 28 29 30 30 29 29 27 27 29 35 39 47 53 60 72 78 81 82 81 76 72 67 62 57 54 51 48 43 39 35 34 34 33 32 30 29 29 28 27

GFSCGP_prec_cthk_096.txt.gz
RH
27 45 56 51 54 58 73 76 74 78 87 95 90 93 95 98 96 73 64 51 54 53 53 52 54 48 46 46 47 46 50 65 61 61 71 67 64 60 58 56 52 54 56 49
25 35 50 59 48 55 65 72 71 76 80 83 93 94 94 93 92 79 71 64 61 59 55 53 52 49 47 48 44 43 45 45 61 63 67 77 72 69 68 66 61 56 50 47
19 25 51 52 48 48 55 63 63 74 81 83 88 89 90 93 95 85 76 74 71 65 57 56 53 52 49 50 46 41 42 42 44 59 68 73 74 76 74 70 68 62 55 56
17 24 37 44 50 48 49 50 65 73 72 84 81 87 80 86 95 88 79 77 76 67 59 57 52 52 52 50 50 47 40 42 38 43 64 78 75 75 74 74 69 65 54 53
21 23 29 33 45 53 53 48 58 62 70 71 79 73 75 84 84 90 83 75 78 73 61 57 52 51 52 51 53 50 45 41 41 35 51 66 74 77 79 74 66 64 56 51
30 27 26 29 39 46 50 49 52 57 63 63 64 62 71 75 72 73 80 79 75 74 73 65 65 64 58 56 56 55 52 43 38 38 39 51 69 73 80 77 75 65 62 55
27 26 28 29 32 40 51 53 54 53 55 49 62 57 56 65 68 65 73 77 79 76 73 68 68 72 69 58 56 56 55 48 44 37 40 39 57 68 74 81 81 73 68 65
30 28 27 23 25 31 46 48 50 58 52 48 47 57 52 57 63 65 69 70 73 77 75 71 73 82 79 72 62 60 68 57 52 44 39 39 41 58 70 83 83 76 77 73
33 31 29 24 24 24 32 48 47 48 52 44 50 46 51 51 57 58 60 66 71 76 75 74 77 81 84 76 76 79 87 85 65 55 50 48 46 46 57 78 78 80 87 83
40 33 30 25 23 24 26 30 47 43 50 45 48 50 47 52 51 59 58 65 69 73 75 75 77 82 80 85 85 84 90 85 76 70 62 63 64 57 49 53 64 74 76 77
42 33 34 26 21 21 23 22 26 38 39 37 41 47 51 51 51 50 55 68 70 75 79 82 82 80 85 86 88 88 90 88 82 80 71 66 73 67 56 53 55 61 68 71
42 42 44 28 28 23 24 23 24 24 40 39 39 47 54 44 46 47 52 67 71 77 80 79 80 83 84 84 86 88 94 90 87 87 81 83 83 77 64 56 53 60 72 79
46 41 48 44 33 25 22 23 28 31 29 40 40 37 50 43 45 50 54 70 74 74 75 78 76 78 81 83 82 87 91 93 93 94 90 88 91 93 85 65 54 51 59 75
49 47 48 40 33 33 34 28 22 27 31 32 38 44 55 52 48 53 56 64 75 76 75 78 80 80 78 78 82 85 86 88 89 92 96 93 93 94 89 85 61 48 49 60
56 52 48 49 47 40 40 34 26 27 29 34 36 40 55 51 51 51 59 64 68 74 75 76 74 75 76 77 80 81 83 82 82 85 86 86 88 88 90 88 84 56 44 53
59 59 50 46 46 44 46 42 36 33 30 33 38 45 43 47 51 53 58 62 63 68 72 72 74 74 77 78 77 78 82 77 76 78 76 83 88 81 87 91 89 76 46 43
62 58 61 56 50 50 45 45 45 43 38 40 35 44 39 40 45 52 55 60 62 64 68 68 68 70 76 77 76 76 78 77 75 75 76 79 84 80 72 81 93 88 71 57
61 62 56 58 57 58 58 50 45 47 44 43 41 42 41 42 46 49 51 59 61 61 63 64 65 66 68 71 73 73 76 79 80 78 79 82 77 76 74 71 78 87 80 76
54 56 57 59 60 58 59 51 49 46 49 45 46 48 50 52 53 57 58 58 59 58 58 61 63 67 65 68 72 72 74 77 78 76 78 77 78 70 67 70 72 66 66 72
49 49 50 47 57 56 58 48 48 46 49 47 48 52 56 58 57 57 61 62 62 61 60 59 61 66 68 70 72 75 78 79 80 81 79 79 81 77 72 69 68 66 63 65
56 53 51 50 47 46 45 40 41 46 59 50 51 52 56 62 66 67 65 65 64 63 61 60 62 63 66 70 75 76 78 82 80 82 80 80 80 77 74 73 71 68 65 59
53 54 51 48 49 51 39 36 39 48 44 42 46 52 56 58 62 68 69 69 67 66 66 65 65 64 63 62 67 70 74 70 76 74 74 73 70 68 65 64 65 64 64 60
45 41 50 42 47 42 35 38 38 39 40 41 42 47 50 55 61 66 70 72 74 75 75 73 72 68 64 62 57 54 56 60 58 59 58 60 55 52 53 53 49 48 54 56
33 33 34 32 30 28 30 28 31 35 38 39 43 47 48 49 55 63 67 71 71 71 74 75 72 66 59 55 57 59 56 54 54 55 55 54 53 52 49 46 43 44 44 45
29 28 27 28 29 27 26 28 26 26 24 24 26 33 38 45 51 55 60 65 70 69 65 63 61 60 59 57 58 56 53 49 48 47 49 48 50 48 43 41 40 39 32 30
36 36 36 32 29 27 29 32 29 30 30 29 26 26 31 36 39 46 53 60 65 69 71 72 73 74 72 68 63 60 60 55 52 50 49 51 47 45 43 38 33 32 31 32

GFSCGP_prec_cthk_099.txt.gz
RH
26 38 53 52 53 69 81 82 93 85 87 86 89 87 93 88 81 73 61 56 57 55 54 57 59 58 53 53 46 58 59 57 64 60 56 61 61 61 60 63 53 54 51 52
22 33 45 57 54 54 64 80 91 92 84 78 86 88 92 97 86 83 67 59 58 57 59 55 56 56 52 51 50 47 67 65 63 66 70 63 66 63 64 64 58 60 53 49
19 23 36 54 57 47 53 67 76 95 90 86 86 94 96 97 93 91 80 66 54 56 58 54 59 54 54 48 45 47 48 62 62 73 76 73 73 76 74 70 61 58 56 54
19 23 29 58 53 46 51 62 69 95 75 86 89 93 91 93 94 93 87 70 63 60 63 58 57 61 57 53 52 45 44 47 51 61 73 71 81 82 78 80 76 67 58 54
16 20 28 41 46 51 55 57 72 88 77 69 76 74 84 83 88 95 78 82 83 59 56 72 57 58 60 56 56 49 43 43 44 47 73 79 80 81 75 80 76 70 56 53
21 24 25 30 34 51 55 49 49 61 63 74 62 58 73 70 79 88 81 90 76 79 70 65 57 60 60 58 59 56 47 43 42 39 46 65 78 76 77 82 82 67 61 54
22 31 29 26 31 42 52 48 51 53 86 57 58 56 58 63 69 80 81 75 81 79 65 80 65 57 55 57 55 59 54 48 42 40 43 50 68 74 81 83 80 81 76 86
23 25 28 22 30 36 40 42 49 54 50 52 60 56 61 53 53 61 69 74 83 76 82 70 64 63 64 69 56 59 58 53 48 44 42 42 48 66 73 78 88 77 64 64
29 29 32 28 27 30 35 44 47 49 47 62 55 59 60 48 54 60 62 63 69 73 74 71 75 67 74 80 72 63 59 65 60 49 43 47 48 47 67 72 79 79 78 92
41 33 34 31 24 24 28 35 45 43 52 56 57 55 52 53 54 57 61 67 66 68 78 76 71 72 74 84 88 79 75 83 88 73 56 53 55 49 48 55 72 69 79 96
47 37 36 34 26 22 22 26 39 39 36 40 50 54 54 56 47 55 63 68 67 72 77 79 75 83 78 84 85 84 82 83 85 87 68 70 62 62 62 54 49 57 62 65
41 45 38 36 31 23 27 25 29 34 43 33 37 61 67 55 62 53 55 60 71 77 78 82 82 82 84 84 82 86 86 85 89 89 89 84 77 72 75 72 55 54 57 62
46 38 38 45 32 30 24 26 21 24 26 29 29 51 56 66 59 52 49 53 63 76 76 79 84 86 87 84 82 79 80 84 89 92 91 86 81 81 86 86 74 62 57 60
47 46 37 43 38 33 28 25 25 24 25 23 36 57 55 59 51 46 43 50 58 71 78 78 81 80 80 81 80 76 77 83 83 86 84 88 91 94 89 91 92 82 73 58
43 45 45 42 46 39 31 23 30 31 30 29 24 39 59 51 50 46 46 53 59 71 78 79 79 79 81 80 78 73 71 75 84 84 88 84 88 84 93 94 94 91 81 69
58 62 51 45 50 39 38 36 34 32 27 27 36 42 71 56 53 53 48 56 62 69 73 78 81 82 80 76 76 80 81 81 80 84 81 79 76 89 86 88 91 91 86 78
58 58 62 59 43 50 47 45 40 36 32 31 36 63 52 59 53 49 48 54 59 62 65 72 73 76 77 78 80 80 80 82 82 79 80 78 77 81 81 73 76 93 94 88
57 78 58 57 52 46 54 51 54 52 50 48 54 54 58 53 46 41 42 50 55 57 59 64 69 71 72 72 74 78 77 79 77 78 78 77 74 75 77 81 78 73 85 88
48 56 67 68 75 68 55 51 50 44 53 46 46 47 46 42 39 41 42 45 50 56 60 60 61 64 67 69 70 71 75 78 80 79 76 78 77 80 75 71 71 74 85 79
48 53 66 54 70 63 68 57 53 48 55 52 45 45 47 44 48 51 50 51 52 54 55 58 58 59 61 65 70 72 71 75 80 79 82 80 77 75 78 75 73 69 69 70
53 49 47 50 48 78 72 59 52 51 66 58 54 54 54 59 59 63 58 57 57 57 56 58 57 54 56 59 63 68 72 76 77 76 80 83 82 80 77 79 76 73 71 72
53 61 56 56 67 59 57 48 46 59 57 60 61 61 60 57 58 64 64 64 67 65 62 61 60 58 58 58 61 62 65 68 71 73 75 75 73 77 77 76 76 74 74 71
52 51 63 56 63 55 49 48 42 44 48 51 52 55 55 51 53 58 64 66 64 66 67 67 63 61 61 63 60 56 55 54 54 56 62 60 69 65 61 65 65 61 60 67
36 42 42 48 45 42 39 38 37 37 40 39 41 47 49 50 48 55 61 64 66 69 70 70 68 68 67 60 54 54 55 55 56 54 53 56 59 61 59 61 64 59 55 54
32 32 30 34 39 37 31 30 30 31 27 29 34 42 47 50 52 53 56 61 65 67 67 68 70 70 67 65 64 62 60 57 55 55 54 53 56 55 57 55 57 57 53 47
36 33 31 34 35 33 31 33 30 29 28 28 26 26 30 34 43 46 52 54 59 61 61 61 65 66 61 60 60 57 54 52 55 55 54 56 58 56 55 54 45 46 45 41

GFSCGP_prec_cthk_102.txt.gz
RH
17 25 39 56 58 60 70 88 87 86 90 81 82 91 89 83 75 64 66 51 52 57 53 56 57 58 55 47 49 53 53 57 49 54 56 59 56 66 52 58 54 50 46 48
18 22 32 49 59 65 66 78 90 91 94 97 88 91 91 84 83 75 61 77 52 54 53 55 58 56 52 45 46 49 58 54 62 52 58 58 66 51 52 51 50 45 45 40
17 20 28 41 55 68 72 66 75 86 84 93 92 94 93 91 88 83 66 58 60 63 48 53 55 52 49 46 42 46 65 58 56 66 64 64 71 64 70 62 58 55 49 39
14 19 25 31 45 57 72 78 78 80 87 97 87 95 94 93 88 83 82 63 90 75 59 55 48 58 49 41 41 43 47 65 58 69 80 74 71 85 77 69 69 62 58 49
14 18 25 28 40 57 65 59 68 78 91 97 89 81 86 92 88 84 78 72 63 74 69 63 53 55 53 42 35 36 36 44 51 59 67 65 70 78 76 70 73 73 64 49
16 17 21 26 37 51 59 66 70 74 87 96 70 71 85 80 75 76 80 77 88 78 67 82 58 59 71 51 40 41 33 37 40 39 59 74 71 75 75 75 83 83 67 49
18 17 25 26 33 39 53 56 70 83 96 82 77 72 81 64 64 65 78 78 73 78 64 67 83 69 57 73 41 36 37 32 34 33 32 50 67 72 76 76 82 72 65 61
23 19 24 24 27 35 46 51 54 72 76 80 80 72 66 58 53 60 80 79 91 81 81 68 70 83 70 54 79 40 56 38 34 31 35 32 41 61 71 81 84 75 78 80
31 27 23 24 25 29 41 39 46 48 60 65 75 77 66 55 54 61 62 65 70 68 77 81 78 86 63 72 74 56 57 47 43 39 32 31 33 38 58 69 70 78 75 68
39 41 27 30 29 27 36 41 36 53 59 66 68 79 76 58 57 59 60 57 59 68 77 78 83 92 75 66 91 88 77 53 59 67 54 35 32 38 40 46 62 77 81 80
38 43 36 30 32 25 23 30 33 36 44 55 59 71 75 64 57 59 61 62 58 64 76 87 77 86 70 74 82 82 83 67 75 79 83 80 54 52 46 43 42 51 61 71
41 44 44 38 34 29 27 27 30 33 38 41 44 53 58 71 72 64 64 64 66 65 66 72 71 96 79 79 80 69 76 76 78 79 75 81 75 76 66 62 67 54 53 54
41 38 42 41 40 32 27 25 26 25 28 35 38 67 62 59 61 65 63 62 63 66 70 68 74 70 81 82 86 79 77 76 76 79 76 81 89 84 85 76 74 84 68 56
45 38 40 38 47 42 31 26 26 25 24 23 27 51 64 56 57 54 53 58 60 60 69 74 75 77 83 86 83 80 76 74 74 77 79 79 83 82 79 84 82 90 86 77
35 39 41 42 43 44 41 31 26 29 22 24 29 50 54 55 54 54 56 50 54 55 60 69 74 78 85 85 82 78 76 72 72 76 78 79 78 77 83 83 85 92 90 87
37 44 50 45 43 42 40 41 29 25 24 24 37 51 58 64 94 70 63 58 52 55 59 65 71 74 77 81 85 79 72 71 70 72 78 86 81 79 78 80 82 86 90 89
48 55 64 54 64 48 46 44 37 26 26 29 56 53 56 50 57 75 71 61 61 60 65 66 69 77 78 80 80 78 77 78 76 79 81 78 82 76 75 79 80 75 79 90
52 49 56 65 67 57 61 48 46 45 33 52 50 56 60 60 76 70 63 56 57 57 64 68 70 72 78 78 77 81 83 79 79 78 80 77 76 74 72 70 75 71 69 87
50 51 63 74 78 68 60 64 61 56 54 60 52 51 69 81 75 68 65 53 46 46 50 60 63 68 72 75 76 78 75 76 78 81 79 77 76 72 71 74 71 70 72 84
58 56 61 73 80 73 77 67 57 56 77 62 66 64 67 62 74 67 59 51 45 40 46 52 59 64 66 69 71 71 71 73 72 74 78 77 75 76 75 76 73 71 70 68
67 59 59 60 85 62 59 60 60 59 73 70 68 61 60 61 62 67 55 49 47 45 48 49 52 56 60 60 62 64 65 66 69 74 73 76 77 78 79 79 75 74 76 73
59 62 57 59 80 77 62 60 59 64 63 67 61 62 55 54 61 59 55 52 52 53 52 52 53 54 58 58 59 58 61 61 65 71 75 75 77 78 78 80 79 78 78 79
50 58 60 56 71 67 67 62 54 55 54 56 60 64 66 60 61 61 55 54 57 59 58 59 57 58 59 63 61 58 56 56 57 61 63 71 71 68 70 70 69 73 74 79
40 39 48 55 63 57 54 48 44 43 42 39 42 51 55 55 55 56 57 56 59 61 62 62 61 62 62 62 59 54 52 52 51 48 48 52 54 52 53 59 66 66 67 67
39 43 33 44 52 46 38 39 36 32 31 33 34 42 48 52 52 54 54 55 53 57 59 62 63 61 59 54 52 52 54 54 55 53 52 51 49 52 56 58 61 64 64 62
31 31 30 33 41 40 38 38 33 31 28 28 28 32 37 42 49 53 55 55 58 54 58 59 60 60 58 57 56 57 57 57 58 58 57 57 56 54 54 53 51 52 57 46

GFSCGP_prec_cthk_105.txt.gz
RH
17 23 28 35 51 55 65 78 83 88 97 95 93 84 81 82 74 64 52 50 64 52 51 56 46 49 51 46 44 49 49 49 50 52 53 58 57 59 58 55 53 54 49 53
17 19 21 34 58 71 70 79 88 89 81 85 94 92 86 86 81 79 75 66 69 52 48 52 48 50 52 44 43 58 51 51 52 53 52 55 52 50 52 52 48 46 46 48
16 15 22 32 56 65 72 77 81 83 88 86 90 98 91 86 86 81 78 69 59 51 55 52 48 54 52 45 37 44 53 57 58 54 57 54 58 50 59 55 52 47 45 41
14 16 22 28 47 55 71 76 80 82 79 87 95 99 96 92 85 84 81 75 66 61 54 47 45 48 48 42 36 40 50 58 58 58 64 65 73 65 75 62 58 52 49 42
14 16 21 27 31 52 77 73 84 77 79 78 91 99 95 92 87 80 78 74 73 58 55 56 53 49 45 41 36 31 44 60 54 63 72 73 70 78 69 68 74 63 53 47
18 16 24 28 31 46 67 81 85 85 85 87 86 93 91 86 69 68 73 79 76 63 68 62 59 53 50 46 41 35 30 41 53 53 66 70 68 74 76 70 86 65 62 48
21 17 20 27 38 56 55 71 89 91 88 84 78 89 88 73 69 63 67 76 72 68 73 72 65 62 58 53 44 42 32 31 38 43 48 73 72 75 82 73 72 73 60 59
33 22 19 27 28 53 54 54 70 79 88 84 81 89 83 70 61 64 72 76 80 65 65 68 76 64 73 57 55 44 39 28 31 37 33 38 55 67 71 78 84 83 68 74
38 34 28 22 24 24 39 48 45 66 71 78 90 88 81 63 60 64 74 76 76 80 79 73 73 76 70 66 65 53 48 47 32 32 31 32 33 42 60 69 74 85 80 73
35 40 36 33 28 28 37 40 44 56 71 78 85 93 90 68 65 65 67 72 74 73 71 69 76 77 71 96 80 78 69 55 43 46 43 38 33 37 42 48 59 68 71 79
38 38 39 36 35 29 35 33 43 47 46 62 80 81 65 70 68 72 65 64 65 71 73 74 76 77 85 95 87 73 74 71 59 69 75 85 64 39 43 45 43 42 62 75
42 42 45 41 33 32 27 30 34 39 38 50 50 77 68 62 62 57 67 69 63 63 68 73 82 83 81 83 79 77 75 81 84 84 91 92 82 78 68 57 52 53 46 45
43 45 50 44 40 38 32 26 25 27 26 33 44 69 64 56 56 52 53 65 63 67 78 73 77 76 76 73 76 83 79 85 88 83 88 89 90 88 83 78 69 66 60 58
47 44 48 55 50 47 44 32 26 24 23 25 33 53 56 52 48 59 72 74 74 67 71 76 77 71 67 77 80 78 83 80 79 76 79 82 84 84 84 86 83 80 73 78
41 45 44 51 48 50 43 40 31 27 23 26 44 52 57 55 55 65 76 78 82 78 74 68 75 78 73 91 94 88 84 79 76 77 74 79 83 81 85 87 84 76 77 82
37 45 49 48 52 52 50 45 42 32 22 42 52 67 71 65 59 66 70 69 69 81 78 76 82 93 99 89 89 87 85 81 76 75 73 77 79 77 78 81 80 78 78 83
43 47 55 56 53 52 59 58 55 51 43 37 53 60 65 60 53 54 57 57 60 65 72 73 74 75 82 86 89 89 88 79 71 70 73 73 75 78 84 82 81 77 72 70
54 53 51 60 58 63 67 63 63 61 56 53 52 48 42 44 45 42 54 58 63 63 63 64 66 74 75 80 85 88 84 78 78 77 77 77 75 75 72 73 73 74 71 64
51 57 60 62 65 62 65 66 61 59 62 57 63 64 61 51 51 54 58 57 56 56 61 61 62 64 69 71 75 82 83 84 83 81 81 81 79 75 71 70 69 69 69 71
58 66 65 68 79 78 82 66 63 57 71 68 72 86 78 75 61 67 65 61 56 54 53 49 55 60 65 70 71 73 78 79 75 74 77 76 76 75 76 73 69 71 70 70
67 66 70 69 75 71 66 59 62 72 72 68 77 79 85 92 90 79 71 66 60 52 47 46 49 50 53 59 65 67 68 67 67 69 71 70 72 73 75 74 74 75 75 71
74 82 83 74 76 68 58 56 58 62 63 69 73 69 76 73 78 75 75 74 64 56 48 49 48 48 52 55 58 59 63 64 61 59 63 66 68 72 72 75 75 74 75 75
56 69 73 69 79 62 64 64 57 56 61 60 67 67 91 75 79 71 65 55 53 53 50 54 54 52 51 52 52 57 58 59 60 58 59 62 65 66 67 69 73 73 74 75
48 42 56 59 57 55 53 56 50 48 42 48 52 57 62 68 71 61 59 57 58 55 53 54 55 55 56 55 54 56 57 58 57 54 51 53 54 56 57 56 57 57 59 61
37 38 36 50 50 45 43 39 36 37 33 30 35 44 57 56 60 59 50 52 53 52 52 55 57 57 56 54 52 51 51 52 52 50 48 49 49 48 48 49 52 54 56 57
36 35 31 37 40 37 35 32 29 27 23 22 23 29 40 44 43 43 46 43 41 48 50 50 49 51 48 46 48 50 50 50 51 50 49 48 47 46 45 42 44 44 45 45

GFSCGP_prec_cthk_108.txt.gz
RH
20 20 23 27 35 54 66 78 89 96 91 87 97 97 90 84 78 65 49 55 70 65 54 57 52 52 47 48 40 43 42 47 52 58 63 64 53 54 55 54 51 49 54 51
20 20 19 27 46 56 70 79 91 89 88 83 88 94 92 90 86 77 73 54 52 62 54 50 50 48 48 49 47 46 48 46 49 51 55 62 56 56 55 57 49 49 45 53
19 15 19 30 43 62 72 80 87 85 89 87 90 95 92 91 90 82 81 74 63 59 57 50 48 47 48 47 46 48 50 54 56 52 52 50 51 49 53 47 44 42 43 48
16 18 20 30 40 59 73 73 73 86 82 83 85 90 93 94 92 84 80 77 76 69 63 51 54 47 49 46 39 44 51 54 56 54 58 53 55 58 61 58 53 47 47 46
18 20 26 30 33 45 69 67 68 80 86 87 87 87 87 96 91 83 82 82 79 68 58 53 51 49 49 46 38 35 48 58 60 60 70 71 73 73 70 65 59 55 50 46
20 24 22 26 33 47 56 63 70 80 87 90 83 79 90 95 88 83 82 82 80 79 69 59 50 53 50 47 41 34 37 60 56 58 70 77 74 78 76 68 75 60 52 45
22 22 30 38 55 65 68 60 79 87 89 87 88 87 83 86 85 82 84 85 84 83 79 61 59 53 49 47 42 41 33 36 52 52 63 72 70 74 77 75 76 68 67 54
27 26 27 38 45 52 60 56 66 75 89 86 92 91 76 76 77 75 73 80 83 82 80 68 64 56 48 50 51 46 37 33 35 40 46 58 77 71 75 75 74 75 68 68
33 27 31 32 38 46 56 52 56 69 73 80 87 83 71 65 70 64 67 72 80 83 83 78 78 66 60 54 50 49 42 36 30 31 33 33 40 50 58 65 75 81 77 73
36 33 30 32 30 37 34 36 53 61 73 80 86 83 79 64 63 65 71 75 75 85 86 79 70 72 75 67 55 57 50 50 44 35 31 28 29 35 39 47 60 70 76 75
44 34 37 37 32 28 30 33 39 47 55 68 83 77 58 53 52 60 68 75 79 82 82 70 74 71 70 72 63 68 69 65 56 43 47 46 48 47 37 41 44 50 61 70
49 44 46 42 42 27 30 33 42 45 42 56 61 63 47 48 49 57 61 70 75 74 78 82 75 74 78 79 77 77 84 79 69 59 68 78 86 76 58 41 42 43 41 45
45 44 51 47 46 39 38 37 38 39 38 42 45 54 41 48 49 52 58 68 75 78 81 82 83 80 80 81 80 81 86 88 88 83 92 96 93 88 84 78 66 63 59 58
48 46 51 57 56 47 43 41 41 38 35 34 36 38 47 48 52 52 57 63 73 75 78 80 80 80 79 82 83 87 87 85 89 89 94 94 93 93 89 87 88 87 84 79
53 49 49 52 57 51 51 49 44 42 32 27 29 41 49 50 49 54 55 63 73 76 75 77 83 82 82 84 85 85 87 89 87 87 90 85 84 84 87 90 90 93 91 87
52 58 55 58 55 56 58 56 53 50 43 42 40 43 47 53 50 55 52 60 68 67 68 70 74 80 88 82 84 85 89 88 90 87 88 83 80 79 81 85 91 93 90 87
53 54 61 61 64 61 72 66 61 56 52 48 44 46 47 52 57 60 64 62 67 68 74 75 74 78 82 88 88 82 79 91 92 86 84 78 77 81 82 83 85 85 83 81
49 52 56 61 57 69 66 68 60 58 56 56 52 56 62 65 63 64 60 59 60 67 64 69 75 78 81 79 85 91 99 90 89 83 82 79 78 81 78 76 75 77 77 76
46 54 60 57 64 62 61 59 60 60 60 62 63 60 62 65 67 73 67 66 74 71 72 74 75 76 79 83 86 86 90 93 90 80 79 78 80 81 79 75 71 70 72 75
52 53 56 62 56 59 64 57 62 66 70 63 65 67 61 59 63 75 75 76 70 67 71 72 75 75 76 79 85 86 86 85 89 86 82 83 82 81 82 79 77 72 70 70
61 63 66 68 61 53 55 64 59 69 69 69 69 69 72 82 85 85 82 81 76 66 63 64 67 72 76 75 75 81 82 84 85 83 82 78 78 79 78 77 78 78 75 76
73 77 85 74 63 54 50 52 61 67 73 71 66 69 70 71 81 84 81 82 73 67 66 63 61 58 59 63 65 69 73 75 77 75 73 70 69 69 69 71 71 72 75 74
63 66 78 79 73 58 58 56 59 65 71 69 66 68 69 64 67 70 76 79 70 68 68 65 60 57 55 53 56 63 66 69 71 69 67 64 62 65 68 69 69 68 71 72
50 50 53 52 58 60 58 54 62 63 60 59 62 58 58 62 68 72 65 60 57 57 55 59 58 58 59 56 55 57 59 61 61 61 62 61 63 67 65 65 62 62 67 70
37 35 41 41 46 48 46 47 47 48 49 51 57 56 49 59 71 61 45 44 42 46 51 54 55 56 54 53 53 52 51 51 51 50 49 51 53 53 52 50 49 49 49 51
32 30 31 35 34 32 31 31 30 30 27 29 35 48 50 46 45 50 51 50 45 37 36 45 49 51 46 46 43 44 46 48 50 50 48 47 48 49 49 47 47 47 47 50

GFSCGP_prec_cthk_111.txt.gz
RH
22 22 23 23 27 38 61 70 85 93 91 93 92 94 93 86 85 80 67 66 51 53 57 53 61 55 48 48 43 44 47 49 58 59 58 53 51 50 50 53 50 54 51 50
23 21 20 24 30 39 60 77 84 91 92 92 93 94 98 96 90 82 71 56 53 57 59 56 56 56 53 50 45 43 43 48 54 59 58 61 52 57 61 56 50 60 57 52
24 19 20 24 29 51 67 74 78 78 88 87 87 92 96 97 93 85 79 73 63 55 57 57 53 54 52 53 48 46 43 42 48 51 58 59 56 55 56 54 50 45 47 53
22 19 19 22 28 48 68 72 73 76 82 87 85 87 94 97 95 86 85 82 78 67 61 59 53 53 52 55 49 48 51 47 51 50 51 49 49 55 54 57 47 45 46 50
22 22 22 25 30 45 59 67 73 73 78 84 87 90 83 91 96 86 87 85 82 76 58 58 56 53 53 55 44 46 52 53 52 53 51 54 51 67 61 60 55 48 46 44
23 23 25 31 38 38 50 65 71 72 75 83 83 85 78 83 77 83 89 88 85 77 76 69 62 57 54 53 47 38 48 55 56 56 65 68 72 70 70 70 68 61 52 45
25 27 38 38 48 53 54 67 74 68 79 84 84 86 75 70 74 80 86 88 87 81 84 72 62 57 56 51 45 40 35 48 57 53 60 66 72 75 78 75 77 68 62 50
29 29 43 41 48 53 65 60 63 65 81 83 86 88 78 73 80 85 87 89 88 85 84 76 63 58 55 52 46 42 38 33 49 53 52 67 68 71 74 80 74 74 71 63
35 36 32 41 47 48 66 63 57 69 77 78 77 75 72 70 79 87 86 86 90 87 85 80 74 63 55 52 46 45 44 34 31 37 41 46 67 75 73 77 78 79 83 77
39 37 33 35 41 46 51 52 58 66 76 83 76 77 75 71 71 73 73 76 80 89 86 84 78 70 64 54 53 48 46 44 39 34 35 35 35 43 52 62 69 79 80 82
44 37 35 37 37 41 39 49 47 52 59 73 76 66 56 55 56 64 66 70 72 74 80 85 86 79 74 65 61 57 47 46 51 47 37 37 35 34 35 40 50 62 69 73
48 47 44 38 42 37 36 42 44 45 41 57 61 54 51 52 53 57 62 70 75 78 80 83 86 81 78 76 73 69 58 57 60 54 45 45 45 50 54 43 42 45 49 55
48 50 48 43 44 42 43 44 35 36 40 43 45 40 47 47 49 56 60 68 74 80 80 84 85 85 70 78 76 69 71 77 80 75 68 67 71 79 89 69 48 44 46 45
50 54 52 57 54 52 53 53 44 37 42 34 32 28 35 47 49 52 54 62 71 75 82 83 87 82 78 80 82 84 83 85 85 87 81 77 85 88 95 94 83 77 75 68
50 54 54 53 61 58 59 57 53 47 53 31 28 28 40 47 54 54 54 60 62 70 72 79 83 76 82 83 88 88 86 86 88 90 87 89 92 93 94 92 95 94 92 88
53 54 58 59 61 63 63 56 53 53 58 51 52 49 54 53 55 61 60 61 66 69 69 72 68 75 80 82 83 87 85 87 90 89 90 91 92 94 91 93 92 93 96 96
61 58 60 64 61 62 60 63 57 57 61 61 56 56 55 60 61 64 68 68 75 78 76 71 72 67 73 80 89 88 90 90 90 90 92 95 96 92 87 87 88 91 94 93
59 58 64 67 65 67 63 59 58 57 61 64 60 58 56 64 69 67 69 72 76 80 81 81 79 82 81 86 82 87 91 91 93 92 94 88 90 92 91 88 85 85 88 85
53 56 64 60 72 66 63 60 58 59 59 65 62 61 65 71 70 72 74 67 68 74 77 75 76 78 84 85 86 84 86 85 85 94 88 87 88 86 86 89 85 77 80 79
59 59 58 65 58 66 58 56 55 60 68 67 69 67 67 70 82 87 78 70 63 64 71 73 76 76 79 79 86 87 92 91 92 85 88 88 89 87 87 84 83 82 81 74
69 66 67 68 63 55 52 53 54 60 64 67 73 75 74 71 77 75 77 71 64 62 67 73 77 79 80 83 86 89 92 94 98 98 97 96 91 92 88 86 86 89 88 84
71 70 73 72 59 50 48 53 53 57 63 65 71 71 70 71 75 71 71 74 70 65 64 67 69 71 75 77 79 84 89 93 95 98 98 97 92 89 83 83 82 82 82 80
66 54 70 73 66 53 49 50 51 54 60 61 67 70 66 67 68 70 68 70 80 75 67 65 66 63 63 65 65 67 67 72 78 83 87 86 84 83 74 74 73 68 70 70
50 44 53 57 63 62 58 60 59 59 56 60 61 61 61 62 60 63 65 62 65 70 73 72 69 66 64 63 63 62 66 67 69 70 71 71 74 71 72 70 68 65 64 66
42 39 43 43 58 68 63 61 59 55 60 60 60 60 59 66 68 66 62 52 50 52 59 62 64 67 63 60 58 58 58 58 57 58 59 61 62 62 62 60 59 60 59 58
33 33 36 30 44 56 52 48 44 39 37 41 45 48 50 53 53 54 57 54 47 42 41 47 49 48 48 48 49 48 48 47 48 48 48 47 49 50 50 50 50 49 48 50

GFSCGP_prec_cthk_114.txt.gz
RH
18 23 24 28 30 34 47 59 67 71 84 85 88 94 96 90 83 81 75 65 61 54 54 52 57 55 51 47 41 44 51 53 54 52 48 47 48 52 54 53 51 51 53 56
22 23 24 27 30 33 48 64 72 69 76 79 86 90 95 92 86 83 75 65 67 58 57 53 58 57 52 48 45 43 50 52 56 54 51 49 49 52 56 60 61 62 56 55
24 24 24 27 34 38 48 63 74 69 74 80 82 85 88 93 86 87 81 73 58 55 56 55 55 56 54 50 47 43 46 48 54 56 57 55 52 57 56 53 55 61 62 56
23 24 23 24 25 34 43 57 67 68 70 77 80 85 88 88 88 92 89 77 61 57 62 60 57 55 54 56 49 48 46 46 47 51 55 53 51 48 50 50 47 47 54 58
21 21 23 23 23 32 38 60 67 74 74 77 84 84 80 85 90 86 89 82 66 64 59 56 54 54 52 55 51 48 53 48 51 49 49 46 47 50 53 51 45 47 45 51
21 22 24 24 33 33 43 57 64 74 78 81 79 84 84 83 79 83 89 83 77 73 70 60 61 60 56 55 50 48 49 54 53 58 51 57 52 61 59 58 56 51 47 46
26 26 33 35 47 46 47 51 70 74 80 78 77 81 72 74 75 80 85 83 80 78 67 58 66 63 58 53 51 42 50 56 57 57 66 68 71 69 71 70 69 65 57 48
34 30 39 39 48 54 56 50 62 64 76 74 78 77 71 66 64 70 76 81 81 82 75 69 66 65 60 57 51 45 38 49 59 57 62 69 72 74 76 77 76 73 68 64
35 31 33 45 50 55 61 60 57 72 72 78 74 66 61 68 72 72 75 83 84 83 78 79 78 67 62 57 51 45 44 36 48 60 60 65 72 74 74 76 80 77 74 71
38 36 32 38 46 54 54 62 68 74 74 75 68 68 67 70 71 84 82 80 84 83 80 80 81 74 62 59 54 49 45 43 34 37 50 53 58 72 77 74 79 80 85 89
42 42 37 37 42 53 48 55 62 65 69 74 67 59 52 59 62 72 75 76 79 84 80 79 81 76 71 62 59 51 45 45 42 39 36 39 42 45 57 63 65 70 80 84
43 48 47 42 42 43 46 47 51 61 48 60 62 61 57 52 58 62 65 68 71 74 77 80 84 78 78 73 63 57 55 45 46 53 51 40 36 36 35 34 42 58 66 66
43 49 53 47 47 47 48 44 38 41 42 53 54 50 50 55 56 61 63 64 68 73 79 77 84 85 84 80 74 68 67 67 54 58 59 53 42 39 39 41 40 40 53 51
42 50 51 58 58 58 58 52 48 34 35 40 48 42 51 52 55 61 61 59 66 75 82 83 84 86 85 86 82 79 78 73 69 66 72 73 69 59 63 67 76 61 50 56
37 45 53 58 66 62 76 59 53 45 53 41 53 57 59 62 56 60 60 61 68 74 84 89 88 88 90 90 82 79 86 82 82 82 86 87 92 85 73 78 86 88 70 77
53 49 55 65 59 64 64 60 57 59 61 63 62 64 61 64 65 66 63 64 71 74 75 79 89 90 87 84 83 81 87 92 88 88 89 93 93 90 82 87 88 96 94 96
63 65 63 62 68 60 63 66 64 62 64 65 66 64 64 66 69 68 71 68 70 78 80 82 78 81 84 86 87 91 92 92 94 94 98 95 94 91 90 91 94 95 95 97
57 69 70 66 68 76 66 68 63 60 59 68 65 65 71 73 77 75 73 68 71 81 85 85 84 79 79 82 84 83 89 92 97 95 95 95 96 96 92 94 90 92 93 95
52 62 67 70 74 69 69 66 65 61 59 63 67 66 73 75 70 70 73 71 74 79 85 87 89 86 83 83 84 91 89 93 95 98 95 95 90 87 90 91 94 93 88 89
54 60 61 66 66 69 59 59 57 65 67 65 68 69 73 69 71 74 69 66 68 68 69 70 76 79 81 80 89 89 86 91 90 92 96 98 88 87 91 96 98 97 89 84
59 67 64 65 62 59 54 58 60 72 65 72 73 74 76 72 69 72 75 71 65 64 65 67 69 75 76 77 80 85 90 91 93 94 92 95 88 90 97 98 97 97 93 89
65 65 67 68 63 52 52 53 60 64 70 71 72 71 77 77 76 75 70 71 69 65 62 68 70 73 79 78 81 86 87 89 90 93 92 91 92 99 98 96 92 91 92 88
67 56 64 69 68 58 55 53 53 63 63 63 64 68 69 71 76 72 67 66 68 70 70 64 67 72 72 79 81 81 83 87 87 90 88 93 96 91 89 91 89 85 84 79
52 45 59 62 66 65 59 57 61 64 59 59 61 60 63 69 70 70 65 60 65 69 75 69 71 68 67 68 68 68 69 70 68 74 78 85 94 91 89 87 84 82 80 76
39 37 39 42 58 67 65 66 68 67 65 60 56 55 58 64 64 64 61 57 59 60 61 66 67 68 69 67 68 68 65 63 63 62 63 64 65 69 70 72 76 72 72 69
35 34 35 37 40 61 62 60 57 50 50 63 65 62 61 68 66 64 60 56 46 41 44 53 57 56 59 61 59 59 59 53 50 48 47 49 50 51 52 53 54 54 54 53

GFSCGP_prec_cthk_117.txt.gz
RH
15 20 25 27 30 33 35 44 51 68 71 71 80 84 87 91 87 80 72 73 58 50 48 47 49 48 47 45 47 50 50 50 53 51 49 50 56 52 51 50 57 59 61 60
16 22 23 26 27 34 37 41 54 66 70 65 75 76 81 88 91 82 81 85 67 58 54 48 50 52 48 46 44 48 53 52 51 53 50 47 50 54 53 50 50 51 55 56
18 19 22 25 29 33 37 35 53 60 67 68 68 69 78 90 92 88 80 84 66 59 55 51 51 53 49 46 44 44 51 57 55 54 52 51 54 59 56 59 61 55 53 56
20 21 22 22 22 27 30 34 54 68 66 64 68 67 73 77 84 85 80 75 65 58 56 55 53 53 48 48 46 43 48 55 58 58 60 62 56 56 57 59 58 57 55 49
20 19 22 21 21 23 25 38 56 64 67 68 67 75 62 69 82 83 74 73 70 57 52 55 53 51 51 51 48 45 45 51 51 57 58 61 58 54 52 51 51 49 53 52
21 21 20 20 29 26 35 43 58 66 67 67 62 69 58 66 64 71 74 74 70 63 53 57 57 56 53 52 51 48 49 50 51 52 55 52 58 56 55 54 50 49 53 51
22 22 26 28 35 41 39 41 52 60 64 57 70 76 57 56 56 60 65 71 69 59 51 56 56 54 51 48 51 47 49 53 54 53 51 54 58 64 62 64 62 59 53 51
27 25 31 33 34 37 42 41 38 45 49 59 69 70 55 54 54 58 72 76 76 65 59 57 58 54 54 50 48 46 46 52 56 56 61 66 67 69 69 73 70 73 61 55
29 28 28 38 41 43 52 49 42 50 59 61 63 61 54 60 62 65 70 80 77 74 69 67 57 55 57 53 50 46 39 48 58 57 59 68 70 73 74 76 75 74 71 69
33 35 31 35 44 48 51 52 60 58 58 54 54 65 61 61 65 72 70 75 76 75 73 71 64 67 64 55 52 49 44 36 42 61 60 63 71 72 74 76 76 77 75 72
36 37 39 36 42 46 53 51 54 61 61 57 56 52 58 57 62 68 76 74 76 76 77 77 75 76 75 63 56 51 47 43 38 39 53 57 60 62 70 77 75 77 77 81
40 38 40 41 39 41 49 50 48 55 62 58 59 50 58 54 58 68 72 77 76 76 81 82 83 81 83 77 59 55 49 45 44 41 37 37 42 44 48 54 68 67 66 73
31 40 40 43 47 46 48 53 49 47 53 53 47 47 52 53 62 67 76 77 76 77 83 88 88 86 83 79 70 65 57 55 50 47 51 51 45 39 39 38 36 34 40 52
23 26 39 46 55 57 57 57 58 52 42 40 37 40 47 55 58 61 71 75 78 78 80 81 85 88 88 87 77 74 68 60 63 58 54 58 59 53 45 45 42 43 41 40
29 29 31 46 56 60 59 59 60 56 53 39 37 45 60 62 61 61 67 69 77 78 81 86 88 88 90 84 85 81 77 75 68 69 64 58 65 67 64 64 59 59 68 68
37 37 45 46 58 56 60 61 66 68 68 59 52 49 63 65 67 64 67 73 71 73 78 89 91 87 85 84 85 86 82 81 90 77 76 73 77 87 89 89 92 83 76 77
42 50 58 56 52 58 67 61 65 68 68 63 56 60 66 66 67 68 69 73 71 70 78 82 83 93 92 93 91 91 89 89 86 90 92 88 94 94 94 93 92 90 86 86
41 49 62 62 65 67 55 63 65 67 65 62 61 63 69 72 73 73 77 77 74 72 72 82 81 86 93 96 95 94 93 93 90 93 95 96 95 97 98 96 94 91 92 93
41 50 60 67 70 64 61 64 62 62 58 61 65 71 66 70 73 78 78 77 75 73 79 86 86 80 85 86 87 90 91 92 91 91 93 94 99 98 99 98 99 91 90 91
47 51 57 63 63 61 57 63 64 58 57 60 66 75 74 80 72 72 68 66 70 76 74 78 79 77 79 85 86 88 90 91 91 92 95 97 99 99 97 93 92 92 94 94
57 61 61 65 64 55 55 59 56 59 56 63 69 80 83 83 76 68 66 67 71 72 72 71 73 73 75 78 84 87 86 93 92 92 94 95 97 97 96 94 94 97 98 99
59 68 70 62 59 55 50 54 57 54 60 70 73 83 83 87 83 77 72 70 73 75 71 72 73 75 72 75 79 79 83 88 94 95 97 99 94 97 96 97 97 99 94 97
71 61 60 64 62 57 54 51 54 62 70 71 75 76 85 91 86 83 78 73 71 68 68 66 67 72 75 77 78 80 84 87 91 93 95 95 92 89 92 91 91 91 95 93
61 53 52 59 60 65 57 55 60 66 70 71 72 76 80 79 76 74 72 74 70 70 70 68 69 68 71 77 78 80 81 83 85 86 83 80 80 81 85 85 95 93 96 97
49 41 42 41 54 64 67 68 63 64 63 65 64 63 67 70 68 66 63 62 65 68 68 68 69 68 66 68 69 68 66 66 69 72 72 71 72 74 83 89 92 88 92 85
39 36 34 33 43 63 64 63 63 64 69 67 62 62 63 59 62 62 57 52 52 48 51 52 57 57 57 58 57 53 52 53 54 54 54 53 55 59 59 61 64 69 68 70

GFSCGP_prec_cthk_120.txt.gz
RH
13 16 20 28 30 30 33 36 39 48 64 63 60 73 83 85 82 77 67 64 56 56 54 51 51 52 46 47 45 45 48 53 58 53 58 59 60 63 62 60 53 59 59 51
14 16 22 28 23 27 32 34 39 47 58 58 56 58 68 77 82 84 73 66 58 55 54 52 51 51 51 45 47 47 49 50 53 55 54 60 58 60 62 59 59 55 58 54
15 21 24 22 22 23 30 31 40 44 57 60 54 50 54 67 73 84 79 72 65 56 54 50 51 52 50 47 44 47 50 53 48 54 54 53 61 58 57 59 59 55 54 52
19 21 19 20 23 26 26 30 31 45 57 58 55 48 51 55 69 79 85 76 74 71 55 55 50 52 51 50 48 45 50 55 58 49 55 57 63 64 63 64 64 61 58 56
21 18 17 20 20 20 26 29 35 45 51 59 59 56 42 52 62 70 79 79 75 73 54 54 51 52 54 52 49 43 46 51 55 47 56 63 59 61 64 66 62 58 57 52
21 17 18 19 22 19 26 31 40 47 51 52 50 56 45 51 49 58 67 75 73 75 55 51 52 54 56 54 52 47 42 46 50 50 62 60 59 61 58 57 57 59 58 50
19 19 19 18 25 24 30 35 43 45 49 44 56 52 51 55 53 52 63 76 74 66 65 54 52 54 53 53 54 49 43 42 45 47 56 58 56 57 57 58 55 58 57 56
25 27 22 23 28 37 33 36 38 44 36 41 57 48 56 54 54 54 60 73 73 74 75 60 53 52 54 52 54 52 45 47 46 47 51 56 59 61 63 62 68 68 61 56
27 27 26 30 34 34 45 40 37 42 40 47 44 45 54 59 61 63 57 63 69 72 73 64 54 54 54 53 50 52 47 48 52 50 50 50 58 66 71 72 74 74 74 66
32 30 32 35 38 40 44 61 46 39 50 47 40 49 58 60 63 68 67 67 72 73 74 65 57 56 53 56 53 52 51 46 51 54 56 59 63 65 70 71 74 72 71 70
34 30 47 32 37 44 47 43 46 51 53 50 55 49 52 49 57 67 71 72 76 82 79 75 68 69 63 61 60 54 51 46 45 56 59 56 63 69 69 73 74 74 76 72
34 34 42 41 48 35 38 52 50 50 46 50 45 68 54 49 58 67 73 78 80 84 84 82 79 74 62 64 64 58 54 52 41 39 47 60 60 59 64 65 72 75 76 77
30 28 37 39 41 35 38 49 47 49 53 76 56 52 51 56 54 65 69 76 81 81 83 84 82 77 67 75 74 67 58 54 51 45 39 39 43 43 44 45 49 56 66 65
19 16 23 33 44 61 64 50 47 47 48 44 45 46 53 55 59 59 68 73 79 82 81 82 84 82 76 83 84 80 69 62 56 54 48 47 48 45 42 40 39 37 34 33
23 26 28 28 31 52 64 65 56 53 54 52 41 51 50 54 64 67 66 76 77 82 80 85 81 84 83 84 85 88 83 70 66 63 56 50 52 57 58 58 51 45 44 43
30 35 33 32 37 40 51 57 63 59 57 55 52 46 50 51 62 70 65 74 75 79 79 85 91 88 89 88 89 88 86 82 77 70 66 69 64 60 65 69 74 70 68 64
32 40 47 50 49 54 51 51 57 56 54 54 55 59 49 58 62 68 68 73 74 79 80 84 90 97 94 91 93 92 94 91 86 76 78 77 79 80 77 78 88 91 91 92
36 39 40 49 54 76 52 56 51 51 52 57 54 54 55 63 66 69 70 84 85 84 86 85 90 90 91 93 96 99 97 90 86 85 89 91 89 89 95 90 94 95 97 97
31 40 50 57 66 58 60 55 49 50 48 53 57 61 64 64 69 74 76 87 86 81 82 86 78 88 87 94 97 96 96 93 93 92 93 91 88 88 92 95 95 96 96 98
31 36 48 58 74 67 73 68 58 56 58 56 64 71 72 69 65 71 71 83 83 79 85 84 81 82 86 88 91 90 89 90 91 87 88 90 92 94 95 98 99 99 99 99
50 49 55 62 68 62 55 57 64 64 69 65 69 73 75 75 71 73 75 79 77 77 77 80 79 76 79 83 90 90 95 91 93 95 95 94 96 96 99 99 97 97 99 99
50 59 63 60 67 67 50 51 62 70 67 64 72 74 77 82 70 72 78 81 81 78 77 77 74 72 75 80 84 89 92 94 96 95 97 94 94 96 93 96 99 99 99 98
61 59 68 52 67 64 56 53 56 62 68 79 78 81 81 79 79 80 81 85 83 77 72 72 73 75 75 79 78 78 84 87 91 91 95 99 98 94 87 91 94 91 94 90
53 54 50 48 58 59 62 57 58 68 76 77 75 80 81 73 68 78 81 81 79 76 73 70 66 68 74 77 77 82 84 85 87 89 87 88 88 84 77 70 80 85 86 93
55 47 37 36 37 59 62 60 63 68 73 76 77 78 77 77 74 73 75 73 69 71 75 73 71 72 71 73 73 74 78 80 80 76 77 76 76 77 74 71 73 80 85 91
39 42 38 46 38 66 68 68 70 70 70 73 73 67 68 66 67 66 66 60 54 55 63 68 64 65 62 59 56 55 55 56 56 58 59 61 65 66 68 73 77 79 80 82

GFSCGP_prec_cthk_123.txt.gz
RH
11 13 19 24 32 36 37 47 41 56 45 55 59 58 70 74 76 78 75 63 51 56 55 59 56 54 51 48 46 48 53 51 57 59 61 68 65 68 64 68 64 58 56 57
14 14 18 23 31 32 31 34 39 53 41 46 50 49 50 63 70 73 89 69 59 54 55 59 55 53 51 49 47 45 50 51 56 57 60 69 64 64 74 60 53 64 61 58
16 19 20 27 24 22 28 32 44 49 54 47 44 43 48 45 58 68 74 80 64 54 58 57 56 55 54 51 49 49 47 49 54 57 57 60 63 71 60 61 60 58 60 59
17 21 23 23 22 23 26 30 32 38 45 56 75 53 70 49 50 54 63 69 76 62 54 57 56 57 52 51 49 50 48 49 47 54 58 52 58 63 61 67 62 61 58 58
21 22 18 19 22 23 24 29 30 34 43 49 54 56 40 52 46 53 55 65 85 70 68 60 55 57 60 53 50 49 49 49 53 45 66 55 56 71 68 61 65 61 58 60
23 21 19 20 21 18 21 24 28 39 48 52 42 49 47 55 61 49 52 65 72 74 73 73 63 59 58 55 51 51 48 51 56 51 60 58 53 72 61 64 64 59 59 55
18 18 15 15 18 25 18 26 38 44 42 39 42 50 43 51 67 50 50 55 68 79 75 72 68 59 54 57 52 53 47 48 56 55 55 61 61 54 61 59 58 62 60 53
26 29 21 18 16 30 26 27 35 41 34 56 56 46 45 47 48 49 49 57 66 75 74 75 64 58 59 55 55 56 48 45 49 53 57 63 59 55 53 57 53 55 58 55
32 28 25 28 26 26 40 35 33 35 31 29 39 45 40 42 56 55 57 60 63 75 76 84 61 60 65 53 57 58 56 46 46 51 49 56 58 55 55 63 57 61 62 59
34 31 32 28 27 35 34 53 44 36 39 40 34 40 48 45 48 55 64 67 65 77 77 78 68 68 62 57 61 58 61 51 48 53 55 55 54 57 65 70 70 70 72 74
32 30 42 35 34 39 42 37 49 54 52 48 40 51 67 59 48 56 69 64 73 66 74 78 85 76 68 58 60 56 59 58 50 52 58 59 59 63 64 70 68 74 75 70
35 29 37 36 43 38 42 50 47 39 46 52 52 61 53 54 49 65 72 64 72 77 70 74 76 86 63 61 63 60 58 57 52 50 57 58 61 65 69 71 71 75 77 78
32 30 29 33 30 36 38 31 37 47 48 57 54 54 57 64 57 53 70 78 70 74 77 81 84 81 70 67 65 66 63 58 55 45 47 59 62 61 62 66 68 69 74 73
18 16 21 24 31 39 48 44 46 53 45 49 48 46 57 53 62 52 57 72 78 79 88 88 86 90 73 82 81 73 69 66 59 57 45 39 45 55 59 55 52 50 52 56
20 25 26 22 20 30 32 52 58 63 56 42 49 52 58 58 56 49 57 67 74 78 82 92 88 86 91 92 84 76 76 74 68 61 55 50 44 46 48 48 48 47 49 45
28 32 27 30 30 30 31 33 52 63 58 50 46 55 73 82 55 45 54 70 76 85 80 83 82 79 84 86 86 75 82 92 80 68 60 60 54 52 57 62 65 65 65 63
38 36 46 47 41 47 44 37 38 49 47 52 54 49 62 82 58 52 58 69 80 85 83 83 90 89 86 85 87 88 85 91 93 91 81 69 68 60 57 63 66 72 75 81
31 39 37 35 40 50 48 38 47 58 41 52 69 58 68 56 58 60 60 69 78 91 87 86 90 95 97 95 92 93 92 93 95 95 91 84 79 79 79 76 80 81 83 85
31 36 40 53 53 53 50 58 65 62 47 46 53 65 57 56 62 60 62 68 78 92 89 91 87 93 92 98 99 97 97 95 94 98 96 91 87 81 81 84 90 88 95 92
28 37 33 45 56 71 65 59 57 79 56 47 48 46 50 56 60 69 64 70 77 73 94 85 82 89 86 89 90 95 98 98 99 98 97 94 88 87 86 89 93 93 92 94
47 41 45 51 53 57 61 69 59 61 69 60 56 51 61 66 70 79 76 73 71 66 89 90 85 86 90 89 92 89 86 90 94 93 96 92 90 92 88 91 98 98 99 98
48 54 60 58 66 68 59 52 47 70 76 86 82 76 66 74 77 78 80 79 76 74 84 87 83 84 85 89 88 94 96 96 96 94 94 93 95 91 90 94 97 98 99 99
48 57 74 64 70 59 59 49 55 55 70 74 73 76 83 81 79 84 78 75 74 77 79 78 80 78 80 86 88 90 95 95 90 95 96 97 98 96 93 89 84 90 95 94
51 52 45 53 57 56 52 58 53 57 76 75 77 83 82 84 80 82 84 80 80 82 78 75 75 78 78 81 81 83 89 91 91 94 95 98 93 92 92 83 76 76 73 82
59 64 48 36 34 40 58 60 63 66 67 81 84 84 84 81 76 72 77 81 82 77 77 73 70 71 72 73 79 82 88 90 90 89 85 80 81 81 78 74 69 74 72 81
55 51 42 58 44 54 77 64 65 67 73 73 72 75 79 81 76 71 69 69 70 67 67 72 71 66 65 64 62 62 64 65 66 68 67 66 69 70 74 75 78 76 75 85